<?xml version="1.0" encoding="UTF-8" standalone="no" ?>
<gpx xmlns="http://www.topografix.com/GPX/1/1" xmlns:xsi="http://www.w3.org/2001/XMLSchema-instance" xsi:schemaLocation="http://www.topografix.com/GPX/1/1 http://www.topografix.com/GPX/1/1/gpx.xsd" version="1.1" creator="VisuGPX - https://www.visugpx.com">
  <metadata>
    <name>SityTrail - girard</name>
  </metadata>
  <trk>
    <name><![CDATA[SityTrail - girard]]></name>
    <trkseg>
      <trkpt lat="44.96511" lon="0.21079">
        <ele>93</ele>
        <time>2014-11-03T14:31:19Z</time>
      </trkpt>
      <trkpt lat="44.96513" lon="0.21078">
        <ele>93</ele>
        <time>2014-11-03T14:31:24Z</time>
      </trkpt>
      <trkpt lat="44.96537" lon="0.21106">
        <ele>94</ele>
        <time>2014-11-03T14:31:59Z</time>
      </trkpt>
      <trkpt lat="44.96537" lon="0.21106">
        <ele>94</ele>
        <time>2014-11-03T14:32:04Z</time>
      </trkpt>
      <trkpt lat="44.96537" lon="0.21107">
        <ele>94</ele>
        <time>2014-11-03T14:32:14Z</time>
      </trkpt>
      <trkpt lat="44.9653" lon="0.21105">
        <ele>94</ele>
        <time>2014-11-03T14:32:19Z</time>
      </trkpt>
      <trkpt lat="44.96555" lon="0.21075">
        <ele>94</ele>
        <time>2014-11-03T14:35:30Z</time>
      </trkpt>
      <trkpt lat="44.96558" lon="0.21073">
        <ele>94</ele>
        <time>2014-11-03T14:35:35Z</time>
      </trkpt>
      <trkpt lat="44.96561" lon="0.21076">
        <ele>94</ele>
        <time>2014-11-03T14:35:40Z</time>
      </trkpt>
      <trkpt lat="44.96564" lon="0.21082">
        <ele>94</ele>
        <time>2014-11-03T14:35:45Z</time>
      </trkpt>
      <trkpt lat="44.96565" lon="0.2109">
        <ele>94</ele>
        <time>2014-11-03T14:35:51Z</time>
      </trkpt>
      <trkpt lat="44.96568" lon="0.21098">
        <ele>95</ele>
        <time>2014-11-03T14:35:56Z</time>
      </trkpt>
      <trkpt lat="44.96572" lon="0.21102">
        <ele>94</ele>
        <time>2014-11-03T14:36:01Z</time>
      </trkpt>
      <trkpt lat="44.96577" lon="0.21109">
        <ele>94</ele>
        <time>2014-11-03T14:36:06Z</time>
      </trkpt>
      <trkpt lat="44.96581" lon="0.21114">
        <ele>94</ele>
        <time>2014-11-03T14:36:10Z</time>
      </trkpt>
      <trkpt lat="44.96587" lon="0.21118">
        <ele>94</ele>
        <time>2014-11-03T14:36:17Z</time>
      </trkpt>
      <trkpt lat="44.9659" lon="0.21117">
        <ele>94</ele>
        <time>2014-11-03T14:36:20Z</time>
      </trkpt>
      <trkpt lat="44.96594" lon="0.21132">
        <ele>94</ele>
        <time>2014-11-03T14:36:25Z</time>
      </trkpt>
      <trkpt lat="44.96596" lon="0.21141">
        <ele>94</ele>
        <time>2014-11-03T14:36:30Z</time>
      </trkpt>
      <trkpt lat="44.966" lon="0.21144">
        <ele>93</ele>
        <time>2014-11-03T14:36:35Z</time>
      </trkpt>
      <trkpt lat="44.96605" lon="0.2115">
        <ele>93</ele>
        <time>2014-11-03T14:36:40Z</time>
      </trkpt>
      <trkpt lat="44.96609" lon="0.21154">
        <ele>95</ele>
        <time>2014-11-03T14:36:45Z</time>
      </trkpt>
      <trkpt lat="44.96608" lon="0.21154">
        <ele>95</ele>
        <time>2014-11-03T14:36:50Z</time>
      </trkpt>
      <trkpt lat="44.96608" lon="0.21154">
        <ele>95</ele>
        <time>2014-11-03T14:36:55Z</time>
      </trkpt>
      <trkpt lat="44.9661" lon="0.21155">
        <ele>95</ele>
        <time>2014-11-03T14:37:00Z</time>
      </trkpt>
      <trkpt lat="44.96612" lon="0.21162">
        <ele>95</ele>
        <time>2014-11-03T14:37:05Z</time>
      </trkpt>
      <trkpt lat="44.96618" lon="0.2117">
        <ele>95</ele>
        <time>2014-11-03T14:37:10Z</time>
      </trkpt>
      <trkpt lat="44.96622" lon="0.2118">
        <ele>95</ele>
        <time>2014-11-03T14:37:15Z</time>
      </trkpt>
      <trkpt lat="44.96624" lon="0.21188">
        <ele>97</ele>
        <time>2014-11-03T14:37:20Z</time>
      </trkpt>
      <trkpt lat="44.96629" lon="0.21194">
        <ele>98</ele>
        <time>2014-11-03T14:37:25Z</time>
      </trkpt>
      <trkpt lat="44.96632" lon="0.21196">
        <ele>98</ele>
        <time>2014-11-03T14:37:30Z</time>
      </trkpt>
      <trkpt lat="44.96635" lon="0.21199">
        <ele>98</ele>
        <time>2014-11-03T14:37:35Z</time>
      </trkpt>
      <trkpt lat="44.96637" lon="0.21204">
        <ele>98</ele>
        <time>2014-11-03T14:37:40Z</time>
      </trkpt>
      <trkpt lat="44.9664" lon="0.21212">
        <ele>99</ele>
        <time>2014-11-03T14:37:45Z</time>
      </trkpt>
      <trkpt lat="44.96642" lon="0.21222">
        <ele>99</ele>
        <time>2014-11-03T14:37:50Z</time>
      </trkpt>
      <trkpt lat="44.96645" lon="0.21232">
        <ele>99</ele>
        <time>2014-11-03T14:37:55Z</time>
      </trkpt>
      <trkpt lat="44.96647" lon="0.21243">
        <ele>100</ele>
        <time>2014-11-03T14:38:01Z</time>
      </trkpt>
      <trkpt lat="44.96651" lon="0.21247">
        <ele>100</ele>
        <time>2014-11-03T14:38:05Z</time>
      </trkpt>
      <trkpt lat="44.96655" lon="0.21251">
        <ele>100</ele>
        <time>2014-11-03T14:38:10Z</time>
      </trkpt>
      <trkpt lat="44.96655" lon="0.21257">
        <ele>100</ele>
        <time>2014-11-03T14:38:15Z</time>
      </trkpt>
      <trkpt lat="44.96655" lon="0.21257">
        <ele>100</ele>
        <time>2014-11-03T14:38:20Z</time>
      </trkpt>
      <trkpt lat="44.96656" lon="0.21257">
        <ele>100</ele>
        <time>2014-11-03T14:38:25Z</time>
      </trkpt>
      <trkpt lat="44.96656" lon="0.21258">
        <ele>100</ele>
        <time>2014-11-03T14:38:31Z</time>
      </trkpt>
      <trkpt lat="44.96656" lon="0.21258">
        <ele>100</ele>
        <time>2014-11-03T14:38:35Z</time>
      </trkpt>
      <trkpt lat="44.96656" lon="0.21258">
        <ele>100</ele>
        <time>2014-11-03T14:38:40Z</time>
      </trkpt>
      <trkpt lat="44.96657" lon="0.2126">
        <ele>100</ele>
        <time>2014-11-03T14:38:45Z</time>
      </trkpt>
      <trkpt lat="44.96661" lon="0.21268">
        <ele>99</ele>
        <time>2014-11-03T14:38:50Z</time>
      </trkpt>
      <trkpt lat="44.96665" lon="0.21281">
        <ele>99</ele>
        <time>2014-11-03T14:38:55Z</time>
      </trkpt>
      <trkpt lat="44.96671" lon="0.21292">
        <ele>99</ele>
        <time>2014-11-03T14:39:00Z</time>
      </trkpt>
      <trkpt lat="44.96674" lon="0.21296">
        <ele>99</ele>
        <time>2014-11-03T14:39:05Z</time>
      </trkpt>
      <trkpt lat="44.96677" lon="0.21305">
        <ele>99</ele>
        <time>2014-11-03T14:39:11Z</time>
      </trkpt>
      <trkpt lat="44.96679" lon="0.21311">
        <ele>99</ele>
        <time>2014-11-03T14:39:15Z</time>
      </trkpt>
      <trkpt lat="44.96683" lon="0.21322">
        <ele>99</ele>
        <time>2014-11-03T14:39:21Z</time>
      </trkpt>
      <trkpt lat="44.96687" lon="0.21331">
        <ele>99</ele>
        <time>2014-11-03T14:39:25Z</time>
      </trkpt>
      <trkpt lat="44.96688" lon="0.21343">
        <ele>99</ele>
        <time>2014-11-03T14:39:31Z</time>
      </trkpt>
      <trkpt lat="44.96688" lon="0.2135">
        <ele>99</ele>
        <time>2014-11-03T14:39:35Z</time>
      </trkpt>
      <trkpt lat="44.96692" lon="0.21361">
        <ele>99</ele>
        <time>2014-11-03T14:39:40Z</time>
      </trkpt>
      <trkpt lat="44.96691" lon="0.21362">
        <ele>99</ele>
        <time>2014-11-03T14:39:46Z</time>
      </trkpt>
      <trkpt lat="44.96689" lon="0.21364">
        <ele>99</ele>
        <time>2014-11-03T14:39:51Z</time>
      </trkpt>
      <trkpt lat="44.9669" lon="0.21364">
        <ele>99</ele>
        <time>2014-11-03T14:39:55Z</time>
      </trkpt>
      <trkpt lat="44.9669" lon="0.21364">
        <ele>99</ele>
        <time>2014-11-03T14:40:01Z</time>
      </trkpt>
      <trkpt lat="44.96692" lon="0.21375">
        <ele>99</ele>
        <time>2014-11-03T14:40:07Z</time>
      </trkpt>
      <trkpt lat="44.96696" lon="0.21387">
        <ele>99</ele>
        <time>2014-11-03T14:40:11Z</time>
      </trkpt>
      <trkpt lat="44.967" lon="0.21394">
        <ele>99</ele>
        <time>2014-11-03T14:40:16Z</time>
      </trkpt>
      <trkpt lat="44.96703" lon="0.21397">
        <ele>99</ele>
        <time>2014-11-03T14:40:21Z</time>
      </trkpt>
      <trkpt lat="44.96705" lon="0.21403">
        <ele>99</ele>
        <time>2014-11-03T14:40:27Z</time>
      </trkpt>
      <trkpt lat="44.96709" lon="0.21406">
        <ele>101</ele>
        <time>2014-11-03T14:40:30Z</time>
      </trkpt>
      <trkpt lat="44.96712" lon="0.21409">
        <ele>101</ele>
        <time>2014-11-03T14:40:35Z</time>
      </trkpt>
      <trkpt lat="44.96714" lon="0.21414">
        <ele>101</ele>
        <time>2014-11-03T14:40:41Z</time>
      </trkpt>
      <trkpt lat="44.96717" lon="0.21419">
        <ele>101</ele>
        <time>2014-11-03T14:40:45Z</time>
      </trkpt>
      <trkpt lat="44.96717" lon="0.21424">
        <ele>101</ele>
        <time>2014-11-03T14:40:50Z</time>
      </trkpt>
      <trkpt lat="44.96717" lon="0.21432">
        <ele>100</ele>
        <time>2014-11-03T14:40:55Z</time>
      </trkpt>
      <trkpt lat="44.96722" lon="0.2144">
        <ele>100</ele>
        <time>2014-11-03T14:41:01Z</time>
      </trkpt>
      <trkpt lat="44.96723" lon="0.21446">
        <ele>100</ele>
        <time>2014-11-03T14:41:05Z</time>
      </trkpt>
      <trkpt lat="44.96726" lon="0.21459">
        <ele>100</ele>
        <time>2014-11-03T14:41:10Z</time>
      </trkpt>
      <trkpt lat="44.96729" lon="0.21465">
        <ele>100</ele>
        <time>2014-11-03T14:41:15Z</time>
      </trkpt>
      <trkpt lat="44.9673" lon="0.21471">
        <ele>100</ele>
        <time>2014-11-03T14:41:20Z</time>
      </trkpt>
      <trkpt lat="44.96731" lon="0.21474">
        <ele>100</ele>
        <time>2014-11-03T14:41:25Z</time>
      </trkpt>
      <trkpt lat="44.96735" lon="0.2148">
        <ele>100</ele>
        <time>2014-11-03T14:41:30Z</time>
      </trkpt>
      <trkpt lat="44.96736" lon="0.21491">
        <ele>99</ele>
        <time>2014-11-03T14:41:37Z</time>
      </trkpt>
      <trkpt lat="44.96735" lon="0.21495">
        <ele>99</ele>
        <time>2014-11-03T14:41:40Z</time>
      </trkpt>
      <trkpt lat="44.96737" lon="0.21501">
        <ele>100</ele>
        <time>2014-11-03T14:41:45Z</time>
      </trkpt>
      <trkpt lat="44.96739" lon="0.21507">
        <ele>100</ele>
        <time>2014-11-03T14:41:50Z</time>
      </trkpt>
      <trkpt lat="44.96741" lon="0.21517">
        <ele>100</ele>
        <time>2014-11-03T14:41:56Z</time>
      </trkpt>
      <trkpt lat="44.96745" lon="0.21525">
        <ele>100</ele>
        <time>2014-11-03T14:42:01Z</time>
      </trkpt>
      <trkpt lat="44.96744" lon="0.21529">
        <ele>100</ele>
        <time>2014-11-03T14:42:05Z</time>
      </trkpt>
      <trkpt lat="44.96748" lon="0.21536">
        <ele>100</ele>
        <time>2014-11-03T14:42:10Z</time>
      </trkpt>
      <trkpt lat="44.96748" lon="0.21547">
        <ele>100</ele>
        <time>2014-11-03T14:42:15Z</time>
      </trkpt>
      <trkpt lat="44.96748" lon="0.21554">
        <ele>100</ele>
        <time>2014-11-03T14:42:21Z</time>
      </trkpt>
      <trkpt lat="44.9675" lon="0.21558">
        <ele>100</ele>
        <time>2014-11-03T14:42:25Z</time>
      </trkpt>
      <trkpt lat="44.96752" lon="0.21566">
        <ele>100</ele>
        <time>2014-11-03T14:42:31Z</time>
      </trkpt>
      <trkpt lat="44.96757" lon="0.21574">
        <ele>100</ele>
        <time>2014-11-03T14:42:37Z</time>
      </trkpt>
      <trkpt lat="44.9676" lon="0.21573">
        <ele>100</ele>
        <time>2014-11-03T14:42:40Z</time>
      </trkpt>
      <trkpt lat="44.96765" lon="0.21573">
        <ele>100</ele>
        <time>2014-11-03T14:42:45Z</time>
      </trkpt>
      <trkpt lat="44.9677" lon="0.21576">
        <ele>100</ele>
        <time>2014-11-03T14:42:50Z</time>
      </trkpt>
      <trkpt lat="44.96775" lon="0.21578">
        <ele>100</ele>
        <time>2014-11-03T14:42:55Z</time>
      </trkpt>
      <trkpt lat="44.96781" lon="0.21581">
        <ele>100</ele>
        <time>2014-11-03T14:43:00Z</time>
      </trkpt>
      <trkpt lat="44.96786" lon="0.21579">
        <ele>100</ele>
        <time>2014-11-03T14:43:05Z</time>
      </trkpt>
      <trkpt lat="44.96793" lon="0.21582">
        <ele>99</ele>
        <time>2014-11-03T14:43:10Z</time>
      </trkpt>
      <trkpt lat="44.96798" lon="0.21581">
        <ele>99</ele>
        <time>2014-11-03T14:43:15Z</time>
      </trkpt>
      <trkpt lat="44.96805" lon="0.21575">
        <ele>99</ele>
        <time>2014-11-03T14:43:20Z</time>
      </trkpt>
      <trkpt lat="44.96809" lon="0.21574">
        <ele>99</ele>
        <time>2014-11-03T14:43:25Z</time>
      </trkpt>
      <trkpt lat="44.96811" lon="0.21572">
        <ele>99</ele>
        <time>2014-11-03T14:43:30Z</time>
      </trkpt>
      <trkpt lat="44.96814" lon="0.21571">
        <ele>99</ele>
        <time>2014-11-03T14:43:35Z</time>
      </trkpt>
      <trkpt lat="44.96819" lon="0.21571">
        <ele>99</ele>
        <time>2014-11-03T14:43:40Z</time>
      </trkpt>
      <trkpt lat="44.96824" lon="0.21572">
        <ele>98</ele>
        <time>2014-11-03T14:43:45Z</time>
      </trkpt>
      <trkpt lat="44.96828" lon="0.21574">
        <ele>98</ele>
        <time>2014-11-03T14:43:50Z</time>
      </trkpt>
      <trkpt lat="44.96834" lon="0.21577">
        <ele>98</ele>
        <time>2014-11-03T14:43:55Z</time>
      </trkpt>
      <trkpt lat="44.96839" lon="0.21576">
        <ele>98</ele>
        <time>2014-11-03T14:44:00Z</time>
      </trkpt>
      <trkpt lat="44.96848" lon="0.21578">
        <ele>96</ele>
        <time>2014-11-03T14:44:07Z</time>
      </trkpt>
      <trkpt lat="44.96851" lon="0.21578">
        <ele>96</ele>
        <time>2014-11-03T14:44:10Z</time>
      </trkpt>
      <trkpt lat="44.9686" lon="0.21576">
        <ele>96</ele>
        <time>2014-11-03T14:44:15Z</time>
      </trkpt>
      <trkpt lat="44.96862" lon="0.21575">
        <ele>96</ele>
        <time>2014-11-03T14:44:20Z</time>
      </trkpt>
      <trkpt lat="44.96866" lon="0.21577">
        <ele>96</ele>
        <time>2014-11-03T14:44:26Z</time>
      </trkpt>
      <trkpt lat="44.9687" lon="0.21576">
        <ele>96</ele>
        <time>2014-11-03T14:44:30Z</time>
      </trkpt>
      <trkpt lat="44.96877" lon="0.21575">
        <ele>94</ele>
        <time>2014-11-03T14:44:35Z</time>
      </trkpt>
      <trkpt lat="44.96883" lon="0.21573">
        <ele>94</ele>
        <time>2014-11-03T14:44:41Z</time>
      </trkpt>
      <trkpt lat="44.96888" lon="0.21571">
        <ele>94</ele>
        <time>2014-11-03T14:44:45Z</time>
      </trkpt>
      <trkpt lat="44.96894" lon="0.21571">
        <ele>94</ele>
        <time>2014-11-03T14:44:50Z</time>
      </trkpt>
      <trkpt lat="44.96899" lon="0.21569">
        <ele>93</ele>
        <time>2014-11-03T14:44:55Z</time>
      </trkpt>
      <trkpt lat="44.969" lon="0.21572">
        <ele>94</ele>
        <time>2014-11-03T14:45:01Z</time>
      </trkpt>
      <trkpt lat="44.96902" lon="0.21573">
        <ele>94</ele>
        <time>2014-11-03T14:45:05Z</time>
      </trkpt>
      <trkpt lat="44.96903" lon="0.21572">
        <ele>94</ele>
        <time>2014-11-03T14:45:11Z</time>
      </trkpt>
      <trkpt lat="44.96903" lon="0.21573">
        <ele>94</ele>
        <time>2014-11-03T14:45:16Z</time>
      </trkpt>
      <trkpt lat="44.96903" lon="0.21573">
        <ele>93</ele>
        <time>2014-11-03T14:45:20Z</time>
      </trkpt>
      <trkpt lat="44.96908" lon="0.21573">
        <ele>93</ele>
        <time>2014-11-03T14:45:25Z</time>
      </trkpt>
      <trkpt lat="44.9692" lon="0.21572">
        <ele>93</ele>
        <time>2014-11-03T14:45:31Z</time>
      </trkpt>
      <trkpt lat="44.96923" lon="0.21572">
        <ele>93</ele>
        <time>2014-11-03T14:45:35Z</time>
      </trkpt>
      <trkpt lat="44.96932" lon="0.21567">
        <ele>92</ele>
        <time>2014-11-03T14:45:40Z</time>
      </trkpt>
      <trkpt lat="44.96939" lon="0.21565">
        <ele>92</ele>
        <time>2014-11-03T14:45:46Z</time>
      </trkpt>
      <trkpt lat="44.96946" lon="0.21569">
        <ele>92</ele>
        <time>2014-11-03T14:45:51Z</time>
      </trkpt>
      <trkpt lat="44.96951" lon="0.2157">
        <ele>93</ele>
        <time>2014-11-03T14:45:56Z</time>
      </trkpt>
      <trkpt lat="44.96956" lon="0.21567">
        <ele>92</ele>
        <time>2014-11-03T14:46:00Z</time>
      </trkpt>
      <trkpt lat="44.9696" lon="0.21564">
        <ele>91</ele>
        <time>2014-11-03T14:46:05Z</time>
      </trkpt>
      <trkpt lat="44.96966" lon="0.21564">
        <ele>91</ele>
        <time>2014-11-03T14:46:10Z</time>
      </trkpt>
      <trkpt lat="44.9697" lon="0.21567">
        <ele>91</ele>
        <time>2014-11-03T14:46:15Z</time>
      </trkpt>
      <trkpt lat="44.96979" lon="0.21569">
        <ele>91</ele>
        <time>2014-11-03T14:46:20Z</time>
      </trkpt>
      <trkpt lat="44.96988" lon="0.2157">
        <ele>93</ele>
        <time>2014-11-03T14:46:26Z</time>
      </trkpt>
      <trkpt lat="44.96992" lon="0.21567">
        <ele>91</ele>
        <time>2014-11-03T14:46:30Z</time>
      </trkpt>
      <trkpt lat="44.96999" lon="0.21563">
        <ele>91</ele>
        <time>2014-11-03T14:46:35Z</time>
      </trkpt>
      <trkpt lat="44.97004" lon="0.21563">
        <ele>91</ele>
        <time>2014-11-03T14:46:41Z</time>
      </trkpt>
      <trkpt lat="44.97011" lon="0.21563">
        <ele>91</ele>
        <time>2014-11-03T14:46:46Z</time>
      </trkpt>
      <trkpt lat="44.97014" lon="0.21562">
        <ele>90</ele>
        <time>2014-11-03T14:46:50Z</time>
      </trkpt>
      <trkpt lat="44.97019" lon="0.21564">
        <ele>90</ele>
        <time>2014-11-03T14:46:55Z</time>
      </trkpt>
      <trkpt lat="44.97024" lon="0.21564">
        <ele>90</ele>
        <time>2014-11-03T14:47:00Z</time>
      </trkpt>
      <trkpt lat="44.9703" lon="0.21563">
        <ele>90</ele>
        <time>2014-11-03T14:47:05Z</time>
      </trkpt>
      <trkpt lat="44.97034" lon="0.21571">
        <ele>91</ele>
        <time>2014-11-03T14:47:10Z</time>
      </trkpt>
      <trkpt lat="44.97045" lon="0.21572">
        <ele>88</ele>
        <time>2014-11-03T14:47:15Z</time>
      </trkpt>
      <trkpt lat="44.97048" lon="0.21573">
        <ele>88</ele>
        <time>2014-11-03T14:47:20Z</time>
      </trkpt>
      <trkpt lat="44.97055" lon="0.21576">
        <ele>88</ele>
        <time>2014-11-03T14:47:26Z</time>
      </trkpt>
      <trkpt lat="44.9706" lon="0.21574">
        <ele>88</ele>
        <time>2014-11-03T14:47:31Z</time>
      </trkpt>
      <trkpt lat="44.97063" lon="0.21571">
        <ele>88</ele>
        <time>2014-11-03T14:47:36Z</time>
      </trkpt>
      <trkpt lat="44.97069" lon="0.2157">
        <ele>88</ele>
        <time>2014-11-03T14:47:41Z</time>
      </trkpt>
      <trkpt lat="44.97073" lon="0.21568">
        <ele>86</ele>
        <time>2014-11-03T14:47:46Z</time>
      </trkpt>
      <trkpt lat="44.97077" lon="0.21566">
        <ele>86</ele>
        <time>2014-11-03T14:47:50Z</time>
      </trkpt>
      <trkpt lat="44.97083" lon="0.21565">
        <ele>86</ele>
        <time>2014-11-03T14:47:55Z</time>
      </trkpt>
      <trkpt lat="44.97086" lon="0.21563">
        <ele>86</ele>
        <time>2014-11-03T14:48:00Z</time>
      </trkpt>
      <trkpt lat="44.97092" lon="0.21561">
        <ele>86</ele>
        <time>2014-11-03T14:48:06Z</time>
      </trkpt>
      <trkpt lat="44.97098" lon="0.21562">
        <ele>86</ele>
        <time>2014-11-03T14:48:10Z</time>
      </trkpt>
      <trkpt lat="44.97108" lon="0.21562">
        <ele>86</ele>
        <time>2014-11-03T14:48:15Z</time>
      </trkpt>
      <trkpt lat="44.97114" lon="0.21564">
        <ele>86</ele>
        <time>2014-11-03T14:48:20Z</time>
      </trkpt>
      <trkpt lat="44.97119" lon="0.21564">
        <ele>86</ele>
        <time>2014-11-03T14:48:25Z</time>
      </trkpt>
      <trkpt lat="44.97122" lon="0.21564">
        <ele>86</ele>
        <time>2014-11-03T14:48:32Z</time>
      </trkpt>
      <trkpt lat="44.97128" lon="0.21562">
        <ele>86</ele>
        <time>2014-11-03T14:48:36Z</time>
      </trkpt>
      <trkpt lat="44.97136" lon="0.2156">
        <ele>86</ele>
        <time>2014-11-03T14:48:40Z</time>
      </trkpt>
      <trkpt lat="44.97141" lon="0.21559">
        <ele>86</ele>
        <time>2014-11-03T14:48:45Z</time>
      </trkpt>
      <trkpt lat="44.97145" lon="0.21558">
        <ele>86</ele>
        <time>2014-11-03T14:48:50Z</time>
      </trkpt>
      <trkpt lat="44.97148" lon="0.21557">
        <ele>86</ele>
        <time>2014-11-03T14:48:55Z</time>
      </trkpt>
      <trkpt lat="44.97153" lon="0.21555">
        <ele>86</ele>
        <time>2014-11-03T14:49:00Z</time>
      </trkpt>
      <trkpt lat="44.97159" lon="0.21555">
        <ele>85</ele>
        <time>2014-11-03T14:49:06Z</time>
      </trkpt>
      <trkpt lat="44.97164" lon="0.21555">
        <ele>85</ele>
        <time>2014-11-03T14:49:10Z</time>
      </trkpt>
      <trkpt lat="44.9717" lon="0.21553">
        <ele>85</ele>
        <time>2014-11-03T14:49:15Z</time>
      </trkpt>
      <trkpt lat="44.97175" lon="0.21552">
        <ele>85</ele>
        <time>2014-11-03T14:49:20Z</time>
      </trkpt>
      <trkpt lat="44.97176" lon="0.21556">
        <ele>85</ele>
        <time>2014-11-03T14:49:25Z</time>
      </trkpt>
      <trkpt lat="44.97179" lon="0.21559">
        <ele>85</ele>
        <time>2014-11-03T14:49:31Z</time>
      </trkpt>
      <trkpt lat="44.9718" lon="0.2156">
        <ele>85</ele>
        <time>2014-11-03T14:49:36Z</time>
      </trkpt>
      <trkpt lat="44.97186" lon="0.2156">
        <ele>84</ele>
        <time>2014-11-03T14:49:40Z</time>
      </trkpt>
      <trkpt lat="44.9719" lon="0.2156">
        <ele>84</ele>
        <time>2014-11-03T14:49:45Z</time>
      </trkpt>
      <trkpt lat="44.97194" lon="0.21557">
        <ele>84</ele>
        <time>2014-11-03T14:49:51Z</time>
      </trkpt>
      <trkpt lat="44.972" lon="0.21551">
        <ele>84</ele>
        <time>2014-11-03T14:49:55Z</time>
      </trkpt>
      <trkpt lat="44.97205" lon="0.21551">
        <ele>84</ele>
        <time>2014-11-03T14:50:00Z</time>
      </trkpt>
      <trkpt lat="44.97213" lon="0.21551">
        <ele>84</ele>
        <time>2014-11-03T14:50:06Z</time>
      </trkpt>
      <trkpt lat="44.97221" lon="0.21551">
        <ele>84</ele>
        <time>2014-11-03T14:50:10Z</time>
      </trkpt>
      <trkpt lat="44.97228" lon="0.21551">
        <ele>84</ele>
        <time>2014-11-03T14:50:16Z</time>
      </trkpt>
      <trkpt lat="44.97233" lon="0.21552">
        <ele>84</ele>
        <time>2014-11-03T14:50:20Z</time>
      </trkpt>
      <trkpt lat="44.97239" lon="0.2155">
        <ele>80</ele>
        <time>2014-11-03T14:50:25Z</time>
      </trkpt>
      <trkpt lat="44.97244" lon="0.2155">
        <ele>80</ele>
        <time>2014-11-03T14:50:30Z</time>
      </trkpt>
      <trkpt lat="44.97251" lon="0.21551">
        <ele>80</ele>
        <time>2014-11-03T14:50:36Z</time>
      </trkpt>
      <trkpt lat="44.97254" lon="0.21552">
        <ele>80</ele>
        <time>2014-11-03T14:50:40Z</time>
      </trkpt>
      <trkpt lat="44.97259" lon="0.2156">
        <ele>80</ele>
        <time>2014-11-03T14:50:45Z</time>
      </trkpt>
      <trkpt lat="44.97261" lon="0.21565">
        <ele>80</ele>
        <time>2014-11-03T14:50:50Z</time>
      </trkpt>
      <trkpt lat="44.9726" lon="0.21572">
        <ele>80</ele>
        <time>2014-11-03T14:50:56Z</time>
      </trkpt>
      <trkpt lat="44.9726" lon="0.21577">
        <ele>80</ele>
        <time>2014-11-03T14:51:01Z</time>
      </trkpt>
      <trkpt lat="44.97261" lon="0.21582">
        <ele>80</ele>
        <time>2014-11-03T14:51:05Z</time>
      </trkpt>
      <trkpt lat="44.97262" lon="0.21589">
        <ele>80</ele>
        <time>2014-11-03T14:51:10Z</time>
      </trkpt>
      <trkpt lat="44.97263" lon="0.21592">
        <ele>80</ele>
        <time>2014-11-03T14:51:15Z</time>
      </trkpt>
      <trkpt lat="44.97263" lon="0.21602">
        <ele>79</ele>
        <time>2014-11-03T14:51:21Z</time>
      </trkpt>
      <trkpt lat="44.97263" lon="0.21612">
        <ele>79</ele>
        <time>2014-11-03T14:51:25Z</time>
      </trkpt>
      <trkpt lat="44.97267" lon="0.21621">
        <ele>76</ele>
        <time>2014-11-03T14:51:31Z</time>
      </trkpt>
      <trkpt lat="44.97268" lon="0.21629">
        <ele>77</ele>
        <time>2014-11-03T14:51:35Z</time>
      </trkpt>
      <trkpt lat="44.97269" lon="0.21635">
        <ele>77</ele>
        <time>2014-11-03T14:51:40Z</time>
      </trkpt>
      <trkpt lat="44.97272" lon="0.21645">
        <ele>77</ele>
        <time>2014-11-03T14:51:45Z</time>
      </trkpt>
      <trkpt lat="44.97275" lon="0.21651">
        <ele>77</ele>
        <time>2014-11-03T14:51:51Z</time>
      </trkpt>
      <trkpt lat="44.97277" lon="0.21656">
        <ele>77</ele>
        <time>2014-11-03T14:51:55Z</time>
      </trkpt>
      <trkpt lat="44.97282" lon="0.21666">
        <ele>77</ele>
        <time>2014-11-03T14:52:01Z</time>
      </trkpt>
      <trkpt lat="44.97284" lon="0.21673">
        <ele>77</ele>
        <time>2014-11-03T14:52:05Z</time>
      </trkpt>
      <trkpt lat="44.97284" lon="0.21679">
        <ele>77</ele>
        <time>2014-11-03T14:52:10Z</time>
      </trkpt>
      <trkpt lat="44.97282" lon="0.2169">
        <ele>79</ele>
        <time>2014-11-03T14:52:16Z</time>
      </trkpt>
      <trkpt lat="44.97283" lon="0.21696">
        <ele>79</ele>
        <time>2014-11-03T14:52:21Z</time>
      </trkpt>
      <trkpt lat="44.97286" lon="0.217">
        <ele>79</ele>
        <time>2014-11-03T14:52:25Z</time>
      </trkpt>
      <trkpt lat="44.97287" lon="0.21706">
        <ele>79</ele>
        <time>2014-11-03T14:52:31Z</time>
      </trkpt>
      <trkpt lat="44.97289" lon="0.21716">
        <ele>79</ele>
        <time>2014-11-03T14:52:36Z</time>
      </trkpt>
      <trkpt lat="44.97292" lon="0.21723">
        <ele>79</ele>
        <time>2014-11-03T14:52:40Z</time>
      </trkpt>
      <trkpt lat="44.97292" lon="0.21729">
        <ele>78</ele>
        <time>2014-11-03T14:52:45Z</time>
      </trkpt>
      <trkpt lat="44.97294" lon="0.21735">
        <ele>78</ele>
        <time>2014-11-03T14:52:51Z</time>
      </trkpt>
      <trkpt lat="44.97294" lon="0.21744">
        <ele>78</ele>
        <time>2014-11-03T14:52:56Z</time>
      </trkpt>
      <trkpt lat="44.97294" lon="0.21749">
        <ele>78</ele>
        <time>2014-11-03T14:53:00Z</time>
      </trkpt>
      <trkpt lat="44.97295" lon="0.21756">
        <ele>78</ele>
        <time>2014-11-03T14:53:05Z</time>
      </trkpt>
      <trkpt lat="44.97297" lon="0.21764">
        <ele>78</ele>
        <time>2014-11-03T14:53:10Z</time>
      </trkpt>
      <trkpt lat="44.973" lon="0.21773">
        <ele>77</ele>
        <time>2014-11-03T14:53:15Z</time>
      </trkpt>
      <trkpt lat="44.97302" lon="0.2178">
        <ele>77</ele>
        <time>2014-11-03T14:53:20Z</time>
      </trkpt>
      <trkpt lat="44.97305" lon="0.21788">
        <ele>77</ele>
        <time>2014-11-03T14:53:26Z</time>
      </trkpt>
      <trkpt lat="44.97306" lon="0.21796">
        <ele>77</ele>
        <time>2014-11-03T14:53:31Z</time>
      </trkpt>
      <trkpt lat="44.97308" lon="0.21803">
        <ele>77</ele>
        <time>2014-11-03T14:53:35Z</time>
      </trkpt>
      <trkpt lat="44.97309" lon="0.21812">
        <ele>77</ele>
        <time>2014-11-03T14:53:41Z</time>
      </trkpt>
      <trkpt lat="44.9731" lon="0.21818">
        <ele>77</ele>
        <time>2014-11-03T14:53:45Z</time>
      </trkpt>
      <trkpt lat="44.97311" lon="0.21825">
        <ele>77</ele>
        <time>2014-11-03T14:53:50Z</time>
      </trkpt>
      <trkpt lat="44.97312" lon="0.21835">
        <ele>77</ele>
        <time>2014-11-03T14:53:57Z</time>
      </trkpt>
      <trkpt lat="44.97314" lon="0.21844">
        <ele>77</ele>
        <time>2014-11-03T14:54:01Z</time>
      </trkpt>
      <trkpt lat="44.97317" lon="0.21852">
        <ele>76</ele>
        <time>2014-11-03T14:54:05Z</time>
      </trkpt>
      <trkpt lat="44.9732" lon="0.21861">
        <ele>73</ele>
        <time>2014-11-03T14:54:11Z</time>
      </trkpt>
      <trkpt lat="44.97323" lon="0.21871">
        <ele>73</ele>
        <time>2014-11-03T14:54:16Z</time>
      </trkpt>
      <trkpt lat="44.97326" lon="0.21877">
        <ele>72</ele>
        <time>2014-11-03T14:54:20Z</time>
      </trkpt>
      <trkpt lat="44.9733" lon="0.21881">
        <ele>72</ele>
        <time>2014-11-03T14:54:26Z</time>
      </trkpt>
      <trkpt lat="44.97331" lon="0.21885">
        <ele>72</ele>
        <time>2014-11-03T14:54:31Z</time>
      </trkpt>
      <trkpt lat="44.97335" lon="0.21893">
        <ele>72</ele>
        <time>2014-11-03T14:54:36Z</time>
      </trkpt>
      <trkpt lat="44.97338" lon="0.21895">
        <ele>72</ele>
        <time>2014-11-03T14:54:41Z</time>
      </trkpt>
      <trkpt lat="44.97343" lon="0.21897">
        <ele>72</ele>
        <time>2014-11-03T14:54:46Z</time>
      </trkpt>
      <trkpt lat="44.97343" lon="0.21903">
        <ele>72</ele>
        <time>2014-11-03T14:54:50Z</time>
      </trkpt>
      <trkpt lat="44.97344" lon="0.21909">
        <ele>71</ele>
        <time>2014-11-03T14:54:55Z</time>
      </trkpt>
      <trkpt lat="44.97347" lon="0.21914">
        <ele>71</ele>
        <time>2014-11-03T14:55:00Z</time>
      </trkpt>
      <trkpt lat="44.97349" lon="0.21922">
        <ele>70</ele>
        <time>2014-11-03T14:55:05Z</time>
      </trkpt>
      <trkpt lat="44.9735" lon="0.2193">
        <ele>70</ele>
        <time>2014-11-03T14:55:10Z</time>
      </trkpt>
      <trkpt lat="44.97352" lon="0.21939">
        <ele>71</ele>
        <time>2014-11-03T14:55:15Z</time>
      </trkpt>
      <trkpt lat="44.97354" lon="0.21946">
        <ele>71</ele>
        <time>2014-11-03T14:55:20Z</time>
      </trkpt>
      <trkpt lat="44.97357" lon="0.21952">
        <ele>71</ele>
        <time>2014-11-03T14:55:25Z</time>
      </trkpt>
      <trkpt lat="44.97359" lon="0.21958">
        <ele>71</ele>
        <time>2014-11-03T14:55:30Z</time>
      </trkpt>
      <trkpt lat="44.97359" lon="0.21962">
        <ele>73</ele>
        <time>2014-11-03T14:55:36Z</time>
      </trkpt>
      <trkpt lat="44.97362" lon="0.21977">
        <ele>73</ele>
        <time>2014-11-03T14:55:41Z</time>
      </trkpt>
      <trkpt lat="44.97362" lon="0.21984">
        <ele>73</ele>
        <time>2014-11-03T14:55:45Z</time>
      </trkpt>
      <trkpt lat="44.97363" lon="0.21993">
        <ele>75</ele>
        <time>2014-11-03T14:55:51Z</time>
      </trkpt>
      <trkpt lat="44.97363" lon="0.22">
        <ele>75</ele>
        <time>2014-11-03T14:55:55Z</time>
      </trkpt>
      <trkpt lat="44.97364" lon="0.22007">
        <ele>75</ele>
        <time>2014-11-03T14:56:00Z</time>
      </trkpt>
      <trkpt lat="44.97367" lon="0.22015">
        <ele>76</ele>
        <time>2014-11-03T14:56:05Z</time>
      </trkpt>
      <trkpt lat="44.97369" lon="0.22023">
        <ele>76</ele>
        <time>2014-11-03T14:56:11Z</time>
      </trkpt>
      <trkpt lat="44.97371" lon="0.22032">
        <ele>76</ele>
        <time>2014-11-03T14:56:15Z</time>
      </trkpt>
      <trkpt lat="44.97374" lon="0.22041">
        <ele>76</ele>
        <time>2014-11-03T14:56:21Z</time>
      </trkpt>
      <trkpt lat="44.97376" lon="0.22045">
        <ele>77</ele>
        <time>2014-11-03T14:56:25Z</time>
      </trkpt>
      <trkpt lat="44.97376" lon="0.22052">
        <ele>77</ele>
        <time>2014-11-03T14:56:30Z</time>
      </trkpt>
      <trkpt lat="44.97378" lon="0.22057">
        <ele>77</ele>
        <time>2014-11-03T14:56:36Z</time>
      </trkpt>
      <trkpt lat="44.97378" lon="0.22062">
        <ele>77</ele>
        <time>2014-11-03T14:56:40Z</time>
      </trkpt>
      <trkpt lat="44.97378" lon="0.22071">
        <ele>78</ele>
        <time>2014-11-03T14:56:45Z</time>
      </trkpt>
      <trkpt lat="44.9738" lon="0.22076">
        <ele>78</ele>
        <time>2014-11-03T14:56:52Z</time>
      </trkpt>
      <trkpt lat="44.97382" lon="0.22083">
        <ele>78</ele>
        <time>2014-11-03T14:56:56Z</time>
      </trkpt>
      <trkpt lat="44.97383" lon="0.22088">
        <ele>78</ele>
        <time>2014-11-03T14:57:00Z</time>
      </trkpt>
      <trkpt lat="44.97383" lon="0.22093">
        <ele>78</ele>
        <time>2014-11-03T14:57:05Z</time>
      </trkpt>
      <trkpt lat="44.97385" lon="0.22101">
        <ele>81</ele>
        <time>2014-11-03T14:57:11Z</time>
      </trkpt>
      <trkpt lat="44.97385" lon="0.22109">
        <ele>81</ele>
        <time>2014-11-03T14:57:16Z</time>
      </trkpt>
      <trkpt lat="44.97385" lon="0.22115">
        <ele>81</ele>
        <time>2014-11-03T14:57:20Z</time>
      </trkpt>
      <trkpt lat="44.97388" lon="0.22119">
        <ele>81</ele>
        <time>2014-11-03T14:57:25Z</time>
      </trkpt>
      <trkpt lat="44.97389" lon="0.22127">
        <ele>84</ele>
        <time>2014-11-03T14:57:31Z</time>
      </trkpt>
      <trkpt lat="44.9739" lon="0.22136">
        <ele>84</ele>
        <time>2014-11-03T14:57:35Z</time>
      </trkpt>
      <trkpt lat="44.9739" lon="0.22146">
        <ele>84</ele>
        <time>2014-11-03T14:57:40Z</time>
      </trkpt>
      <trkpt lat="44.97391" lon="0.22153">
        <ele>87</ele>
        <time>2014-11-03T14:57:45Z</time>
      </trkpt>
      <trkpt lat="44.97391" lon="0.22162">
        <ele>87</ele>
        <time>2014-11-03T14:57:50Z</time>
      </trkpt>
      <trkpt lat="44.97394" lon="0.2217">
        <ele>87</ele>
        <time>2014-11-03T14:57:55Z</time>
      </trkpt>
      <trkpt lat="44.97396" lon="0.22177">
        <ele>87</ele>
        <time>2014-11-03T14:58:02Z</time>
      </trkpt>
      <trkpt lat="44.97397" lon="0.22181">
        <ele>90</ele>
        <time>2014-11-03T14:58:05Z</time>
      </trkpt>
      <trkpt lat="44.97398" lon="0.2219">
        <ele>90</ele>
        <time>2014-11-03T14:58:10Z</time>
      </trkpt>
      <trkpt lat="44.97399" lon="0.22199">
        <ele>90</ele>
        <time>2014-11-03T14:58:15Z</time>
      </trkpt>
      <trkpt lat="44.974" lon="0.22204">
        <ele>90</ele>
        <time>2014-11-03T14:58:21Z</time>
      </trkpt>
      <trkpt lat="44.97402" lon="0.22206">
        <ele>90</ele>
        <time>2014-11-03T14:58:25Z</time>
      </trkpt>
      <trkpt lat="44.97404" lon="0.22215">
        <ele>87</ele>
        <time>2014-11-03T14:58:30Z</time>
      </trkpt>
      <trkpt lat="44.97405" lon="0.22225">
        <ele>87</ele>
        <time>2014-11-03T14:58:37Z</time>
      </trkpt>
      <trkpt lat="44.97406" lon="0.22229">
        <ele>87</ele>
        <time>2014-11-03T14:58:40Z</time>
      </trkpt>
      <trkpt lat="44.97409" lon="0.22236">
        <ele>87</ele>
        <time>2014-11-03T14:58:45Z</time>
      </trkpt>
      <trkpt lat="44.9741" lon="0.22246">
        <ele>88</ele>
        <time>2014-11-03T14:58:50Z</time>
      </trkpt>
      <trkpt lat="44.9741" lon="0.22253">
        <ele>88</ele>
        <time>2014-11-03T14:58:56Z</time>
      </trkpt>
      <trkpt lat="44.97412" lon="0.22261">
        <ele>88</ele>
        <time>2014-11-03T14:59:01Z</time>
      </trkpt>
      <trkpt lat="44.97414" lon="0.22265">
        <ele>88</ele>
        <time>2014-11-03T14:59:05Z</time>
      </trkpt>
      <trkpt lat="44.97415" lon="0.22275">
        <ele>88</ele>
        <time>2014-11-03T14:59:10Z</time>
      </trkpt>
      <trkpt lat="44.97416" lon="0.22282">
        <ele>88</ele>
        <time>2014-11-03T14:59:16Z</time>
      </trkpt>
      <trkpt lat="44.97418" lon="0.22288">
        <ele>88</ele>
        <time>2014-11-03T14:59:21Z</time>
      </trkpt>
      <trkpt lat="44.9742" lon="0.22293">
        <ele>88</ele>
        <time>2014-11-03T14:59:25Z</time>
      </trkpt>
      <trkpt lat="44.97421" lon="0.223">
        <ele>88</ele>
        <time>2014-11-03T14:59:30Z</time>
      </trkpt>
      <trkpt lat="44.97421" lon="0.22313">
        <ele>88</ele>
        <time>2014-11-03T14:59:36Z</time>
      </trkpt>
      <trkpt lat="44.97424" lon="0.22321">
        <ele>89</ele>
        <time>2014-11-03T14:59:41Z</time>
      </trkpt>
      <trkpt lat="44.97425" lon="0.22327">
        <ele>89</ele>
        <time>2014-11-03T14:59:45Z</time>
      </trkpt>
      <trkpt lat="44.97427" lon="0.22334">
        <ele>89</ele>
        <time>2014-11-03T14:59:52Z</time>
      </trkpt>
      <trkpt lat="44.97428" lon="0.22338">
        <ele>89</ele>
        <time>2014-11-03T14:59:56Z</time>
      </trkpt>
      <trkpt lat="44.97429" lon="0.22341">
        <ele>89</ele>
        <time>2014-11-03T15:00:00Z</time>
      </trkpt>
      <trkpt lat="44.97431" lon="0.22346">
        <ele>87</ele>
        <time>2014-11-03T15:00:06Z</time>
      </trkpt>
      <trkpt lat="44.97433" lon="0.22353">
        <ele>89</ele>
        <time>2014-11-03T15:00:11Z</time>
      </trkpt>
      <trkpt lat="44.97436" lon="0.2236">
        <ele>89</ele>
        <time>2014-11-03T15:00:15Z</time>
      </trkpt>
      <trkpt lat="44.9744" lon="0.22366">
        <ele>89</ele>
        <time>2014-11-03T15:00:20Z</time>
      </trkpt>
      <trkpt lat="44.97443" lon="0.22372">
        <ele>89</ele>
        <time>2014-11-03T15:00:25Z</time>
      </trkpt>
      <trkpt lat="44.97447" lon="0.22378">
        <ele>90</ele>
        <time>2014-11-03T15:00:31Z</time>
      </trkpt>
      <trkpt lat="44.97454" lon="0.22379">
        <ele>90</ele>
        <time>2014-11-03T15:00:35Z</time>
      </trkpt>
      <trkpt lat="44.9746" lon="0.22383">
        <ele>89</ele>
        <time>2014-11-03T15:00:41Z</time>
      </trkpt>
      <trkpt lat="44.97464" lon="0.2238">
        <ele>89</ele>
        <time>2014-11-03T15:00:45Z</time>
      </trkpt>
      <trkpt lat="44.97468" lon="0.22383">
        <ele>89</ele>
        <time>2014-11-03T15:00:50Z</time>
      </trkpt>
      <trkpt lat="44.97472" lon="0.22388">
        <ele>89</ele>
        <time>2014-11-03T15:00:55Z</time>
      </trkpt>
      <trkpt lat="44.97475" lon="0.22397">
        <ele>89</ele>
        <time>2014-11-03T15:01:02Z</time>
      </trkpt>
      <trkpt lat="44.97478" lon="0.22405">
        <ele>89</ele>
        <time>2014-11-03T15:01:05Z</time>
      </trkpt>
      <trkpt lat="44.97484" lon="0.22414">
        <ele>89</ele>
        <time>2014-11-03T15:01:10Z</time>
      </trkpt>
      <trkpt lat="44.97489" lon="0.22423">
        <ele>89</ele>
        <time>2014-11-03T15:01:16Z</time>
      </trkpt>
      <trkpt lat="44.97494" lon="0.22423">
        <ele>89</ele>
        <time>2014-11-03T15:01:20Z</time>
      </trkpt>
      <trkpt lat="44.97499" lon="0.22421">
        <ele>89</ele>
        <time>2014-11-03T15:01:25Z</time>
      </trkpt>
      <trkpt lat="44.97504" lon="0.22418">
        <ele>89</ele>
        <time>2014-11-03T15:01:31Z</time>
      </trkpt>
      <trkpt lat="44.97508" lon="0.22424">
        <ele>89</ele>
        <time>2014-11-03T15:01:35Z</time>
      </trkpt>
      <trkpt lat="44.97511" lon="0.22431">
        <ele>89</ele>
        <time>2014-11-03T15:01:40Z</time>
      </trkpt>
      <trkpt lat="44.97514" lon="0.22437">
        <ele>89</ele>
        <time>2014-11-03T15:01:46Z</time>
      </trkpt>
      <trkpt lat="44.97518" lon="0.22441">
        <ele>90</ele>
        <time>2014-11-03T15:01:51Z</time>
      </trkpt>
      <trkpt lat="44.97523" lon="0.22442">
        <ele>90</ele>
        <time>2014-11-03T15:01:55Z</time>
      </trkpt>
      <trkpt lat="44.97528" lon="0.22442">
        <ele>90</ele>
        <time>2014-11-03T15:02:00Z</time>
      </trkpt>
      <trkpt lat="44.97532" lon="0.22447">
        <ele>90</ele>
        <time>2014-11-03T15:02:06Z</time>
      </trkpt>
      <trkpt lat="44.97537" lon="0.22441">
        <ele>90</ele>
        <time>2014-11-03T15:02:10Z</time>
      </trkpt>
      <trkpt lat="44.97541" lon="0.22446">
        <ele>90</ele>
        <time>2014-11-03T15:02:15Z</time>
      </trkpt>
      <trkpt lat="44.97546" lon="0.22457">
        <ele>90</ele>
        <time>2014-11-03T15:02:22Z</time>
      </trkpt>
      <trkpt lat="44.9755" lon="0.22457">
        <ele>90</ele>
        <time>2014-11-03T15:02:25Z</time>
      </trkpt>
      <trkpt lat="44.97555" lon="0.22461">
        <ele>92</ele>
        <time>2014-11-03T15:02:30Z</time>
      </trkpt>
      <trkpt lat="44.97559" lon="0.22475">
        <ele>92</ele>
        <time>2014-11-03T15:02:35Z</time>
      </trkpt>
      <trkpt lat="44.97563" lon="0.22492">
        <ele>93</ele>
        <time>2014-11-03T15:02:42Z</time>
      </trkpt>
      <trkpt lat="44.97565" lon="0.22494">
        <ele>93</ele>
        <time>2014-11-03T15:02:45Z</time>
      </trkpt>
      <trkpt lat="44.9757" lon="0.22496">
        <ele>94</ele>
        <time>2014-11-03T15:02:50Z</time>
      </trkpt>
      <trkpt lat="44.97573" lon="0.22502">
        <ele>94</ele>
        <time>2014-11-03T15:02:56Z</time>
      </trkpt>
      <trkpt lat="44.97577" lon="0.22505">
        <ele>94</ele>
        <time>2014-11-03T15:03:00Z</time>
      </trkpt>
      <trkpt lat="44.97582" lon="0.22506">
        <ele>94</ele>
        <time>2014-11-03T15:03:05Z</time>
      </trkpt>
      <trkpt lat="44.97586" lon="0.22508">
        <ele>94</ele>
        <time>2014-11-03T15:03:10Z</time>
      </trkpt>
      <trkpt lat="44.97592" lon="0.22515">
        <ele>94</ele>
        <time>2014-11-03T15:03:15Z</time>
      </trkpt>
      <trkpt lat="44.97596" lon="0.22504">
        <ele>94</ele>
        <time>2014-11-03T15:03:20Z</time>
      </trkpt>
      <trkpt lat="44.97599" lon="0.22504">
        <ele>93</ele>
        <time>2014-11-03T15:03:25Z</time>
      </trkpt>
      <trkpt lat="44.97603" lon="0.22517">
        <ele>93</ele>
        <time>2014-11-03T15:03:30Z</time>
      </trkpt>
      <trkpt lat="44.97605" lon="0.22526">
        <ele>93</ele>
        <time>2014-11-03T15:03:35Z</time>
      </trkpt>
      <trkpt lat="44.97611" lon="0.22531">
        <ele>93</ele>
        <time>2014-11-03T15:03:41Z</time>
      </trkpt>
      <trkpt lat="44.97615" lon="0.22532">
        <ele>93</ele>
        <time>2014-11-03T15:03:45Z</time>
      </trkpt>
      <trkpt lat="44.97621" lon="0.22538">
        <ele>93</ele>
        <time>2014-11-03T15:03:50Z</time>
      </trkpt>
      <trkpt lat="44.97625" lon="0.22546">
        <ele>94</ele>
        <time>2014-11-03T15:03:55Z</time>
      </trkpt>
      <trkpt lat="44.9763" lon="0.22554">
        <ele>94</ele>
        <time>2014-11-03T15:04:00Z</time>
      </trkpt>
      <trkpt lat="44.97634" lon="0.22561">
        <ele>94</ele>
        <time>2014-11-03T15:04:06Z</time>
      </trkpt>
      <trkpt lat="44.97637" lon="0.22568">
        <ele>94</ele>
        <time>2014-11-03T15:04:10Z</time>
      </trkpt>
      <trkpt lat="44.97641" lon="0.22574">
        <ele>95</ele>
        <time>2014-11-03T15:04:15Z</time>
      </trkpt>
      <trkpt lat="44.97644" lon="0.22581">
        <ele>95</ele>
        <time>2014-11-03T15:04:20Z</time>
      </trkpt>
      <trkpt lat="44.97648" lon="0.22584">
        <ele>95</ele>
        <time>2014-11-03T15:04:25Z</time>
      </trkpt>
      <trkpt lat="44.97652" lon="0.22588">
        <ele>95</ele>
        <time>2014-11-03T15:04:30Z</time>
      </trkpt>
      <trkpt lat="44.97655" lon="0.226">
        <ele>95</ele>
        <time>2014-11-03T15:04:35Z</time>
      </trkpt>
      <trkpt lat="44.97657" lon="0.22608">
        <ele>95</ele>
        <time>2014-11-03T15:04:40Z</time>
      </trkpt>
      <trkpt lat="44.97661" lon="0.22613">
        <ele>95</ele>
        <time>2014-11-03T15:04:45Z</time>
      </trkpt>
      <trkpt lat="44.97664" lon="0.22621">
        <ele>95</ele>
        <time>2014-11-03T15:04:50Z</time>
      </trkpt>
      <trkpt lat="44.97666" lon="0.22626">
        <ele>97</ele>
        <time>2014-11-03T15:04:55Z</time>
      </trkpt>
      <trkpt lat="44.97668" lon="0.22631">
        <ele>97</ele>
        <time>2014-11-03T15:05:01Z</time>
      </trkpt>
      <trkpt lat="44.97669" lon="0.22641">
        <ele>97</ele>
        <time>2014-11-03T15:05:07Z</time>
      </trkpt>
      <trkpt lat="44.9767" lon="0.22644">
        <ele>97</ele>
        <time>2014-11-03T15:05:10Z</time>
      </trkpt>
      <trkpt lat="44.97671" lon="0.22651">
        <ele>97</ele>
        <time>2014-11-03T15:05:15Z</time>
      </trkpt>
      <trkpt lat="44.97672" lon="0.22656">
        <ele>99</ele>
        <time>2014-11-03T15:05:22Z</time>
      </trkpt>
      <trkpt lat="44.9767" lon="0.22666">
        <ele>99</ele>
        <time>2014-11-03T15:05:25Z</time>
      </trkpt>
      <trkpt lat="44.97674" lon="0.22677">
        <ele>99</ele>
        <time>2014-11-03T15:05:30Z</time>
      </trkpt>
      <trkpt lat="44.97675" lon="0.22686">
        <ele>99</ele>
        <time>2014-11-03T15:05:36Z</time>
      </trkpt>
      <trkpt lat="44.97677" lon="0.22697">
        <ele>99</ele>
        <time>2014-11-03T15:05:41Z</time>
      </trkpt>
      <trkpt lat="44.97677" lon="0.22699">
        <ele>99</ele>
        <time>2014-11-03T15:05:45Z</time>
      </trkpt>
      <trkpt lat="44.97677" lon="0.22704">
        <ele>99</ele>
        <time>2014-11-03T15:05:50Z</time>
      </trkpt>
      <trkpt lat="44.97677" lon="0.22716">
        <ele>99</ele>
        <time>2014-11-03T15:05:55Z</time>
      </trkpt>
      <trkpt lat="44.97679" lon="0.22724">
        <ele>99</ele>
        <time>2014-11-03T15:06:00Z</time>
      </trkpt>
      <trkpt lat="44.97681" lon="0.22734">
        <ele>99</ele>
        <time>2014-11-03T15:06:05Z</time>
      </trkpt>
      <trkpt lat="44.97683" lon="0.22748">
        <ele>100</ele>
        <time>2014-11-03T15:06:11Z</time>
      </trkpt>
      <trkpt lat="44.97684" lon="0.22753">
        <ele>100</ele>
        <time>2014-11-03T15:06:15Z</time>
      </trkpt>
      <trkpt lat="44.97686" lon="0.22761">
        <ele>100</ele>
        <time>2014-11-03T15:06:20Z</time>
      </trkpt>
      <trkpt lat="44.97686" lon="0.22767">
        <ele>100</ele>
        <time>2014-11-03T15:06:25Z</time>
      </trkpt>
      <trkpt lat="44.97688" lon="0.22774">
        <ele>100</ele>
        <time>2014-11-03T15:06:30Z</time>
      </trkpt>
      <trkpt lat="44.97689" lon="0.22778">
        <ele>100</ele>
        <time>2014-11-03T15:06:35Z</time>
      </trkpt>
      <trkpt lat="44.97691" lon="0.2278">
        <ele>100</ele>
        <time>2014-11-03T15:06:40Z</time>
      </trkpt>
      <trkpt lat="44.97692" lon="0.22785">
        <ele>100</ele>
        <time>2014-11-03T15:06:45Z</time>
      </trkpt>
      <trkpt lat="44.97693" lon="0.22794">
        <ele>101</ele>
        <time>2014-11-03T15:06:51Z</time>
      </trkpt>
      <trkpt lat="44.97695" lon="0.22806">
        <ele>101</ele>
        <time>2014-11-03T15:06:57Z</time>
      </trkpt>
      <trkpt lat="44.97695" lon="0.22811">
        <ele>101</ele>
        <time>2014-11-03T15:07:00Z</time>
      </trkpt>
      <trkpt lat="44.97696" lon="0.22819">
        <ele>101</ele>
        <time>2014-11-03T15:07:05Z</time>
      </trkpt>
      <trkpt lat="44.97699" lon="0.22824">
        <ele>101</ele>
        <time>2014-11-03T15:07:10Z</time>
      </trkpt>
      <trkpt lat="44.97701" lon="0.22831">
        <ele>101</ele>
        <time>2014-11-03T15:07:15Z</time>
      </trkpt>
      <trkpt lat="44.97704" lon="0.22836">
        <ele>101</ele>
        <time>2014-11-03T15:07:20Z</time>
      </trkpt>
      <trkpt lat="44.97705" lon="0.22844">
        <ele>101</ele>
        <time>2014-11-03T15:07:25Z</time>
      </trkpt>
      <trkpt lat="44.97708" lon="0.22851">
        <ele>101</ele>
        <time>2014-11-03T15:07:30Z</time>
      </trkpt>
      <trkpt lat="44.97708" lon="0.2286">
        <ele>100</ele>
        <time>2014-11-03T15:07:35Z</time>
      </trkpt>
      <trkpt lat="44.97709" lon="0.22869">
        <ele>100</ele>
        <time>2014-11-03T15:07:42Z</time>
      </trkpt>
      <trkpt lat="44.97711" lon="0.2288">
        <ele>100</ele>
        <time>2014-11-03T15:07:46Z</time>
      </trkpt>
      <trkpt lat="44.97714" lon="0.22886">
        <ele>100</ele>
        <time>2014-11-03T15:07:50Z</time>
      </trkpt>
      <trkpt lat="44.97716" lon="0.2289">
        <ele>100</ele>
        <time>2014-11-03T15:07:55Z</time>
      </trkpt>
      <trkpt lat="44.9772" lon="0.22899">
        <ele>100</ele>
        <time>2014-11-03T15:08:01Z</time>
      </trkpt>
      <trkpt lat="44.97724" lon="0.22904">
        <ele>101</ele>
        <time>2014-11-03T15:08:05Z</time>
      </trkpt>
      <trkpt lat="44.97728" lon="0.22908">
        <ele>101</ele>
        <time>2014-11-03T15:08:11Z</time>
      </trkpt>
      <trkpt lat="44.97729" lon="0.22911">
        <ele>101</ele>
        <time>2014-11-03T15:08:15Z</time>
      </trkpt>
      <trkpt lat="44.97729" lon="0.22922">
        <ele>101</ele>
        <time>2014-11-03T15:08:20Z</time>
      </trkpt>
      <trkpt lat="44.97731" lon="0.22928">
        <ele>101</ele>
        <time>2014-11-03T15:08:25Z</time>
      </trkpt>
      <trkpt lat="44.97733" lon="0.22939">
        <ele>104</ele>
        <time>2014-11-03T15:08:31Z</time>
      </trkpt>
      <trkpt lat="44.97735" lon="0.22943">
        <ele>104</ele>
        <time>2014-11-03T15:08:35Z</time>
      </trkpt>
      <trkpt lat="44.97737" lon="0.2295">
        <ele>104</ele>
        <time>2014-11-03T15:08:40Z</time>
      </trkpt>
      <trkpt lat="44.97739" lon="0.22959">
        <ele>105</ele>
        <time>2014-11-03T15:08:45Z</time>
      </trkpt>
      <trkpt lat="44.9774" lon="0.22965">
        <ele>105</ele>
        <time>2014-11-03T15:08:50Z</time>
      </trkpt>
      <trkpt lat="44.97741" lon="0.22973">
        <ele>105</ele>
        <time>2014-11-03T15:08:56Z</time>
      </trkpt>
      <trkpt lat="44.97741" lon="0.22979">
        <ele>105</ele>
        <time>2014-11-03T15:09:00Z</time>
      </trkpt>
      <trkpt lat="44.97745" lon="0.22981">
        <ele>105</ele>
        <time>2014-11-03T15:09:05Z</time>
      </trkpt>
      <trkpt lat="44.97748" lon="0.22988">
        <ele>106</ele>
        <time>2014-11-03T15:09:12Z</time>
      </trkpt>
      <trkpt lat="44.97749" lon="0.22993">
        <ele>106</ele>
        <time>2014-11-03T15:09:15Z</time>
      </trkpt>
      <trkpt lat="44.9775" lon="0.22998">
        <ele>106</ele>
        <time>2014-11-03T15:09:20Z</time>
      </trkpt>
      <trkpt lat="44.97753" lon="0.23002">
        <ele>106</ele>
        <time>2014-11-03T15:09:25Z</time>
      </trkpt>
      <trkpt lat="44.97757" lon="0.2301">
        <ele>106</ele>
        <time>2014-11-03T15:09:31Z</time>
      </trkpt>
      <trkpt lat="44.97759" lon="0.23015">
        <ele>106</ele>
        <time>2014-11-03T15:09:35Z</time>
      </trkpt>
      <trkpt lat="44.97763" lon="0.23022">
        <ele>106</ele>
        <time>2014-11-03T15:09:41Z</time>
      </trkpt>
      <trkpt lat="44.97765" lon="0.23028">
        <ele>105</ele>
        <time>2014-11-03T15:09:46Z</time>
      </trkpt>
      <trkpt lat="44.97767" lon="0.23035">
        <ele>105</ele>
        <time>2014-11-03T15:09:51Z</time>
      </trkpt>
      <trkpt lat="44.97768" lon="0.23043">
        <ele>106</ele>
        <time>2014-11-03T15:09:55Z</time>
      </trkpt>
      <trkpt lat="44.97773" lon="0.23049">
        <ele>106</ele>
        <time>2014-11-03T15:10:00Z</time>
      </trkpt>
      <trkpt lat="44.97774" lon="0.23056">
        <ele>106</ele>
        <time>2014-11-03T15:10:05Z</time>
      </trkpt>
      <trkpt lat="44.97777" lon="0.23063">
        <ele>106</ele>
        <time>2014-11-03T15:10:10Z</time>
      </trkpt>
      <trkpt lat="44.9778" lon="0.23073">
        <ele>107</ele>
        <time>2014-11-03T15:10:15Z</time>
      </trkpt>
      <trkpt lat="44.9778" lon="0.23084">
        <ele>107</ele>
        <time>2014-11-03T15:10:20Z</time>
      </trkpt>
      <trkpt lat="44.97784" lon="0.23092">
        <ele>107</ele>
        <time>2014-11-03T15:10:25Z</time>
      </trkpt>
      <trkpt lat="44.97788" lon="0.23096">
        <ele>107</ele>
        <time>2014-11-03T15:10:30Z</time>
      </trkpt>
      <trkpt lat="44.97789" lon="0.23103">
        <ele>107</ele>
        <time>2014-11-03T15:10:35Z</time>
      </trkpt>
      <trkpt lat="44.97791" lon="0.23109">
        <ele>107</ele>
        <time>2014-11-03T15:10:40Z</time>
      </trkpt>
      <trkpt lat="44.97793" lon="0.23118">
        <ele>107</ele>
        <time>2014-11-03T15:10:45Z</time>
      </trkpt>
      <trkpt lat="44.97794" lon="0.23124">
        <ele>107</ele>
        <time>2014-11-03T15:10:50Z</time>
      </trkpt>
      <trkpt lat="44.97795" lon="0.23134">
        <ele>107</ele>
        <time>2014-11-03T15:10:56Z</time>
      </trkpt>
      <trkpt lat="44.97797" lon="0.23141">
        <ele>107</ele>
        <time>2014-11-03T15:11:00Z</time>
      </trkpt>
      <trkpt lat="44.978" lon="0.23145">
        <ele>107</ele>
        <time>2014-11-03T15:11:05Z</time>
      </trkpt>
      <trkpt lat="44.97804" lon="0.2315">
        <ele>107</ele>
        <time>2014-11-03T15:11:11Z</time>
      </trkpt>
      <trkpt lat="44.97806" lon="0.23152">
        <ele>107</ele>
        <time>2014-11-03T15:11:15Z</time>
      </trkpt>
      <trkpt lat="44.97809" lon="0.23159">
        <ele>108</ele>
        <time>2014-11-03T15:11:20Z</time>
      </trkpt>
      <trkpt lat="44.97811" lon="0.23164">
        <ele>108</ele>
        <time>2014-11-03T15:11:25Z</time>
      </trkpt>
      <trkpt lat="44.97815" lon="0.23172">
        <ele>108</ele>
        <time>2014-11-03T15:11:30Z</time>
      </trkpt>
      <trkpt lat="44.97817" lon="0.23181">
        <ele>108</ele>
        <time>2014-11-03T15:11:35Z</time>
      </trkpt>
      <trkpt lat="44.97818" lon="0.23192">
        <ele>108</ele>
        <time>2014-11-03T15:11:42Z</time>
      </trkpt>
      <trkpt lat="44.97819" lon="0.23195">
        <ele>108</ele>
        <time>2014-11-03T15:11:45Z</time>
      </trkpt>
      <trkpt lat="44.97822" lon="0.23198">
        <ele>106</ele>
        <time>2014-11-03T15:11:50Z</time>
      </trkpt>
      <trkpt lat="44.97824" lon="0.23207">
        <ele>106</ele>
        <time>2014-11-03T15:11:55Z</time>
      </trkpt>
      <trkpt lat="44.97824" lon="0.23218">
        <ele>107</ele>
        <time>2014-11-03T15:12:00Z</time>
      </trkpt>
      <trkpt lat="44.97824" lon="0.23227">
        <ele>107</ele>
        <time>2014-11-03T15:12:06Z</time>
      </trkpt>
      <trkpt lat="44.97824" lon="0.23238">
        <ele>108</ele>
        <time>2014-11-03T15:12:11Z</time>
      </trkpt>
      <trkpt lat="44.97824" lon="0.23246">
        <ele>108</ele>
        <time>2014-11-03T15:12:15Z</time>
      </trkpt>
      <trkpt lat="44.97822" lon="0.23255">
        <ele>108</ele>
        <time>2014-11-03T15:12:20Z</time>
      </trkpt>
      <trkpt lat="44.97816" lon="0.23261">
        <ele>108</ele>
        <time>2014-11-03T15:12:26Z</time>
      </trkpt>
      <trkpt lat="44.9781" lon="0.23261">
        <ele>108</ele>
        <time>2014-11-03T15:12:30Z</time>
      </trkpt>
      <trkpt lat="44.97806" lon="0.23262">
        <ele>108</ele>
        <time>2014-11-03T15:12:35Z</time>
      </trkpt>
      <trkpt lat="44.97801" lon="0.23258">
        <ele>108</ele>
        <time>2014-11-03T15:12:40Z</time>
      </trkpt>
      <trkpt lat="44.97796" lon="0.2326">
        <ele>108</ele>
        <time>2014-11-03T15:12:45Z</time>
      </trkpt>
      <trkpt lat="44.97788" lon="0.23261">
        <ele>109</ele>
        <time>2014-11-03T15:12:50Z</time>
      </trkpt>
      <trkpt lat="44.97782" lon="0.23259">
        <ele>109</ele>
        <time>2014-11-03T15:12:56Z</time>
      </trkpt>
      <trkpt lat="44.97776" lon="0.23255">
        <ele>109</ele>
        <time>2014-11-03T15:13:01Z</time>
      </trkpt>
      <trkpt lat="44.97771" lon="0.23256">
        <ele>109</ele>
        <time>2014-11-03T15:13:06Z</time>
      </trkpt>
      <trkpt lat="44.97767" lon="0.23257">
        <ele>109</ele>
        <time>2014-11-03T15:13:11Z</time>
      </trkpt>
      <trkpt lat="44.97765" lon="0.23259">
        <ele>109</ele>
        <time>2014-11-03T15:13:16Z</time>
      </trkpt>
      <trkpt lat="44.97761" lon="0.23264">
        <ele>109</ele>
        <time>2014-11-03T15:13:21Z</time>
      </trkpt>
      <trkpt lat="44.97763" lon="0.23266">
        <ele>109</ele>
        <time>2014-11-03T15:13:25Z</time>
      </trkpt>
      <trkpt lat="44.97764" lon="0.23269">
        <ele>109</ele>
        <time>2014-11-03T15:13:31Z</time>
      </trkpt>
      <trkpt lat="44.97763" lon="0.23271">
        <ele>109</ele>
        <time>2014-11-03T15:13:35Z</time>
      </trkpt>
      <trkpt lat="44.97762" lon="0.23275">
        <ele>109</ele>
        <time>2014-11-03T15:13:41Z</time>
      </trkpt>
      <trkpt lat="44.97758" lon="0.23275">
        <ele>109</ele>
        <time>2014-11-03T15:13:45Z</time>
      </trkpt>
      <trkpt lat="44.97754" lon="0.23281">
        <ele>109</ele>
        <time>2014-11-03T15:13:50Z</time>
      </trkpt>
      <trkpt lat="44.97755" lon="0.23286">
        <ele>109</ele>
        <time>2014-11-03T15:13:55Z</time>
      </trkpt>
      <trkpt lat="44.97755" lon="0.23287">
        <ele>109</ele>
        <time>2014-11-03T15:14:00Z</time>
      </trkpt>
      <trkpt lat="44.97762" lon="0.23292">
        <ele>108</ele>
        <time>2014-11-03T15:14:07Z</time>
      </trkpt>
      <trkpt lat="44.97763" lon="0.23291">
        <ele>109</ele>
        <time>2014-11-03T15:14:10Z</time>
      </trkpt>
      <trkpt lat="44.97759" lon="0.23275">
        <ele>109</ele>
        <time>2014-11-03T15:14:15Z</time>
      </trkpt>
      <trkpt lat="44.97754" lon="0.23273">
        <ele>109</ele>
        <time>2014-11-03T15:14:20Z</time>
      </trkpt>
      <trkpt lat="44.97752" lon="0.23275">
        <ele>109</ele>
        <time>2014-11-03T15:14:25Z</time>
      </trkpt>
      <trkpt lat="44.97756" lon="0.23276">
        <ele>109</ele>
        <time>2014-11-03T15:14:30Z</time>
      </trkpt>
      <trkpt lat="44.97755" lon="0.23275">
        <ele>109</ele>
        <time>2014-11-03T15:14:35Z</time>
      </trkpt>
      <trkpt lat="44.97756" lon="0.23275">
        <ele>109</ele>
        <time>2014-11-03T15:14:40Z</time>
      </trkpt>
      <trkpt lat="44.97756" lon="0.23275">
        <ele>109</ele>
        <time>2014-11-03T15:14:46Z</time>
      </trkpt>
      <trkpt lat="44.97756" lon="0.23275">
        <ele>109</ele>
        <time>2014-11-03T15:14:50Z</time>
      </trkpt>
      <trkpt lat="44.97756" lon="0.23275">
        <ele>109</ele>
        <time>2014-11-03T15:14:55Z</time>
      </trkpt>
      <trkpt lat="44.97756" lon="0.23275">
        <ele>109</ele>
        <time>2014-11-03T15:15:00Z</time>
      </trkpt>
      <trkpt lat="44.97754" lon="0.23276">
        <ele>109</ele>
        <time>2014-11-03T15:15:05Z</time>
      </trkpt>
      <trkpt lat="44.97753" lon="0.23278">
        <ele>109</ele>
        <time>2014-11-03T15:15:10Z</time>
      </trkpt>
      <trkpt lat="44.97753" lon="0.23278">
        <ele>109</ele>
        <time>2014-11-03T15:15:15Z</time>
      </trkpt>
      <trkpt lat="44.97753" lon="0.23278">
        <ele>109</ele>
        <time>2014-11-03T15:15:20Z</time>
      </trkpt>
      <trkpt lat="44.97753" lon="0.23279">
        <ele>109</ele>
        <time>2014-11-03T15:15:25Z</time>
      </trkpt>
      <trkpt lat="44.97753" lon="0.23279">
        <ele>109</ele>
        <time>2014-11-03T15:15:31Z</time>
      </trkpt>
      <trkpt lat="44.97753" lon="0.23279">
        <ele>109</ele>
        <time>2014-11-03T15:15:35Z</time>
      </trkpt>
      <trkpt lat="44.97753" lon="0.23279">
        <ele>109</ele>
        <time>2014-11-03T15:15:40Z</time>
      </trkpt>
      <trkpt lat="44.97753" lon="0.23279">
        <ele>109</ele>
        <time>2014-11-03T15:15:46Z</time>
      </trkpt>
      <trkpt lat="44.97753" lon="0.23279">
        <ele>109</ele>
        <time>2014-11-03T15:15:50Z</time>
      </trkpt>
      <trkpt lat="44.97753" lon="0.23279">
        <ele>109</ele>
        <time>2014-11-03T15:15:55Z</time>
      </trkpt>
      <trkpt lat="44.97753" lon="0.23279">
        <ele>109</ele>
        <time>2014-11-03T15:16:00Z</time>
      </trkpt>
      <trkpt lat="44.97753" lon="0.23279">
        <ele>109</ele>
        <time>2014-11-03T15:16:05Z</time>
      </trkpt>
      <trkpt lat="44.97753" lon="0.23279">
        <ele>109</ele>
        <time>2014-11-03T15:16:11Z</time>
      </trkpt>
      <trkpt lat="44.97753" lon="0.23278">
        <ele>109</ele>
        <time>2014-11-03T15:16:16Z</time>
      </trkpt>
      <trkpt lat="44.97753" lon="0.23278">
        <ele>109</ele>
        <time>2014-11-03T15:16:20Z</time>
      </trkpt>
      <trkpt lat="44.97753" lon="0.23278">
        <ele>109</ele>
        <time>2014-11-03T15:16:25Z</time>
      </trkpt>
      <trkpt lat="44.97753" lon="0.23278">
        <ele>109</ele>
        <time>2014-11-03T15:16:30Z</time>
      </trkpt>
      <trkpt lat="44.97753" lon="0.23278">
        <ele>109</ele>
        <time>2014-11-03T15:16:35Z</time>
      </trkpt>
      <trkpt lat="44.97753" lon="0.23278">
        <ele>109</ele>
        <time>2014-11-03T15:16:41Z</time>
      </trkpt>
      <trkpt lat="44.97753" lon="0.23278">
        <ele>109</ele>
        <time>2014-11-03T15:16:45Z</time>
      </trkpt>
      <trkpt lat="44.97754" lon="0.23278">
        <ele>109</ele>
        <time>2014-11-03T15:16:50Z</time>
      </trkpt>
      <trkpt lat="44.97754" lon="0.23278">
        <ele>109</ele>
        <time>2014-11-03T15:16:55Z</time>
      </trkpt>
      <trkpt lat="44.97754" lon="0.23278">
        <ele>109</ele>
        <time>2014-11-03T15:17:01Z</time>
      </trkpt>
      <trkpt lat="44.97754" lon="0.23278">
        <ele>109</ele>
        <time>2014-11-03T15:17:05Z</time>
      </trkpt>
      <trkpt lat="44.97754" lon="0.23278">
        <ele>109</ele>
        <time>2014-11-03T15:17:10Z</time>
      </trkpt>
      <trkpt lat="44.97754" lon="0.23278">
        <ele>109</ele>
        <time>2014-11-03T15:17:17Z</time>
      </trkpt>
      <trkpt lat="44.97754" lon="0.23278">
        <ele>109</ele>
        <time>2014-11-03T15:17:20Z</time>
      </trkpt>
      <trkpt lat="44.97754" lon="0.23278">
        <ele>109</ele>
        <time>2014-11-03T15:17:25Z</time>
      </trkpt>
      <trkpt lat="44.97753" lon="0.23278">
        <ele>109</ele>
        <time>2014-11-03T15:17:30Z</time>
      </trkpt>
      <trkpt lat="44.97751" lon="0.23277">
        <ele>109</ele>
        <time>2014-11-03T15:17:35Z</time>
      </trkpt>
      <trkpt lat="44.97745" lon="0.23276">
        <ele>109</ele>
        <time>2014-11-03T15:17:40Z</time>
      </trkpt>
      <trkpt lat="44.97738" lon="0.23274">
        <ele>109</ele>
        <time>2014-11-03T15:17:45Z</time>
      </trkpt>
      <trkpt lat="44.97731" lon="0.23274">
        <ele>110</ele>
        <time>2014-11-03T15:17:50Z</time>
      </trkpt>
      <trkpt lat="44.97725" lon="0.23273">
        <ele>110</ele>
        <time>2014-11-03T15:17:55Z</time>
      </trkpt>
      <trkpt lat="44.97707" lon="0.23266">
        <ele>111</ele>
        <time>2014-11-03T15:18:00Z</time>
      </trkpt>
      <trkpt lat="44.977" lon="0.23264">
        <ele>111</ele>
        <time>2014-11-03T15:18:05Z</time>
      </trkpt>
      <trkpt lat="44.97694" lon="0.23259">
        <ele>111</ele>
        <time>2014-11-03T15:18:10Z</time>
      </trkpt>
      <trkpt lat="44.97685" lon="0.23262">
        <ele>111</ele>
        <time>2014-11-03T15:18:15Z</time>
      </trkpt>
      <trkpt lat="44.97681" lon="0.23263">
        <ele>111</ele>
        <time>2014-11-03T15:18:20Z</time>
      </trkpt>
      <trkpt lat="44.97674" lon="0.23261">
        <ele>112</ele>
        <time>2014-11-03T15:18:25Z</time>
      </trkpt>
      <trkpt lat="44.9767" lon="0.23256">
        <ele>112</ele>
        <time>2014-11-03T15:18:30Z</time>
      </trkpt>
      <trkpt lat="44.97665" lon="0.23257">
        <ele>112</ele>
        <time>2014-11-03T15:18:36Z</time>
      </trkpt>
      <trkpt lat="44.9766" lon="0.23261">
        <ele>112</ele>
        <time>2014-11-03T15:18:40Z</time>
      </trkpt>
      <trkpt lat="44.97654" lon="0.23261">
        <ele>112</ele>
        <time>2014-11-03T15:18:45Z</time>
      </trkpt>
      <trkpt lat="44.97649" lon="0.23258">
        <ele>111</ele>
        <time>2014-11-03T15:18:50Z</time>
      </trkpt>
      <trkpt lat="44.97647" lon="0.23261">
        <ele>111</ele>
        <time>2014-11-03T15:18:55Z</time>
      </trkpt>
      <trkpt lat="44.97641" lon="0.23261">
        <ele>111</ele>
        <time>2014-11-03T15:19:00Z</time>
      </trkpt>
      <trkpt lat="44.97634" lon="0.23262">
        <ele>111</ele>
        <time>2014-11-03T15:19:05Z</time>
      </trkpt>
      <trkpt lat="44.97629" lon="0.23262">
        <ele>111</ele>
        <time>2014-11-03T15:19:10Z</time>
      </trkpt>
      <trkpt lat="44.97624" lon="0.23262">
        <ele>112</ele>
        <time>2014-11-03T15:19:15Z</time>
      </trkpt>
      <trkpt lat="44.97621" lon="0.23262">
        <ele>112</ele>
        <time>2014-11-03T15:19:20Z</time>
      </trkpt>
      <trkpt lat="44.97617" lon="0.23261">
        <ele>112</ele>
        <time>2014-11-03T15:19:25Z</time>
      </trkpt>
      <trkpt lat="44.97611" lon="0.23262">
        <ele>112</ele>
        <time>2014-11-03T15:19:30Z</time>
      </trkpt>
      <trkpt lat="44.97605" lon="0.23263">
        <ele>112</ele>
        <time>2014-11-03T15:19:35Z</time>
      </trkpt>
      <trkpt lat="44.97594" lon="0.23257">
        <ele>112</ele>
        <time>2014-11-03T15:19:40Z</time>
      </trkpt>
      <trkpt lat="44.97588" lon="0.2326">
        <ele>112</ele>
        <time>2014-11-03T15:19:45Z</time>
      </trkpt>
      <trkpt lat="44.9758" lon="0.23264">
        <ele>111</ele>
        <time>2014-11-03T15:19:51Z</time>
      </trkpt>
      <trkpt lat="44.97575" lon="0.23262">
        <ele>112</ele>
        <time>2014-11-03T15:19:57Z</time>
      </trkpt>
      <trkpt lat="44.97571" lon="0.2326">
        <ele>112</ele>
        <time>2014-11-03T15:20:00Z</time>
      </trkpt>
      <trkpt lat="44.97566" lon="0.23266">
        <ele>109</ele>
        <time>2014-11-03T15:20:05Z</time>
      </trkpt>
      <trkpt lat="44.97563" lon="0.23271">
        <ele>109</ele>
        <time>2014-11-03T15:20:10Z</time>
      </trkpt>
      <trkpt lat="44.97557" lon="0.23273">
        <ele>109</ele>
        <time>2014-11-03T15:20:15Z</time>
      </trkpt>
      <trkpt lat="44.9755" lon="0.23272">
        <ele>109</ele>
        <time>2014-11-03T15:20:21Z</time>
      </trkpt>
      <trkpt lat="44.97544" lon="0.23272">
        <ele>109</ele>
        <time>2014-11-03T15:20:26Z</time>
      </trkpt>
      <trkpt lat="44.9754" lon="0.23274">
        <ele>108</ele>
        <time>2014-11-03T15:20:30Z</time>
      </trkpt>
      <trkpt lat="44.97536" lon="0.23278">
        <ele>108</ele>
        <time>2014-11-03T15:20:35Z</time>
      </trkpt>
      <trkpt lat="44.97531" lon="0.23282">
        <ele>108</ele>
        <time>2014-11-03T15:20:41Z</time>
      </trkpt>
      <trkpt lat="44.97527" lon="0.23286">
        <ele>108</ele>
        <time>2014-11-03T15:20:45Z</time>
      </trkpt>
      <trkpt lat="44.9752" lon="0.23284">
        <ele>108</ele>
        <time>2014-11-03T15:20:50Z</time>
      </trkpt>
      <trkpt lat="44.97515" lon="0.23286">
        <ele>108</ele>
        <time>2014-11-03T15:20:55Z</time>
      </trkpt>
      <trkpt lat="44.97512" lon="0.23289">
        <ele>107</ele>
        <time>2014-11-03T15:21:00Z</time>
      </trkpt>
      <trkpt lat="44.97506" lon="0.23288">
        <ele>107</ele>
        <time>2014-11-03T15:21:05Z</time>
      </trkpt>
      <trkpt lat="44.97501" lon="0.23289">
        <ele>107</ele>
        <time>2014-11-03T15:21:10Z</time>
      </trkpt>
      <trkpt lat="44.97493" lon="0.23289">
        <ele>107</ele>
        <time>2014-11-03T15:21:15Z</time>
      </trkpt>
      <trkpt lat="44.97488" lon="0.23288">
        <ele>107</ele>
        <time>2014-11-03T15:21:20Z</time>
      </trkpt>
      <trkpt lat="44.97482" lon="0.23291">
        <ele>108</ele>
        <time>2014-11-03T15:21:25Z</time>
      </trkpt>
      <trkpt lat="44.97478" lon="0.23293">
        <ele>108</ele>
        <time>2014-11-03T15:21:30Z</time>
      </trkpt>
      <trkpt lat="44.97471" lon="0.23294">
        <ele>108</ele>
        <time>2014-11-03T15:21:35Z</time>
      </trkpt>
      <trkpt lat="44.97465" lon="0.23298">
        <ele>108</ele>
        <time>2014-11-03T15:21:41Z</time>
      </trkpt>
      <trkpt lat="44.97459" lon="0.23299">
        <ele>108</ele>
        <time>2014-11-03T15:21:45Z</time>
      </trkpt>
      <trkpt lat="44.97454" lon="0.23302">
        <ele>107</ele>
        <time>2014-11-03T15:21:50Z</time>
      </trkpt>
      <trkpt lat="44.97449" lon="0.233">
        <ele>107</ele>
        <time>2014-11-03T15:21:55Z</time>
      </trkpt>
      <trkpt lat="44.97444" lon="0.23303">
        <ele>107</ele>
        <time>2014-11-03T15:22:00Z</time>
      </trkpt>
      <trkpt lat="44.97439" lon="0.23304">
        <ele>107</ele>
        <time>2014-11-03T15:22:05Z</time>
      </trkpt>
      <trkpt lat="44.97434" lon="0.23304">
        <ele>107</ele>
        <time>2014-11-03T15:22:10Z</time>
      </trkpt>
      <trkpt lat="44.97431" lon="0.23308">
        <ele>107</ele>
        <time>2014-11-03T15:22:15Z</time>
      </trkpt>
      <trkpt lat="44.97424" lon="0.23307">
        <ele>105</ele>
        <time>2014-11-03T15:22:20Z</time>
      </trkpt>
      <trkpt lat="44.97418" lon="0.23312">
        <ele>105</ele>
        <time>2014-11-03T15:22:25Z</time>
      </trkpt>
      <trkpt lat="44.97414" lon="0.23313">
        <ele>105</ele>
        <time>2014-11-03T15:22:31Z</time>
      </trkpt>
      <trkpt lat="44.97408" lon="0.23314">
        <ele>105</ele>
        <time>2014-11-03T15:22:35Z</time>
      </trkpt>
      <trkpt lat="44.974" lon="0.23311">
        <ele>104</ele>
        <time>2014-11-03T15:22:40Z</time>
      </trkpt>
      <trkpt lat="44.97397" lon="0.2331">
        <ele>104</ele>
        <time>2014-11-03T15:22:45Z</time>
      </trkpt>
      <trkpt lat="44.97388" lon="0.2331">
        <ele>104</ele>
        <time>2014-11-03T15:22:50Z</time>
      </trkpt>
      <trkpt lat="44.97383" lon="0.23311">
        <ele>104</ele>
        <time>2014-11-03T15:22:55Z</time>
      </trkpt>
      <trkpt lat="44.97377" lon="0.23314">
        <ele>104</ele>
        <time>2014-11-03T15:23:00Z</time>
      </trkpt>
      <trkpt lat="44.97371" lon="0.23316">
        <ele>104</ele>
        <time>2014-11-03T15:23:06Z</time>
      </trkpt>
      <trkpt lat="44.97368" lon="0.23319">
        <ele>104</ele>
        <time>2014-11-03T15:23:10Z</time>
      </trkpt>
      <trkpt lat="44.97365" lon="0.23322">
        <ele>103</ele>
        <time>2014-11-03T15:23:16Z</time>
      </trkpt>
      <trkpt lat="44.9736" lon="0.23327">
        <ele>103</ele>
        <time>2014-11-03T15:23:20Z</time>
      </trkpt>
      <trkpt lat="44.97354" lon="0.23327">
        <ele>103</ele>
        <time>2014-11-03T15:23:25Z</time>
      </trkpt>
      <trkpt lat="44.97348" lon="0.23326">
        <ele>103</ele>
        <time>2014-11-03T15:23:31Z</time>
      </trkpt>
      <trkpt lat="44.97342" lon="0.23326">
        <ele>103</ele>
        <time>2014-11-03T15:23:35Z</time>
      </trkpt>
      <trkpt lat="44.97337" lon="0.23326">
        <ele>103</ele>
        <time>2014-11-03T15:23:40Z</time>
      </trkpt>
      <trkpt lat="44.97332" lon="0.23331">
        <ele>103</ele>
        <time>2014-11-03T15:23:45Z</time>
      </trkpt>
      <trkpt lat="44.97328" lon="0.23336">
        <ele>103</ele>
        <time>2014-11-03T15:23:51Z</time>
      </trkpt>
      <trkpt lat="44.97323" lon="0.2334">
        <ele>103</ele>
        <time>2014-11-03T15:23:55Z</time>
      </trkpt>
      <trkpt lat="44.97318" lon="0.23347">
        <ele>104</ele>
        <time>2014-11-03T15:24:00Z</time>
      </trkpt>
      <trkpt lat="44.97313" lon="0.23352">
        <ele>104</ele>
        <time>2014-11-03T15:24:05Z</time>
      </trkpt>
      <trkpt lat="44.97308" lon="0.23358">
        <ele>104</ele>
        <time>2014-11-03T15:24:10Z</time>
      </trkpt>
      <trkpt lat="44.97302" lon="0.23363">
        <ele>104</ele>
        <time>2014-11-03T15:24:15Z</time>
      </trkpt>
      <trkpt lat="44.97298" lon="0.23367">
        <ele>104</ele>
        <time>2014-11-03T15:24:20Z</time>
      </trkpt>
      <trkpt lat="44.97297" lon="0.23372">
        <ele>104</ele>
        <time>2014-11-03T15:24:26Z</time>
      </trkpt>
      <trkpt lat="44.97293" lon="0.23378">
        <ele>104</ele>
        <time>2014-11-03T15:24:30Z</time>
      </trkpt>
      <trkpt lat="44.97289" lon="0.23387">
        <ele>105</ele>
        <time>2014-11-03T15:24:36Z</time>
      </trkpt>
      <trkpt lat="44.97288" lon="0.23396">
        <ele>105</ele>
        <time>2014-11-03T15:24:40Z</time>
      </trkpt>
      <trkpt lat="44.97287" lon="0.23404">
        <ele>105</ele>
        <time>2014-11-03T15:24:45Z</time>
      </trkpt>
      <trkpt lat="44.97286" lon="0.23411">
        <ele>105</ele>
        <time>2014-11-03T15:24:50Z</time>
      </trkpt>
      <trkpt lat="44.97287" lon="0.2342">
        <ele>105</ele>
        <time>2014-11-03T15:24:55Z</time>
      </trkpt>
      <trkpt lat="44.97284" lon="0.23432">
        <ele>106</ele>
        <time>2014-11-03T15:25:00Z</time>
      </trkpt>
      <trkpt lat="44.97284" lon="0.23438">
        <ele>106</ele>
        <time>2014-11-03T15:25:06Z</time>
      </trkpt>
      <trkpt lat="44.97282" lon="0.23446">
        <ele>106</ele>
        <time>2014-11-03T15:25:10Z</time>
      </trkpt>
      <trkpt lat="44.9728" lon="0.23451">
        <ele>106</ele>
        <time>2014-11-03T15:25:16Z</time>
      </trkpt>
      <trkpt lat="44.97281" lon="0.23457">
        <ele>106</ele>
        <time>2014-11-03T15:25:20Z</time>
      </trkpt>
      <trkpt lat="44.97281" lon="0.23464">
        <ele>106</ele>
        <time>2014-11-03T15:25:26Z</time>
      </trkpt>
      <trkpt lat="44.97283" lon="0.23474">
        <ele>106</ele>
        <time>2014-11-03T15:25:31Z</time>
      </trkpt>
      <trkpt lat="44.97284" lon="0.23482">
        <ele>106</ele>
        <time>2014-11-03T15:25:35Z</time>
      </trkpt>
      <trkpt lat="44.97284" lon="0.2349">
        <ele>106</ele>
        <time>2014-11-03T15:25:41Z</time>
      </trkpt>
      <trkpt lat="44.97283" lon="0.23496">
        <ele>106</ele>
        <time>2014-11-03T15:25:46Z</time>
      </trkpt>
      <trkpt lat="44.97283" lon="0.23511">
        <ele>106</ele>
        <time>2014-11-03T15:25:51Z</time>
      </trkpt>
      <trkpt lat="44.97283" lon="0.2352">
        <ele>105</ele>
        <time>2014-11-03T15:25:56Z</time>
      </trkpt>
      <trkpt lat="44.97285" lon="0.23528">
        <ele>105</ele>
        <time>2014-11-03T15:26:00Z</time>
      </trkpt>
      <trkpt lat="44.97286" lon="0.23534">
        <ele>105</ele>
        <time>2014-11-03T15:26:05Z</time>
      </trkpt>
      <trkpt lat="44.97287" lon="0.2354">
        <ele>105</ele>
        <time>2014-11-03T15:26:10Z</time>
      </trkpt>
      <trkpt lat="44.97287" lon="0.23549">
        <ele>104</ele>
        <time>2014-11-03T15:26:15Z</time>
      </trkpt>
      <trkpt lat="44.97287" lon="0.23554">
        <ele>104</ele>
        <time>2014-11-03T15:26:22Z</time>
      </trkpt>
      <trkpt lat="44.97288" lon="0.23563">
        <ele>104</ele>
        <time>2014-11-03T15:26:25Z</time>
      </trkpt>
      <trkpt lat="44.97289" lon="0.2357">
        <ele>103</ele>
        <time>2014-11-03T15:26:31Z</time>
      </trkpt>
      <trkpt lat="44.97288" lon="0.23575">
        <ele>103</ele>
        <time>2014-11-03T15:26:36Z</time>
      </trkpt>
      <trkpt lat="44.97285" lon="0.23584">
        <ele>103</ele>
        <time>2014-11-03T15:26:40Z</time>
      </trkpt>
      <trkpt lat="44.97285" lon="0.23586">
        <ele>103</ele>
        <time>2014-11-03T15:26:46Z</time>
      </trkpt>
      <trkpt lat="44.97285" lon="0.23587">
        <ele>103</ele>
        <time>2014-11-03T15:26:50Z</time>
      </trkpt>
      <trkpt lat="44.97284" lon="0.23594">
        <ele>103</ele>
        <time>2014-11-03T15:26:55Z</time>
      </trkpt>
      <trkpt lat="44.97285" lon="0.23604">
        <ele>103</ele>
        <time>2014-11-03T15:27:00Z</time>
      </trkpt>
      <trkpt lat="44.97284" lon="0.23614">
        <ele>103</ele>
        <time>2014-11-03T15:27:05Z</time>
      </trkpt>
      <trkpt lat="44.97282" lon="0.23625">
        <ele>105</ele>
        <time>2014-11-03T15:27:10Z</time>
      </trkpt>
      <trkpt lat="44.97281" lon="0.23636">
        <ele>105</ele>
        <time>2014-11-03T15:27:15Z</time>
      </trkpt>
      <trkpt lat="44.97279" lon="0.23648">
        <ele>105</ele>
        <time>2014-11-03T15:27:21Z</time>
      </trkpt>
      <trkpt lat="44.97277" lon="0.23661">
        <ele>106</ele>
        <time>2014-11-03T15:27:25Z</time>
      </trkpt>
      <trkpt lat="44.97277" lon="0.23665">
        <ele>106</ele>
        <time>2014-11-03T15:27:30Z</time>
      </trkpt>
      <trkpt lat="44.97279" lon="0.23671">
        <ele>106</ele>
        <time>2014-11-03T15:27:35Z</time>
      </trkpt>
      <trkpt lat="44.97279" lon="0.23675">
        <ele>106</ele>
        <time>2014-11-03T15:27:41Z</time>
      </trkpt>
      <trkpt lat="44.97276" lon="0.23681">
        <ele>108</ele>
        <time>2014-11-03T15:27:46Z</time>
      </trkpt>
      <trkpt lat="44.97271" lon="0.23688">
        <ele>108</ele>
        <time>2014-11-03T15:27:50Z</time>
      </trkpt>
      <trkpt lat="44.97269" lon="0.23696">
        <ele>108</ele>
        <time>2014-11-03T15:27:56Z</time>
      </trkpt>
      <trkpt lat="44.97267" lon="0.23701">
        <ele>108</ele>
        <time>2014-11-03T15:28:00Z</time>
      </trkpt>
      <trkpt lat="44.97264" lon="0.23707">
        <ele>108</ele>
        <time>2014-11-03T15:28:05Z</time>
      </trkpt>
      <trkpt lat="44.97264" lon="0.23717">
        <ele>108</ele>
        <time>2014-11-03T15:28:10Z</time>
      </trkpt>
      <trkpt lat="44.97263" lon="0.23724">
        <ele>109</ele>
        <time>2014-11-03T15:28:15Z</time>
      </trkpt>
      <trkpt lat="44.97265" lon="0.23729">
        <ele>108</ele>
        <time>2014-11-03T15:28:20Z</time>
      </trkpt>
      <trkpt lat="44.97262" lon="0.23736">
        <ele>109</ele>
        <time>2014-11-03T15:28:26Z</time>
      </trkpt>
      <trkpt lat="44.9726" lon="0.23743">
        <ele>111</ele>
        <time>2014-11-03T15:28:30Z</time>
      </trkpt>
      <trkpt lat="44.97258" lon="0.23749">
        <ele>111</ele>
        <time>2014-11-03T15:28:35Z</time>
      </trkpt>
      <trkpt lat="44.97255" lon="0.23753">
        <ele>111</ele>
        <time>2014-11-03T15:28:40Z</time>
      </trkpt>
      <trkpt lat="44.97255" lon="0.23761">
        <ele>111</ele>
        <time>2014-11-03T15:28:45Z</time>
      </trkpt>
      <trkpt lat="44.97254" lon="0.23768">
        <ele>112</ele>
        <time>2014-11-03T15:28:50Z</time>
      </trkpt>
      <trkpt lat="44.97253" lon="0.23778">
        <ele>112</ele>
        <time>2014-11-03T15:28:55Z</time>
      </trkpt>
      <trkpt lat="44.97249" lon="0.23785">
        <ele>112</ele>
        <time>2014-11-03T15:29:00Z</time>
      </trkpt>
      <trkpt lat="44.97247" lon="0.2379">
        <ele>112</ele>
        <time>2014-11-03T15:29:05Z</time>
      </trkpt>
      <trkpt lat="44.97244" lon="0.23794">
        <ele>112</ele>
        <time>2014-11-03T15:29:10Z</time>
      </trkpt>
      <trkpt lat="44.97243" lon="0.238">
        <ele>112</ele>
        <time>2014-11-03T15:29:15Z</time>
      </trkpt>
      <trkpt lat="44.97244" lon="0.23809">
        <ele>112</ele>
        <time>2014-11-03T15:29:20Z</time>
      </trkpt>
      <trkpt lat="44.97242" lon="0.23819">
        <ele>112</ele>
        <time>2014-11-03T15:29:25Z</time>
      </trkpt>
      <trkpt lat="44.97237" lon="0.23824">
        <ele>110</ele>
        <time>2014-11-03T15:29:30Z</time>
      </trkpt>
      <trkpt lat="44.9723" lon="0.23834">
        <ele>111</ele>
        <time>2014-11-03T15:29:35Z</time>
      </trkpt>
      <trkpt lat="44.97226" lon="0.2385">
        <ele>110</ele>
        <time>2014-11-03T15:29:40Z</time>
      </trkpt>
      <trkpt lat="44.97225" lon="0.23855">
        <ele>110</ele>
        <time>2014-11-03T15:29:45Z</time>
      </trkpt>
      <trkpt lat="44.97224" lon="0.23857">
        <ele>110</ele>
        <time>2014-11-03T15:29:50Z</time>
      </trkpt>
      <trkpt lat="44.97222" lon="0.23863">
        <ele>110</ele>
        <time>2014-11-03T15:29:55Z</time>
      </trkpt>
      <trkpt lat="44.9722" lon="0.2387">
        <ele>110</ele>
        <time>2014-11-03T15:30:00Z</time>
      </trkpt>
      <trkpt lat="44.97217" lon="0.23875">
        <ele>110</ele>
        <time>2014-11-03T15:30:05Z</time>
      </trkpt>
      <trkpt lat="44.97214" lon="0.23881">
        <ele>109</ele>
        <time>2014-11-03T15:30:11Z</time>
      </trkpt>
      <trkpt lat="44.97208" lon="0.23884">
        <ele>109</ele>
        <time>2014-11-03T15:30:16Z</time>
      </trkpt>
      <trkpt lat="44.97205" lon="0.23891">
        <ele>110</ele>
        <time>2014-11-03T15:30:20Z</time>
      </trkpt>
      <trkpt lat="44.97203" lon="0.23898">
        <ele>110</ele>
        <time>2014-11-03T15:30:26Z</time>
      </trkpt>
      <trkpt lat="44.972" lon="0.23903">
        <ele>109</ele>
        <time>2014-11-03T15:30:31Z</time>
      </trkpt>
      <trkpt lat="44.97198" lon="0.23907">
        <ele>109</ele>
        <time>2014-11-03T15:30:35Z</time>
      </trkpt>
      <trkpt lat="44.97195" lon="0.2391">
        <ele>109</ele>
        <time>2014-11-03T15:30:40Z</time>
      </trkpt>
      <trkpt lat="44.97192" lon="0.23917">
        <ele>109</ele>
        <time>2014-11-03T15:30:45Z</time>
      </trkpt>
      <trkpt lat="44.9719" lon="0.23922">
        <ele>109</ele>
        <time>2014-11-03T15:30:50Z</time>
      </trkpt>
      <trkpt lat="44.9719" lon="0.23931">
        <ele>109</ele>
        <time>2014-11-03T15:30:55Z</time>
      </trkpt>
      <trkpt lat="44.97195" lon="0.23938">
        <ele>108</ele>
        <time>2014-11-03T15:31:00Z</time>
      </trkpt>
      <trkpt lat="44.972" lon="0.23944">
        <ele>108</ele>
        <time>2014-11-03T15:31:05Z</time>
      </trkpt>
      <trkpt lat="44.97204" lon="0.23949">
        <ele>108</ele>
        <time>2014-11-03T15:31:10Z</time>
      </trkpt>
      <trkpt lat="44.9721" lon="0.23951">
        <ele>108</ele>
        <time>2014-11-03T15:31:16Z</time>
      </trkpt>
      <trkpt lat="44.97214" lon="0.23958">
        <ele>108</ele>
        <time>2014-11-03T15:31:20Z</time>
      </trkpt>
      <trkpt lat="44.97219" lon="0.23965">
        <ele>108</ele>
        <time>2014-11-03T15:31:26Z</time>
      </trkpt>
      <trkpt lat="44.97222" lon="0.23969">
        <ele>108</ele>
        <time>2014-11-03T15:31:31Z</time>
      </trkpt>
      <trkpt lat="44.97231" lon="0.23981">
        <ele>108</ele>
        <time>2014-11-03T15:31:40Z</time>
      </trkpt>
      <trkpt lat="44.97233" lon="0.23989">
        <ele>110</ele>
        <time>2014-11-03T15:31:45Z</time>
      </trkpt>
      <trkpt lat="44.97234" lon="0.24002">
        <ele>110</ele>
        <time>2014-11-03T15:31:50Z</time>
      </trkpt>
      <trkpt lat="44.97238" lon="0.24009">
        <ele>108</ele>
        <time>2014-11-03T15:31:55Z</time>
      </trkpt>
      <trkpt lat="44.97236" lon="0.24011">
        <ele>110</ele>
        <time>2014-11-03T15:32:00Z</time>
      </trkpt>
      <trkpt lat="44.97233" lon="0.24009">
        <ele>110</ele>
        <time>2014-11-03T15:32:05Z</time>
      </trkpt>
      <trkpt lat="44.97233" lon="0.24008">
        <ele>110</ele>
        <time>2014-11-03T15:32:11Z</time>
      </trkpt>
      <trkpt lat="44.97233" lon="0.24009">
        <ele>110</ele>
        <time>2014-11-03T15:32:15Z</time>
      </trkpt>
      <trkpt lat="44.97233" lon="0.24009">
        <ele>110</ele>
        <time>2014-11-03T15:32:20Z</time>
      </trkpt>
      <trkpt lat="44.97233" lon="0.24009">
        <ele>110</ele>
        <time>2014-11-03T15:32:25Z</time>
      </trkpt>
      <trkpt lat="44.97234" lon="0.24009">
        <ele>110</ele>
        <time>2014-11-03T15:32:30Z</time>
      </trkpt>
      <trkpt lat="44.97241" lon="0.2402">
        <ele>110</ele>
        <time>2014-11-03T15:32:36Z</time>
      </trkpt>
      <trkpt lat="44.97245" lon="0.24026">
        <ele>110</ele>
        <time>2014-11-03T15:32:40Z</time>
      </trkpt>
      <trkpt lat="44.9725" lon="0.24032">
        <ele>110</ele>
        <time>2014-11-03T15:32:45Z</time>
      </trkpt>
      <trkpt lat="44.97254" lon="0.24035">
        <ele>110</ele>
        <time>2014-11-03T15:32:51Z</time>
      </trkpt>
      <trkpt lat="44.97261" lon="0.24037">
        <ele>110</ele>
        <time>2014-11-03T15:32:55Z</time>
      </trkpt>
      <trkpt lat="44.97268" lon="0.24043">
        <ele>109</ele>
        <time>2014-11-03T15:33:01Z</time>
      </trkpt>
      <trkpt lat="44.97272" lon="0.24045">
        <ele>109</ele>
        <time>2014-11-03T15:33:05Z</time>
      </trkpt>
      <trkpt lat="44.97274" lon="0.24054">
        <ele>109</ele>
        <time>2014-11-03T15:33:10Z</time>
      </trkpt>
      <trkpt lat="44.97277" lon="0.2406">
        <ele>109</ele>
        <time>2014-11-03T15:33:15Z</time>
      </trkpt>
      <trkpt lat="44.97279" lon="0.24066">
        <ele>109</ele>
        <time>2014-11-03T15:33:20Z</time>
      </trkpt>
      <trkpt lat="44.97282" lon="0.24075">
        <ele>110</ele>
        <time>2014-11-03T15:33:26Z</time>
      </trkpt>
      <trkpt lat="44.97285" lon="0.24081">
        <ele>110</ele>
        <time>2014-11-03T15:33:30Z</time>
      </trkpt>
      <trkpt lat="44.97287" lon="0.24086">
        <ele>110</ele>
        <time>2014-11-03T15:33:35Z</time>
      </trkpt>
      <trkpt lat="44.97291" lon="0.2409">
        <ele>110</ele>
        <time>2014-11-03T15:33:41Z</time>
      </trkpt>
      <trkpt lat="44.97295" lon="0.24094">
        <ele>108</ele>
        <time>2014-11-03T15:33:45Z</time>
      </trkpt>
      <trkpt lat="44.97298" lon="0.24102">
        <ele>109</ele>
        <time>2014-11-03T15:33:52Z</time>
      </trkpt>
      <trkpt lat="44.973" lon="0.24104">
        <ele>109</ele>
        <time>2014-11-03T15:33:56Z</time>
      </trkpt>
      <trkpt lat="44.97305" lon="0.2411">
        <ele>109</ele>
        <time>2014-11-03T15:34:01Z</time>
      </trkpt>
      <trkpt lat="44.97309" lon="0.24116">
        <ele>109</ele>
        <time>2014-11-03T15:34:05Z</time>
      </trkpt>
      <trkpt lat="44.97314" lon="0.24122">
        <ele>109</ele>
        <time>2014-11-03T15:34:10Z</time>
      </trkpt>
      <trkpt lat="44.97318" lon="0.24129">
        <ele>108</ele>
        <time>2014-11-03T15:34:15Z</time>
      </trkpt>
      <trkpt lat="44.97322" lon="0.2414">
        <ele>106</ele>
        <time>2014-11-03T15:34:20Z</time>
      </trkpt>
      <trkpt lat="44.97326" lon="0.24144">
        <ele>106</ele>
        <time>2014-11-03T15:34:26Z</time>
      </trkpt>
      <trkpt lat="44.97331" lon="0.24147">
        <ele>106</ele>
        <time>2014-11-03T15:34:31Z</time>
      </trkpt>
      <trkpt lat="44.97336" lon="0.24146">
        <ele>106</ele>
        <time>2014-11-03T15:34:35Z</time>
      </trkpt>
      <trkpt lat="44.97342" lon="0.24145">
        <ele>106</ele>
        <time>2014-11-03T15:34:40Z</time>
      </trkpt>
      <trkpt lat="44.97352" lon="0.24144">
        <ele>104</ele>
        <time>2014-11-03T15:34:47Z</time>
      </trkpt>
      <trkpt lat="44.97356" lon="0.24144">
        <ele>104</ele>
        <time>2014-11-03T15:34:50Z</time>
      </trkpt>
      <trkpt lat="44.9736" lon="0.24145">
        <ele>104</ele>
        <time>2014-11-03T15:34:55Z</time>
      </trkpt>
      <trkpt lat="44.97365" lon="0.24147">
        <ele>104</ele>
        <time>2014-11-03T15:35:00Z</time>
      </trkpt>
      <trkpt lat="44.97369" lon="0.24149">
        <ele>104</ele>
        <time>2014-11-03T15:35:05Z</time>
      </trkpt>
      <trkpt lat="44.97366" lon="0.24151">
        <ele>104</ele>
        <time>2014-11-03T15:35:10Z</time>
      </trkpt>
      <trkpt lat="44.97367" lon="0.24152">
        <ele>104</ele>
        <time>2014-11-03T15:35:15Z</time>
      </trkpt>
      <trkpt lat="44.97373" lon="0.24154">
        <ele>105</ele>
        <time>2014-11-03T15:35:21Z</time>
      </trkpt>
      <trkpt lat="44.97379" lon="0.24154">
        <ele>105</ele>
        <time>2014-11-03T15:35:25Z</time>
      </trkpt>
      <trkpt lat="44.97389" lon="0.24154">
        <ele>105</ele>
        <time>2014-11-03T15:35:31Z</time>
      </trkpt>
      <trkpt lat="44.97391" lon="0.24154">
        <ele>105</ele>
        <time>2014-11-03T15:35:36Z</time>
      </trkpt>
      <trkpt lat="44.97402" lon="0.24151">
        <ele>104</ele>
        <time>2014-11-03T15:35:41Z</time>
      </trkpt>
      <trkpt lat="44.97407" lon="0.2415">
        <ele>104</ele>
        <time>2014-11-03T15:35:45Z</time>
      </trkpt>
      <trkpt lat="44.97413" lon="0.24149">
        <ele>104</ele>
        <time>2014-11-03T15:35:51Z</time>
      </trkpt>
      <trkpt lat="44.97418" lon="0.2415">
        <ele>104</ele>
        <time>2014-11-03T15:35:55Z</time>
      </trkpt>
      <trkpt lat="44.97423" lon="0.2415">
        <ele>104</ele>
        <time>2014-11-03T15:36:00Z</time>
      </trkpt>
      <trkpt lat="44.97427" lon="0.24151">
        <ele>104</ele>
        <time>2014-11-03T15:36:05Z</time>
      </trkpt>
      <trkpt lat="44.97433" lon="0.24153">
        <ele>102</ele>
        <time>2014-11-03T15:36:11Z</time>
      </trkpt>
      <trkpt lat="44.97437" lon="0.24154">
        <ele>102</ele>
        <time>2014-11-03T15:36:15Z</time>
      </trkpt>
      <trkpt lat="44.97442" lon="0.24154">
        <ele>102</ele>
        <time>2014-11-03T15:36:20Z</time>
      </trkpt>
      <trkpt lat="44.97447" lon="0.24156">
        <ele>102</ele>
        <time>2014-11-03T15:36:25Z</time>
      </trkpt>
      <trkpt lat="44.97454" lon="0.24158">
        <ele>102</ele>
        <time>2014-11-03T15:36:30Z</time>
      </trkpt>
      <trkpt lat="44.9746" lon="0.24159">
        <ele>101</ele>
        <time>2014-11-03T15:36:35Z</time>
      </trkpt>
      <trkpt lat="44.97466" lon="0.24159">
        <ele>101</ele>
        <time>2014-11-03T15:36:40Z</time>
      </trkpt>
      <trkpt lat="44.97471" lon="0.2416">
        <ele>101</ele>
        <time>2014-11-03T15:36:45Z</time>
      </trkpt>
      <trkpt lat="44.97477" lon="0.24163">
        <ele>101</ele>
        <time>2014-11-03T15:36:50Z</time>
      </trkpt>
      <trkpt lat="44.97482" lon="0.24162">
        <ele>101</ele>
        <time>2014-11-03T15:36:55Z</time>
      </trkpt>
      <trkpt lat="44.97486" lon="0.24164">
        <ele>99</ele>
        <time>2014-11-03T15:37:00Z</time>
      </trkpt>
      <trkpt lat="44.97492" lon="0.24165">
        <ele>99</ele>
        <time>2014-11-03T15:37:05Z</time>
      </trkpt>
      <trkpt lat="44.97497" lon="0.24166">
        <ele>99</ele>
        <time>2014-11-03T15:37:10Z</time>
      </trkpt>
      <trkpt lat="44.97504" lon="0.24163">
        <ele>99</ele>
        <time>2014-11-03T15:37:15Z</time>
      </trkpt>
      <trkpt lat="44.9751" lon="0.24163">
        <ele>99</ele>
        <time>2014-11-03T15:37:20Z</time>
      </trkpt>
      <trkpt lat="44.97515" lon="0.24163">
        <ele>98</ele>
        <time>2014-11-03T15:37:25Z</time>
      </trkpt>
      <trkpt lat="44.9752" lon="0.24165">
        <ele>98</ele>
        <time>2014-11-03T15:37:30Z</time>
      </trkpt>
      <trkpt lat="44.97526" lon="0.24167">
        <ele>98</ele>
        <time>2014-11-03T15:37:35Z</time>
      </trkpt>
      <trkpt lat="44.97531" lon="0.24167">
        <ele>98</ele>
        <time>2014-11-03T15:37:40Z</time>
      </trkpt>
      <trkpt lat="44.97537" lon="0.24168">
        <ele>98</ele>
        <time>2014-11-03T15:37:45Z</time>
      </trkpt>
      <trkpt lat="44.97541" lon="0.24167">
        <ele>98</ele>
        <time>2014-11-03T15:37:50Z</time>
      </trkpt>
      <trkpt lat="44.97547" lon="0.24169">
        <ele>98</ele>
        <time>2014-11-03T15:37:55Z</time>
      </trkpt>
      <trkpt lat="44.9755" lon="0.24168">
        <ele>98</ele>
        <time>2014-11-03T15:38:00Z</time>
      </trkpt>
      <trkpt lat="44.97556" lon="0.24168">
        <ele>98</ele>
        <time>2014-11-03T15:38:05Z</time>
      </trkpt>
      <trkpt lat="44.97563" lon="0.24167">
        <ele>98</ele>
        <time>2014-11-03T15:38:10Z</time>
      </trkpt>
      <trkpt lat="44.97568" lon="0.24164">
        <ele>98</ele>
        <time>2014-11-03T15:38:15Z</time>
      </trkpt>
      <trkpt lat="44.97567" lon="0.24163">
        <ele>98</ele>
        <time>2014-11-03T15:38:20Z</time>
      </trkpt>
      <trkpt lat="44.97566" lon="0.24163">
        <ele>98</ele>
        <time>2014-11-03T15:38:25Z</time>
      </trkpt>
      <trkpt lat="44.97565" lon="0.24163">
        <ele>98</ele>
        <time>2014-11-03T15:38:30Z</time>
      </trkpt>
      <trkpt lat="44.97566" lon="0.24164">
        <ele>98</ele>
        <time>2014-11-03T15:38:35Z</time>
      </trkpt>
      <trkpt lat="44.97567" lon="0.24165">
        <ele>98</ele>
        <time>2014-11-03T15:38:40Z</time>
      </trkpt>
      <trkpt lat="44.97567" lon="0.24161">
        <ele>98</ele>
        <time>2014-11-03T15:38:45Z</time>
      </trkpt>
      <trkpt lat="44.97562" lon="0.24148">
        <ele>99</ele>
        <time>2014-11-03T15:38:50Z</time>
      </trkpt>
      <trkpt lat="44.97559" lon="0.24139">
        <ele>99</ele>
        <time>2014-11-03T15:38:55Z</time>
      </trkpt>
      <trkpt lat="44.9756" lon="0.24134">
        <ele>99</ele>
        <time>2014-11-03T15:39:00Z</time>
      </trkpt>
      <trkpt lat="44.9756" lon="0.24132">
        <ele>99</ele>
        <time>2014-11-03T15:39:05Z</time>
      </trkpt>
      <trkpt lat="44.97559" lon="0.24131">
        <ele>99</ele>
        <time>2014-11-03T15:39:10Z</time>
      </trkpt>
      <trkpt lat="44.97559" lon="0.24131">
        <ele>99</ele>
        <time>2014-11-03T15:39:15Z</time>
      </trkpt>
      <trkpt lat="44.97559" lon="0.24131">
        <ele>99</ele>
        <time>2014-11-03T15:39:20Z</time>
      </trkpt>
      <trkpt lat="44.97559" lon="0.24131">
        <ele>99</ele>
        <time>2014-11-03T15:39:25Z</time>
      </trkpt>
      <trkpt lat="44.97559" lon="0.24131">
        <ele>99</ele>
        <time>2014-11-03T15:39:30Z</time>
      </trkpt>
      <trkpt lat="44.97559" lon="0.24131">
        <ele>99</ele>
        <time>2014-11-03T15:39:35Z</time>
      </trkpt>
      <trkpt lat="44.97559" lon="0.24131">
        <ele>99</ele>
        <time>2014-11-03T15:39:40Z</time>
      </trkpt>
      <trkpt lat="44.97559" lon="0.24131">
        <ele>99</ele>
        <time>2014-11-03T15:39:45Z</time>
      </trkpt>
      <trkpt lat="44.97559" lon="0.24131">
        <ele>99</ele>
        <time>2014-11-03T15:39:50Z</time>
      </trkpt>
      <trkpt lat="44.97559" lon="0.24131">
        <ele>99</ele>
        <time>2014-11-03T15:39:55Z</time>
      </trkpt>
      <trkpt lat="44.97559" lon="0.24131">
        <ele>99</ele>
        <time>2014-11-03T15:40:00Z</time>
      </trkpt>
      <trkpt lat="44.97559" lon="0.24131">
        <ele>99</ele>
        <time>2014-11-03T15:40:05Z</time>
      </trkpt>
      <trkpt lat="44.97559" lon="0.24131">
        <ele>99</ele>
        <time>2014-11-03T15:40:10Z</time>
      </trkpt>
      <trkpt lat="44.97559" lon="0.24131">
        <ele>99</ele>
        <time>2014-11-03T15:40:15Z</time>
      </trkpt>
      <trkpt lat="44.97559" lon="0.24131">
        <ele>99</ele>
        <time>2014-11-03T15:40:20Z</time>
      </trkpt>
      <trkpt lat="44.97559" lon="0.24131">
        <ele>99</ele>
        <time>2014-11-03T15:40:25Z</time>
      </trkpt>
      <trkpt lat="44.97559" lon="0.24131">
        <ele>99</ele>
        <time>2014-11-03T15:40:30Z</time>
      </trkpt>
      <trkpt lat="44.97559" lon="0.24131">
        <ele>99</ele>
        <time>2014-11-03T15:40:40Z</time>
      </trkpt>
      <trkpt lat="44.97559" lon="0.24131">
        <ele>99</ele>
        <time>2014-11-03T15:40:45Z</time>
      </trkpt>
      <trkpt lat="44.97559" lon="0.24131">
        <ele>99</ele>
        <time>2014-11-03T15:40:50Z</time>
      </trkpt>
      <trkpt lat="44.97559" lon="0.24131">
        <ele>99</ele>
        <time>2014-11-03T15:40:55Z</time>
      </trkpt>
      <trkpt lat="44.97559" lon="0.24131">
        <ele>99</ele>
        <time>2014-11-03T15:41:05Z</time>
      </trkpt>
      <trkpt lat="44.97559" lon="0.24131">
        <ele>99</ele>
        <time>2014-11-03T15:41:10Z</time>
      </trkpt>
      <trkpt lat="44.97559" lon="0.24131">
        <ele>99</ele>
        <time>2014-11-03T15:41:15Z</time>
      </trkpt>
      <trkpt lat="44.97559" lon="0.24131">
        <ele>99</ele>
        <time>2014-11-03T15:41:20Z</time>
      </trkpt>
      <trkpt lat="44.97559" lon="0.24131">
        <ele>99</ele>
        <time>2014-11-03T15:41:25Z</time>
      </trkpt>
      <trkpt lat="44.97559" lon="0.24131">
        <ele>99</ele>
        <time>2014-11-03T15:41:30Z</time>
      </trkpt>
      <trkpt lat="44.97559" lon="0.24131">
        <ele>99</ele>
        <time>2014-11-03T15:41:35Z</time>
      </trkpt>
      <trkpt lat="44.97559" lon="0.24131">
        <ele>99</ele>
        <time>2014-11-03T15:41:40Z</time>
      </trkpt>
      <trkpt lat="44.97559" lon="0.24131">
        <ele>99</ele>
        <time>2014-11-03T15:41:45Z</time>
      </trkpt>
      <trkpt lat="44.97559" lon="0.24131">
        <ele>99</ele>
        <time>2014-11-03T15:41:50Z</time>
      </trkpt>
      <trkpt lat="44.97559" lon="0.24131">
        <ele>99</ele>
        <time>2014-11-03T15:41:55Z</time>
      </trkpt>
      <trkpt lat="44.97559" lon="0.24131">
        <ele>99</ele>
        <time>2014-11-03T15:42:00Z</time>
      </trkpt>
      <trkpt lat="44.97559" lon="0.24131">
        <ele>99</ele>
        <time>2014-11-03T15:42:05Z</time>
      </trkpt>
      <trkpt lat="44.97559" lon="0.24131">
        <ele>99</ele>
        <time>2014-11-03T15:42:10Z</time>
      </trkpt>
      <trkpt lat="44.97559" lon="0.24131">
        <ele>99</ele>
        <time>2014-11-03T15:42:15Z</time>
      </trkpt>
      <trkpt lat="44.97559" lon="0.24131">
        <ele>99</ele>
        <time>2014-11-03T15:42:20Z</time>
      </trkpt>
      <trkpt lat="44.97559" lon="0.24131">
        <ele>99</ele>
        <time>2014-11-03T15:42:25Z</time>
      </trkpt>
      <trkpt lat="44.97559" lon="0.24131">
        <ele>99</ele>
        <time>2014-11-03T15:42:30Z</time>
      </trkpt>
      <trkpt lat="44.97559" lon="0.24131">
        <ele>99</ele>
        <time>2014-11-03T15:42:35Z</time>
      </trkpt>
      <trkpt lat="44.97559" lon="0.24131">
        <ele>99</ele>
        <time>2014-11-03T15:42:45Z</time>
      </trkpt>
      <trkpt lat="44.97559" lon="0.24131">
        <ele>99</ele>
        <time>2014-11-03T15:42:50Z</time>
      </trkpt>
      <trkpt lat="44.97559" lon="0.24131">
        <ele>99</ele>
        <time>2014-11-03T15:42:55Z</time>
      </trkpt>
      <trkpt lat="44.97559" lon="0.24131">
        <ele>99</ele>
        <time>2014-11-03T15:43:00Z</time>
      </trkpt>
      <trkpt lat="44.97559" lon="0.24131">
        <ele>99</ele>
        <time>2014-11-03T15:43:05Z</time>
      </trkpt>
      <trkpt lat="44.97559" lon="0.24131">
        <ele>99</ele>
        <time>2014-11-03T15:43:10Z</time>
      </trkpt>
      <trkpt lat="44.97559" lon="0.24131">
        <ele>99</ele>
        <time>2014-11-03T15:43:15Z</time>
      </trkpt>
      <trkpt lat="44.97559" lon="0.24131">
        <ele>99</ele>
        <time>2014-11-03T15:43:20Z</time>
      </trkpt>
      <trkpt lat="44.97559" lon="0.24131">
        <ele>99</ele>
        <time>2014-11-03T15:43:25Z</time>
      </trkpt>
      <trkpt lat="44.97559" lon="0.24131">
        <ele>99</ele>
        <time>2014-11-03T15:43:30Z</time>
      </trkpt>
      <trkpt lat="44.97559" lon="0.24131">
        <ele>99</ele>
        <time>2014-11-03T15:43:35Z</time>
      </trkpt>
      <trkpt lat="44.97559" lon="0.24131">
        <ele>99</ele>
        <time>2014-11-03T15:43:40Z</time>
      </trkpt>
      <trkpt lat="44.97559" lon="0.24131">
        <ele>99</ele>
        <time>2014-11-03T15:43:45Z</time>
      </trkpt>
      <trkpt lat="44.97559" lon="0.24131">
        <ele>99</ele>
        <time>2014-11-03T15:43:50Z</time>
      </trkpt>
      <trkpt lat="44.97559" lon="0.24131">
        <ele>99</ele>
        <time>2014-11-03T15:43:55Z</time>
      </trkpt>
      <trkpt lat="44.97559" lon="0.24131">
        <ele>99</ele>
        <time>2014-11-03T15:44:00Z</time>
      </trkpt>
      <trkpt lat="44.97559" lon="0.24131">
        <ele>99</ele>
        <time>2014-11-03T15:44:05Z</time>
      </trkpt>
      <trkpt lat="44.97559" lon="0.24131">
        <ele>99</ele>
        <time>2014-11-03T15:44:10Z</time>
      </trkpt>
      <trkpt lat="44.97559" lon="0.24131">
        <ele>99</ele>
        <time>2014-11-03T15:44:20Z</time>
      </trkpt>
      <trkpt lat="44.97559" lon="0.24131">
        <ele>99</ele>
        <time>2014-11-03T15:44:25Z</time>
      </trkpt>
      <trkpt lat="44.97559" lon="0.24131">
        <ele>99</ele>
        <time>2014-11-03T15:44:30Z</time>
      </trkpt>
      <trkpt lat="44.97559" lon="0.24131">
        <ele>99</ele>
        <time>2014-11-03T15:44:35Z</time>
      </trkpt>
      <trkpt lat="44.97559" lon="0.24131">
        <ele>99</ele>
        <time>2014-11-03T15:44:40Z</time>
      </trkpt>
      <trkpt lat="44.97559" lon="0.24131">
        <ele>99</ele>
        <time>2014-11-03T15:44:45Z</time>
      </trkpt>
      <trkpt lat="44.97559" lon="0.24131">
        <ele>99</ele>
        <time>2014-11-03T15:44:50Z</time>
      </trkpt>
      <trkpt lat="44.97559" lon="0.24131">
        <ele>99</ele>
        <time>2014-11-03T15:44:55Z</time>
      </trkpt>
      <trkpt lat="44.97559" lon="0.24131">
        <ele>99</ele>
        <time>2014-11-03T15:45:00Z</time>
      </trkpt>
      <trkpt lat="44.97559" lon="0.24131">
        <ele>99</ele>
        <time>2014-11-03T15:45:05Z</time>
      </trkpt>
      <trkpt lat="44.97559" lon="0.24131">
        <ele>99</ele>
        <time>2014-11-03T15:45:10Z</time>
      </trkpt>
      <trkpt lat="44.97559" lon="0.24131">
        <ele>99</ele>
        <time>2014-11-03T15:45:15Z</time>
      </trkpt>
      <trkpt lat="44.97559" lon="0.24131">
        <ele>99</ele>
        <time>2014-11-03T15:45:20Z</time>
      </trkpt>
      <trkpt lat="44.97559" lon="0.24131">
        <ele>99</ele>
        <time>2014-11-03T15:45:25Z</time>
      </trkpt>
      <trkpt lat="44.97559" lon="0.24131">
        <ele>99</ele>
        <time>2014-11-03T15:45:30Z</time>
      </trkpt>
      <trkpt lat="44.97559" lon="0.24131">
        <ele>99</ele>
        <time>2014-11-03T15:45:35Z</time>
      </trkpt>
      <trkpt lat="44.97559" lon="0.24131">
        <ele>99</ele>
        <time>2014-11-03T15:45:40Z</time>
      </trkpt>
      <trkpt lat="44.97559" lon="0.24131">
        <ele>99</ele>
        <time>2014-11-03T15:45:45Z</time>
      </trkpt>
      <trkpt lat="44.97559" lon="0.24131">
        <ele>99</ele>
        <time>2014-11-03T15:45:50Z</time>
      </trkpt>
      <trkpt lat="44.97559" lon="0.24131">
        <ele>99</ele>
        <time>2014-11-03T15:45:55Z</time>
      </trkpt>
      <trkpt lat="44.97559" lon="0.24131">
        <ele>99</ele>
        <time>2014-11-03T15:46:00Z</time>
      </trkpt>
      <trkpt lat="44.97559" lon="0.24131">
        <ele>99</ele>
        <time>2014-11-03T15:46:05Z</time>
      </trkpt>
      <trkpt lat="44.97559" lon="0.24131">
        <ele>99</ele>
        <time>2014-11-03T15:46:10Z</time>
      </trkpt>
      <trkpt lat="44.97559" lon="0.24131">
        <ele>99</ele>
        <time>2014-11-03T15:46:15Z</time>
      </trkpt>
      <trkpt lat="44.97559" lon="0.24131">
        <ele>99</ele>
        <time>2014-11-03T15:46:20Z</time>
      </trkpt>
      <trkpt lat="44.97559" lon="0.24131">
        <ele>99</ele>
        <time>2014-11-03T15:46:25Z</time>
      </trkpt>
      <trkpt lat="44.97559" lon="0.24131">
        <ele>99</ele>
        <time>2014-11-03T15:46:30Z</time>
      </trkpt>
      <trkpt lat="44.97559" lon="0.24131">
        <ele>99</ele>
        <time>2014-11-03T15:46:35Z</time>
      </trkpt>
      <trkpt lat="44.97559" lon="0.24131">
        <ele>99</ele>
        <time>2014-11-03T15:46:40Z</time>
      </trkpt>
      <trkpt lat="44.97559" lon="0.24131">
        <ele>99</ele>
        <time>2014-11-03T15:46:45Z</time>
      </trkpt>
      <trkpt lat="44.97559" lon="0.24131">
        <ele>99</ele>
        <time>2014-11-03T15:46:50Z</time>
      </trkpt>
      <trkpt lat="44.97559" lon="0.24131">
        <ele>99</ele>
        <time>2014-11-03T15:46:55Z</time>
      </trkpt>
      <trkpt lat="44.97559" lon="0.24131">
        <ele>99</ele>
        <time>2014-11-03T15:47:00Z</time>
      </trkpt>
      <trkpt lat="44.97559" lon="0.24131">
        <ele>99</ele>
        <time>2014-11-03T15:47:05Z</time>
      </trkpt>
      <trkpt lat="44.97559" lon="0.24131">
        <ele>99</ele>
        <time>2014-11-03T15:47:10Z</time>
      </trkpt>
      <trkpt lat="44.97559" lon="0.24131">
        <ele>99</ele>
        <time>2014-11-03T15:47:15Z</time>
      </trkpt>
      <trkpt lat="44.97559" lon="0.24131">
        <ele>99</ele>
        <time>2014-11-03T15:47:20Z</time>
      </trkpt>
      <trkpt lat="44.97559" lon="0.24131">
        <ele>99</ele>
        <time>2014-11-03T15:47:25Z</time>
      </trkpt>
      <trkpt lat="44.97559" lon="0.24131">
        <ele>99</ele>
        <time>2014-11-03T15:47:30Z</time>
      </trkpt>
      <trkpt lat="44.97559" lon="0.24131">
        <ele>99</ele>
        <time>2014-11-03T15:47:35Z</time>
      </trkpt>
      <trkpt lat="44.97559" lon="0.24131">
        <ele>99</ele>
        <time>2014-11-03T15:47:40Z</time>
      </trkpt>
      <trkpt lat="44.97559" lon="0.24131">
        <ele>99</ele>
        <time>2014-11-03T15:47:45Z</time>
      </trkpt>
      <trkpt lat="44.97559" lon="0.24131">
        <ele>99</ele>
        <time>2014-11-03T15:47:50Z</time>
      </trkpt>
      <trkpt lat="44.97559" lon="0.24131">
        <ele>99</ele>
        <time>2014-11-03T15:47:57Z</time>
      </trkpt>
      <trkpt lat="44.97559" lon="0.24131">
        <ele>99</ele>
        <time>2014-11-03T15:48:01Z</time>
      </trkpt>
      <trkpt lat="44.97559" lon="0.24131">
        <ele>99</ele>
        <time>2014-11-03T15:48:06Z</time>
      </trkpt>
      <trkpt lat="44.97559" lon="0.24131">
        <ele>99</ele>
        <time>2014-11-03T15:48:10Z</time>
      </trkpt>
      <trkpt lat="44.97559" lon="0.24131">
        <ele>99</ele>
        <time>2014-11-03T15:48:16Z</time>
      </trkpt>
      <trkpt lat="44.97559" lon="0.24131">
        <ele>99</ele>
        <time>2014-11-03T15:48:21Z</time>
      </trkpt>
      <trkpt lat="44.97559" lon="0.24131">
        <ele>99</ele>
        <time>2014-11-03T15:48:26Z</time>
      </trkpt>
      <trkpt lat="44.97559" lon="0.24131">
        <ele>99</ele>
        <time>2014-11-03T15:48:30Z</time>
      </trkpt>
      <trkpt lat="44.97559" lon="0.24131">
        <ele>99</ele>
        <time>2014-11-03T15:48:35Z</time>
      </trkpt>
      <trkpt lat="44.97559" lon="0.24131">
        <ele>99</ele>
        <time>2014-11-03T15:48:42Z</time>
      </trkpt>
      <trkpt lat="44.97559" lon="0.24131">
        <ele>99</ele>
        <time>2014-11-03T15:48:46Z</time>
      </trkpt>
      <trkpt lat="44.97559" lon="0.24131">
        <ele>99</ele>
        <time>2014-11-03T15:48:55Z</time>
      </trkpt>
      <trkpt lat="44.97559" lon="0.24131">
        <ele>99</ele>
        <time>2014-11-03T15:49:01Z</time>
      </trkpt>
      <trkpt lat="44.97559" lon="0.24131">
        <ele>99</ele>
        <time>2014-11-03T15:49:07Z</time>
      </trkpt>
      <trkpt lat="44.97559" lon="0.24131">
        <ele>99</ele>
        <time>2014-11-03T15:49:11Z</time>
      </trkpt>
      <trkpt lat="44.97559" lon="0.24131">
        <ele>99</ele>
        <time>2014-11-03T15:49:15Z</time>
      </trkpt>
      <trkpt lat="44.97559" lon="0.24131">
        <ele>99</ele>
        <time>2014-11-03T15:49:21Z</time>
      </trkpt>
      <trkpt lat="44.97559" lon="0.24131">
        <ele>99</ele>
        <time>2014-11-03T15:49:26Z</time>
      </trkpt>
      <trkpt lat="44.97559" lon="0.24131">
        <ele>99</ele>
        <time>2014-11-03T15:49:30Z</time>
      </trkpt>
      <trkpt lat="44.97559" lon="0.24131">
        <ele>99</ele>
        <time>2014-11-03T15:49:35Z</time>
      </trkpt>
      <trkpt lat="44.97559" lon="0.24131">
        <ele>99</ele>
        <time>2014-11-03T15:49:41Z</time>
      </trkpt>
      <trkpt lat="44.97559" lon="0.24131">
        <ele>99</ele>
        <time>2014-11-03T15:49:46Z</time>
      </trkpt>
      <trkpt lat="44.97559" lon="0.24131">
        <ele>99</ele>
        <time>2014-11-03T15:49:51Z</time>
      </trkpt>
      <trkpt lat="44.97559" lon="0.24131">
        <ele>99</ele>
        <time>2014-11-03T15:49:56Z</time>
      </trkpt>
      <trkpt lat="44.97559" lon="0.24131">
        <ele>99</ele>
        <time>2014-11-03T15:50:01Z</time>
      </trkpt>
      <trkpt lat="44.97559" lon="0.24131">
        <ele>99</ele>
        <time>2014-11-03T15:50:06Z</time>
      </trkpt>
      <trkpt lat="44.97559" lon="0.24131">
        <ele>99</ele>
        <time>2014-11-03T15:50:10Z</time>
      </trkpt>
      <trkpt lat="44.97559" lon="0.24131">
        <ele>99</ele>
        <time>2014-11-03T15:50:16Z</time>
      </trkpt>
      <trkpt lat="44.97559" lon="0.24131">
        <ele>99</ele>
        <time>2014-11-03T15:50:21Z</time>
      </trkpt>
      <trkpt lat="44.97559" lon="0.24131">
        <ele>99</ele>
        <time>2014-11-03T15:50:26Z</time>
      </trkpt>
      <trkpt lat="44.97559" lon="0.24131">
        <ele>99</ele>
        <time>2014-11-03T15:50:31Z</time>
      </trkpt>
      <trkpt lat="44.97559" lon="0.24131">
        <ele>99</ele>
        <time>2014-11-03T15:50:35Z</time>
      </trkpt>
      <trkpt lat="44.97559" lon="0.24131">
        <ele>99</ele>
        <time>2014-11-03T15:50:41Z</time>
      </trkpt>
      <trkpt lat="44.97559" lon="0.24131">
        <ele>99</ele>
        <time>2014-11-03T15:50:46Z</time>
      </trkpt>
      <trkpt lat="44.97559" lon="0.24131">
        <ele>99</ele>
        <time>2014-11-03T15:50:50Z</time>
      </trkpt>
      <trkpt lat="44.97559" lon="0.24131">
        <ele>99</ele>
        <time>2014-11-03T15:50:56Z</time>
      </trkpt>
      <trkpt lat="44.97559" lon="0.24131">
        <ele>99</ele>
        <time>2014-11-03T15:51:01Z</time>
      </trkpt>
      <trkpt lat="44.97559" lon="0.24131">
        <ele>99</ele>
        <time>2014-11-03T15:51:05Z</time>
      </trkpt>
      <trkpt lat="44.97559" lon="0.24131">
        <ele>99</ele>
        <time>2014-11-03T15:51:11Z</time>
      </trkpt>
      <trkpt lat="44.97559" lon="0.24131">
        <ele>99</ele>
        <time>2014-11-03T15:51:15Z</time>
      </trkpt>
      <trkpt lat="44.97559" lon="0.24131">
        <ele>99</ele>
        <time>2014-11-03T15:51:20Z</time>
      </trkpt>
      <trkpt lat="44.97559" lon="0.24131">
        <ele>99</ele>
        <time>2014-11-03T15:51:25Z</time>
      </trkpt>
      <trkpt lat="44.97559" lon="0.24131">
        <ele>99</ele>
        <time>2014-11-03T15:51:30Z</time>
      </trkpt>
      <trkpt lat="44.97559" lon="0.24131">
        <ele>99</ele>
        <time>2014-11-03T15:51:35Z</time>
      </trkpt>
      <trkpt lat="44.97559" lon="0.24131">
        <ele>99</ele>
        <time>2014-11-03T15:51:40Z</time>
      </trkpt>
      <trkpt lat="44.97559" lon="0.24131">
        <ele>99</ele>
        <time>2014-11-03T15:51:45Z</time>
      </trkpt>
      <trkpt lat="44.97559" lon="0.24131">
        <ele>99</ele>
        <time>2014-11-03T15:51:50Z</time>
      </trkpt>
      <trkpt lat="44.97559" lon="0.24131">
        <ele>99</ele>
        <time>2014-11-03T15:51:55Z</time>
      </trkpt>
      <trkpt lat="44.97559" lon="0.24131">
        <ele>99</ele>
        <time>2014-11-03T15:52:00Z</time>
      </trkpt>
      <trkpt lat="44.97559" lon="0.24131">
        <ele>99</ele>
        <time>2014-11-03T15:52:05Z</time>
      </trkpt>
      <trkpt lat="44.97559" lon="0.24131">
        <ele>99</ele>
        <time>2014-11-03T15:52:10Z</time>
      </trkpt>
      <trkpt lat="44.97559" lon="0.24131">
        <ele>99</ele>
        <time>2014-11-03T15:52:15Z</time>
      </trkpt>
      <trkpt lat="44.97559" lon="0.24131">
        <ele>99</ele>
        <time>2014-11-03T15:52:20Z</time>
      </trkpt>
      <trkpt lat="44.97559" lon="0.24131">
        <ele>99</ele>
        <time>2014-11-03T15:52:25Z</time>
      </trkpt>
      <trkpt lat="44.97559" lon="0.24131">
        <ele>99</ele>
        <time>2014-11-03T15:52:30Z</time>
      </trkpt>
      <trkpt lat="44.97559" lon="0.24131">
        <ele>99</ele>
        <time>2014-11-03T15:52:35Z</time>
      </trkpt>
      <trkpt lat="44.97559" lon="0.24131">
        <ele>99</ele>
        <time>2014-11-03T15:52:41Z</time>
      </trkpt>
      <trkpt lat="44.97559" lon="0.24131">
        <ele>99</ele>
        <time>2014-11-03T15:52:46Z</time>
      </trkpt>
      <trkpt lat="44.97559" lon="0.24131">
        <ele>99</ele>
        <time>2014-11-03T15:52:50Z</time>
      </trkpt>
      <trkpt lat="44.97559" lon="0.24131">
        <ele>99</ele>
        <time>2014-11-03T15:52:55Z</time>
      </trkpt>
      <trkpt lat="44.97559" lon="0.24131">
        <ele>99</ele>
        <time>2014-11-03T15:53:00Z</time>
      </trkpt>
      <trkpt lat="44.97559" lon="0.24131">
        <ele>99</ele>
        <time>2014-11-03T15:53:05Z</time>
      </trkpt>
      <trkpt lat="44.97559" lon="0.24131">
        <ele>99</ele>
        <time>2014-11-03T15:53:10Z</time>
      </trkpt>
      <trkpt lat="44.97559" lon="0.24131">
        <ele>99</ele>
        <time>2014-11-03T15:53:15Z</time>
      </trkpt>
      <trkpt lat="44.97559" lon="0.24131">
        <ele>99</ele>
        <time>2014-11-03T15:53:20Z</time>
      </trkpt>
      <trkpt lat="44.97559" lon="0.24131">
        <ele>99</ele>
        <time>2014-11-03T15:53:25Z</time>
      </trkpt>
      <trkpt lat="44.97559" lon="0.24131">
        <ele>99</ele>
        <time>2014-11-03T15:53:30Z</time>
      </trkpt>
      <trkpt lat="44.97559" lon="0.24131">
        <ele>99</ele>
        <time>2014-11-03T15:53:36Z</time>
      </trkpt>
      <trkpt lat="44.97559" lon="0.24131">
        <ele>99</ele>
        <time>2014-11-03T15:53:41Z</time>
      </trkpt>
      <trkpt lat="44.97559" lon="0.24131">
        <ele>99</ele>
        <time>2014-11-03T15:53:46Z</time>
      </trkpt>
      <trkpt lat="44.97559" lon="0.24131">
        <ele>99</ele>
        <time>2014-11-03T15:53:51Z</time>
      </trkpt>
      <trkpt lat="44.97559" lon="0.24131">
        <ele>99</ele>
        <time>2014-11-03T15:53:55Z</time>
      </trkpt>
      <trkpt lat="44.97559" lon="0.24131">
        <ele>99</ele>
        <time>2014-11-03T15:54:01Z</time>
      </trkpt>
      <trkpt lat="44.97559" lon="0.24131">
        <ele>99</ele>
        <time>2014-11-03T15:54:06Z</time>
      </trkpt>
      <trkpt lat="44.97559" lon="0.24131">
        <ele>99</ele>
        <time>2014-11-03T15:54:10Z</time>
      </trkpt>
      <trkpt lat="44.97559" lon="0.24131">
        <ele>99</ele>
        <time>2014-11-03T15:54:17Z</time>
      </trkpt>
      <trkpt lat="44.97559" lon="0.24131">
        <ele>99</ele>
        <time>2014-11-03T15:54:21Z</time>
      </trkpt>
      <trkpt lat="44.97559" lon="0.24131">
        <ele>99</ele>
        <time>2014-11-03T15:54:26Z</time>
      </trkpt>
      <trkpt lat="44.97559" lon="0.24131">
        <ele>99</ele>
        <time>2014-11-03T15:54:31Z</time>
      </trkpt>
      <trkpt lat="44.97559" lon="0.24131">
        <ele>99</ele>
        <time>2014-11-03T15:54:35Z</time>
      </trkpt>
      <trkpt lat="44.97559" lon="0.24131">
        <ele>99</ele>
        <time>2014-11-03T15:54:41Z</time>
      </trkpt>
      <trkpt lat="44.97559" lon="0.24131">
        <ele>99</ele>
        <time>2014-11-03T15:54:46Z</time>
      </trkpt>
      <trkpt lat="44.97559" lon="0.24131">
        <ele>99</ele>
        <time>2014-11-03T15:54:50Z</time>
      </trkpt>
      <trkpt lat="44.97559" lon="0.24131">
        <ele>99</ele>
        <time>2014-11-03T15:54:56Z</time>
      </trkpt>
      <trkpt lat="44.97559" lon="0.24131">
        <ele>99</ele>
        <time>2014-11-03T15:55:01Z</time>
      </trkpt>
      <trkpt lat="44.97559" lon="0.24131">
        <ele>99</ele>
        <time>2014-11-03T15:55:05Z</time>
      </trkpt>
      <trkpt lat="44.97559" lon="0.24131">
        <ele>99</ele>
        <time>2014-11-03T15:55:10Z</time>
      </trkpt>
      <trkpt lat="44.97559" lon="0.24131">
        <ele>99</ele>
        <time>2014-11-03T15:55:15Z</time>
      </trkpt>
      <trkpt lat="44.97559" lon="0.24131">
        <ele>99</ele>
        <time>2014-11-03T15:55:20Z</time>
      </trkpt>
      <trkpt lat="44.97559" lon="0.24131">
        <ele>99</ele>
        <time>2014-11-03T15:55:25Z</time>
      </trkpt>
      <trkpt lat="44.97559" lon="0.24131">
        <ele>99</ele>
        <time>2014-11-03T15:55:30Z</time>
      </trkpt>
      <trkpt lat="44.97559" lon="0.24131">
        <ele>99</ele>
        <time>2014-11-03T15:55:35Z</time>
      </trkpt>
      <trkpt lat="44.97559" lon="0.24131">
        <ele>99</ele>
        <time>2014-11-03T15:55:40Z</time>
      </trkpt>
      <trkpt lat="44.97559" lon="0.24131">
        <ele>99</ele>
        <time>2014-11-03T15:55:45Z</time>
      </trkpt>
      <trkpt lat="44.97559" lon="0.24131">
        <ele>99</ele>
        <time>2014-11-03T15:55:50Z</time>
      </trkpt>
      <trkpt lat="44.97559" lon="0.24131">
        <ele>99</ele>
        <time>2014-11-03T15:55:55Z</time>
      </trkpt>
      <trkpt lat="44.97559" lon="0.24131">
        <ele>99</ele>
        <time>2014-11-03T15:56:00Z</time>
      </trkpt>
      <trkpt lat="44.97559" lon="0.24131">
        <ele>99</ele>
        <time>2014-11-03T15:56:10Z</time>
      </trkpt>
      <trkpt lat="44.97559" lon="0.24131">
        <ele>99</ele>
        <time>2014-11-03T15:56:15Z</time>
      </trkpt>
      <trkpt lat="44.97559" lon="0.24131">
        <ele>99</ele>
        <time>2014-11-03T15:56:20Z</time>
      </trkpt>
      <trkpt lat="44.97559" lon="0.24131">
        <ele>99</ele>
        <time>2014-11-03T15:56:25Z</time>
      </trkpt>
      <trkpt lat="44.97559" lon="0.24131">
        <ele>99</ele>
        <time>2014-11-03T15:56:31Z</time>
      </trkpt>
      <trkpt lat="44.97559" lon="0.24131">
        <ele>99</ele>
        <time>2014-11-03T15:56:35Z</time>
      </trkpt>
      <trkpt lat="44.97559" lon="0.24131">
        <ele>99</ele>
        <time>2014-11-03T15:56:41Z</time>
      </trkpt>
      <trkpt lat="44.97559" lon="0.24131">
        <ele>99</ele>
        <time>2014-11-03T15:56:46Z</time>
      </trkpt>
      <trkpt lat="44.97559" lon="0.24131">
        <ele>99</ele>
        <time>2014-11-03T15:56:51Z</time>
      </trkpt>
      <trkpt lat="44.97559" lon="0.24131">
        <ele>99</ele>
        <time>2014-11-03T15:56:56Z</time>
      </trkpt>
      <trkpt lat="44.97559" lon="0.24131">
        <ele>99</ele>
        <time>2014-11-03T15:57:00Z</time>
      </trkpt>
      <trkpt lat="44.97559" lon="0.24131">
        <ele>99</ele>
        <time>2014-11-03T15:57:06Z</time>
      </trkpt>
      <trkpt lat="44.97559" lon="0.24131">
        <ele>99</ele>
        <time>2014-11-03T15:57:11Z</time>
      </trkpt>
      <trkpt lat="44.97559" lon="0.24131">
        <ele>99</ele>
        <time>2014-11-03T15:57:16Z</time>
      </trkpt>
      <trkpt lat="44.97559" lon="0.24131">
        <ele>99</ele>
        <time>2014-11-03T15:57:20Z</time>
      </trkpt>
      <trkpt lat="44.97559" lon="0.24131">
        <ele>99</ele>
        <time>2014-11-03T15:57:25Z</time>
      </trkpt>
      <trkpt lat="44.97559" lon="0.24131">
        <ele>99</ele>
        <time>2014-11-03T15:57:30Z</time>
      </trkpt>
      <trkpt lat="44.97559" lon="0.24131">
        <ele>99</ele>
        <time>2014-11-03T15:57:35Z</time>
      </trkpt>
      <trkpt lat="44.97559" lon="0.24131">
        <ele>99</ele>
        <time>2014-11-03T15:57:40Z</time>
      </trkpt>
      <trkpt lat="44.97559" lon="0.24131">
        <ele>99</ele>
        <time>2014-11-03T15:57:45Z</time>
      </trkpt>
      <trkpt lat="44.97559" lon="0.24131">
        <ele>99</ele>
        <time>2014-11-03T15:57:50Z</time>
      </trkpt>
      <trkpt lat="44.97559" lon="0.24131">
        <ele>99</ele>
        <time>2014-11-03T15:57:55Z</time>
      </trkpt>
      <trkpt lat="44.97559" lon="0.24131">
        <ele>99</ele>
        <time>2014-11-03T15:58:00Z</time>
      </trkpt>
      <trkpt lat="44.97559" lon="0.24131">
        <ele>99</ele>
        <time>2014-11-03T15:58:05Z</time>
      </trkpt>
      <trkpt lat="44.97559" lon="0.24131">
        <ele>99</ele>
        <time>2014-11-03T15:58:10Z</time>
      </trkpt>
      <trkpt lat="44.97559" lon="0.24131">
        <ele>99</ele>
        <time>2014-11-03T15:58:15Z</time>
      </trkpt>
      <trkpt lat="44.97559" lon="0.24131">
        <ele>99</ele>
        <time>2014-11-03T15:58:20Z</time>
      </trkpt>
      <trkpt lat="44.97559" lon="0.24131">
        <ele>99</ele>
        <time>2014-11-03T15:58:25Z</time>
      </trkpt>
      <trkpt lat="44.97559" lon="0.24131">
        <ele>99</ele>
        <time>2014-11-03T15:58:30Z</time>
      </trkpt>
      <trkpt lat="44.97559" lon="0.24131">
        <ele>99</ele>
        <time>2014-11-03T15:58:35Z</time>
      </trkpt>
      <trkpt lat="44.97559" lon="0.24131">
        <ele>99</ele>
        <time>2014-11-03T15:58:40Z</time>
      </trkpt>
      <trkpt lat="44.97559" lon="0.24131">
        <ele>99</ele>
        <time>2014-11-03T15:58:45Z</time>
      </trkpt>
      <trkpt lat="44.97559" lon="0.24131">
        <ele>99</ele>
        <time>2014-11-03T15:58:50Z</time>
      </trkpt>
      <trkpt lat="44.97559" lon="0.24131">
        <ele>99</ele>
        <time>2014-11-03T15:58:55Z</time>
      </trkpt>
      <trkpt lat="44.97559" lon="0.24131">
        <ele>99</ele>
        <time>2014-11-03T15:59:00Z</time>
      </trkpt>
      <trkpt lat="44.97559" lon="0.24131">
        <ele>99</ele>
        <time>2014-11-03T15:59:05Z</time>
      </trkpt>
      <trkpt lat="44.97559" lon="0.24131">
        <ele>99</ele>
        <time>2014-11-03T15:59:10Z</time>
      </trkpt>
      <trkpt lat="44.97559" lon="0.24131">
        <ele>99</ele>
        <time>2014-11-03T15:59:15Z</time>
      </trkpt>
      <trkpt lat="44.97559" lon="0.24131">
        <ele>99</ele>
        <time>2014-11-03T15:59:20Z</time>
      </trkpt>
      <trkpt lat="44.97559" lon="0.24131">
        <ele>99</ele>
        <time>2014-11-03T15:59:25Z</time>
      </trkpt>
      <trkpt lat="44.97559" lon="0.24131">
        <ele>99</ele>
        <time>2014-11-03T15:59:30Z</time>
      </trkpt>
      <trkpt lat="44.97559" lon="0.24131">
        <ele>99</ele>
        <time>2014-11-03T15:59:35Z</time>
      </trkpt>
      <trkpt lat="44.97559" lon="0.24131">
        <ele>99</ele>
        <time>2014-11-03T15:59:40Z</time>
      </trkpt>
      <trkpt lat="44.97559" lon="0.24131">
        <ele>99</ele>
        <time>2014-11-03T15:59:45Z</time>
      </trkpt>
      <trkpt lat="44.97559" lon="0.24131">
        <ele>99</ele>
        <time>2014-11-03T15:59:50Z</time>
      </trkpt>
      <trkpt lat="44.97559" lon="0.24131">
        <ele>99</ele>
        <time>2014-11-03T15:59:55Z</time>
      </trkpt>
      <trkpt lat="44.97559" lon="0.24131">
        <ele>99</ele>
        <time>2014-11-03T16:00:00Z</time>
      </trkpt>
      <trkpt lat="44.97559" lon="0.24131">
        <ele>99</ele>
        <time>2014-11-03T16:00:05Z</time>
      </trkpt>
      <trkpt lat="44.97559" lon="0.24131">
        <ele>99</ele>
        <time>2014-11-03T16:00:10Z</time>
      </trkpt>
      <trkpt lat="44.97559" lon="0.24131">
        <ele>99</ele>
        <time>2014-11-03T16:00:15Z</time>
      </trkpt>
      <trkpt lat="44.97559" lon="0.24131">
        <ele>99</ele>
        <time>2014-11-03T16:00:20Z</time>
      </trkpt>
      <trkpt lat="44.97559" lon="0.24131">
        <ele>99</ele>
        <time>2014-11-03T16:00:25Z</time>
      </trkpt>
      <trkpt lat="44.97559" lon="0.24131">
        <ele>99</ele>
        <time>2014-11-03T16:00:30Z</time>
      </trkpt>
      <trkpt lat="44.97559" lon="0.24135">
        <ele>99</ele>
        <time>2014-11-03T16:00:35Z</time>
      </trkpt>
      <trkpt lat="44.97562" lon="0.24133">
        <ele>99</ele>
        <time>2014-11-03T16:00:40Z</time>
      </trkpt>
      <trkpt lat="44.97562" lon="0.24131">
        <ele>99</ele>
        <time>2014-11-03T16:00:45Z</time>
      </trkpt>
      <trkpt lat="44.97563" lon="0.24131">
        <ele>99</ele>
        <time>2014-11-03T16:00:50Z</time>
      </trkpt>
      <trkpt lat="44.97566" lon="0.24135">
        <ele>99</ele>
        <time>2014-11-03T16:00:55Z</time>
      </trkpt>
      <trkpt lat="44.97564" lon="0.24137">
        <ele>99</ele>
        <time>2014-11-03T16:01:00Z</time>
      </trkpt>
      <trkpt lat="44.97562" lon="0.24141">
        <ele>99</ele>
        <time>2014-11-03T16:01:05Z</time>
      </trkpt>
      <trkpt lat="44.97562" lon="0.24142">
        <ele>99</ele>
        <time>2014-11-03T16:01:10Z</time>
      </trkpt>
      <trkpt lat="44.97562" lon="0.24142">
        <ele>99</ele>
        <time>2014-11-03T16:01:15Z</time>
      </trkpt>
      <trkpt lat="44.97562" lon="0.24142">
        <ele>99</ele>
        <time>2014-11-03T16:01:20Z</time>
      </trkpt>
      <trkpt lat="44.97561" lon="0.24142">
        <ele>99</ele>
        <time>2014-11-03T16:01:25Z</time>
      </trkpt>
      <trkpt lat="44.97561" lon="0.24142">
        <ele>99</ele>
        <time>2014-11-03T16:01:30Z</time>
      </trkpt>
      <trkpt lat="44.97561" lon="0.24142">
        <ele>99</ele>
        <time>2014-11-03T16:01:35Z</time>
      </trkpt>
      <trkpt lat="44.97561" lon="0.24142">
        <ele>99</ele>
        <time>2014-11-03T16:01:40Z</time>
      </trkpt>
      <trkpt lat="44.97561" lon="0.24142">
        <ele>99</ele>
        <time>2014-11-03T16:01:45Z</time>
      </trkpt>
      <trkpt lat="44.97561" lon="0.24142">
        <ele>99</ele>
        <time>2014-11-03T16:01:51Z</time>
      </trkpt>
      <trkpt lat="44.97561" lon="0.24142">
        <ele>99</ele>
        <time>2014-11-03T16:01:56Z</time>
      </trkpt>
      <trkpt lat="44.97561" lon="0.24142">
        <ele>99</ele>
        <time>2014-11-03T16:02:01Z</time>
      </trkpt>
      <trkpt lat="44.97561" lon="0.24142">
        <ele>99</ele>
        <time>2014-11-03T16:02:06Z</time>
      </trkpt>
      <trkpt lat="44.97562" lon="0.24142">
        <ele>99</ele>
        <time>2014-11-03T16:02:10Z</time>
      </trkpt>
      <trkpt lat="44.9756" lon="0.24147">
        <ele>99</ele>
        <time>2014-11-03T16:02:15Z</time>
      </trkpt>
      <trkpt lat="44.9756" lon="0.24156">
        <ele>98</ele>
        <time>2014-11-03T16:02:20Z</time>
      </trkpt>
      <trkpt lat="44.97555" lon="0.24164">
        <ele>98</ele>
        <time>2014-11-03T16:02:25Z</time>
      </trkpt>
      <trkpt lat="44.9755" lon="0.24164">
        <ele>98</ele>
        <time>2014-11-03T16:02:30Z</time>
      </trkpt>
      <trkpt lat="44.97545" lon="0.24163">
        <ele>98</ele>
        <time>2014-11-03T16:02:35Z</time>
      </trkpt>
      <trkpt lat="44.9754" lon="0.24162">
        <ele>98</ele>
        <time>2014-11-03T16:02:40Z</time>
      </trkpt>
      <trkpt lat="44.97534" lon="0.24163">
        <ele>98</ele>
        <time>2014-11-03T16:02:45Z</time>
      </trkpt>
      <trkpt lat="44.97528" lon="0.24164">
        <ele>98</ele>
        <time>2014-11-03T16:02:50Z</time>
      </trkpt>
      <trkpt lat="44.97524" lon="0.24163">
        <ele>98</ele>
        <time>2014-11-03T16:02:55Z</time>
      </trkpt>
      <trkpt lat="44.97521" lon="0.2416">
        <ele>98</ele>
        <time>2014-11-03T16:03:00Z</time>
      </trkpt>
      <trkpt lat="44.97516" lon="0.24162">
        <ele>98</ele>
        <time>2014-11-03T16:03:05Z</time>
      </trkpt>
      <trkpt lat="44.9751" lon="0.24159">
        <ele>99</ele>
        <time>2014-11-03T16:03:10Z</time>
      </trkpt>
      <trkpt lat="44.97505" lon="0.24162">
        <ele>99</ele>
        <time>2014-11-03T16:03:15Z</time>
      </trkpt>
      <trkpt lat="44.975" lon="0.24161">
        <ele>99</ele>
        <time>2014-11-03T16:03:20Z</time>
      </trkpt>
      <trkpt lat="44.97497" lon="0.24161">
        <ele>99</ele>
        <time>2014-11-03T16:03:25Z</time>
      </trkpt>
      <trkpt lat="44.97493" lon="0.2416">
        <ele>99</ele>
        <time>2014-11-03T16:03:30Z</time>
      </trkpt>
      <trkpt lat="44.9749" lon="0.24161">
        <ele>99</ele>
        <time>2014-11-03T16:03:35Z</time>
      </trkpt>
      <trkpt lat="44.97484" lon="0.24159">
        <ele>101</ele>
        <time>2014-11-03T16:03:40Z</time>
      </trkpt>
      <trkpt lat="44.97479" lon="0.24161">
        <ele>101</ele>
        <time>2014-11-03T16:03:45Z</time>
      </trkpt>
      <trkpt lat="44.97473" lon="0.24158">
        <ele>101</ele>
        <time>2014-11-03T16:03:50Z</time>
      </trkpt>
      <trkpt lat="44.9747" lon="0.24158">
        <ele>101</ele>
        <time>2014-11-03T16:03:55Z</time>
      </trkpt>
      <trkpt lat="44.97466" lon="0.24156">
        <ele>101</ele>
        <time>2014-11-03T16:04:00Z</time>
      </trkpt>
      <trkpt lat="44.97461" lon="0.24155">
        <ele>101</ele>
        <time>2014-11-03T16:04:05Z</time>
      </trkpt>
      <trkpt lat="44.97457" lon="0.24156">
        <ele>102</ele>
        <time>2014-11-03T16:04:10Z</time>
      </trkpt>
      <trkpt lat="44.97451" lon="0.24156">
        <ele>102</ele>
        <time>2014-11-03T16:04:15Z</time>
      </trkpt>
      <trkpt lat="44.97446" lon="0.24157">
        <ele>102</ele>
        <time>2014-11-03T16:04:20Z</time>
      </trkpt>
      <trkpt lat="44.9744" lon="0.24156">
        <ele>102</ele>
        <time>2014-11-03T16:04:25Z</time>
      </trkpt>
      <trkpt lat="44.97434" lon="0.24156">
        <ele>102</ele>
        <time>2014-11-03T16:04:30Z</time>
      </trkpt>
      <trkpt lat="44.97429" lon="0.24153">
        <ele>104</ele>
        <time>2014-11-03T16:04:35Z</time>
      </trkpt>
      <trkpt lat="44.97422" lon="0.24151">
        <ele>104</ele>
        <time>2014-11-03T16:04:40Z</time>
      </trkpt>
      <trkpt lat="44.97415" lon="0.24152">
        <ele>104</ele>
        <time>2014-11-03T16:04:45Z</time>
      </trkpt>
      <trkpt lat="44.9741" lon="0.2415">
        <ele>104</ele>
        <time>2014-11-03T16:04:50Z</time>
      </trkpt>
      <trkpt lat="44.97406" lon="0.2415">
        <ele>104</ele>
        <time>2014-11-03T16:04:55Z</time>
      </trkpt>
      <trkpt lat="44.97402" lon="0.24152">
        <ele>104</ele>
        <time>2014-11-03T16:05:00Z</time>
      </trkpt>
      <trkpt lat="44.97398" lon="0.24152">
        <ele>104</ele>
        <time>2014-11-03T16:05:05Z</time>
      </trkpt>
      <trkpt lat="44.97395" lon="0.2415">
        <ele>104</ele>
        <time>2014-11-03T16:05:10Z</time>
      </trkpt>
      <trkpt lat="44.9739" lon="0.2415">
        <ele>104</ele>
        <time>2014-11-03T16:05:15Z</time>
      </trkpt>
      <trkpt lat="44.97384" lon="0.2415">
        <ele>104</ele>
        <time>2014-11-03T16:05:20Z</time>
      </trkpt>
      <trkpt lat="44.97381" lon="0.24149">
        <ele>104</ele>
        <time>2014-11-03T16:05:25Z</time>
      </trkpt>
      <trkpt lat="44.97378" lon="0.24151">
        <ele>104</ele>
        <time>2014-11-03T16:05:30Z</time>
      </trkpt>
      <trkpt lat="44.97375" lon="0.24151">
        <ele>104</ele>
        <time>2014-11-03T16:05:35Z</time>
      </trkpt>
      <trkpt lat="44.9737" lon="0.24151">
        <ele>104</ele>
        <time>2014-11-03T16:05:40Z</time>
      </trkpt>
      <trkpt lat="44.97364" lon="0.24151">
        <ele>104</ele>
        <time>2014-11-03T16:05:45Z</time>
      </trkpt>
      <trkpt lat="44.97357" lon="0.24149">
        <ele>104</ele>
        <time>2014-11-03T16:05:50Z</time>
      </trkpt>
      <trkpt lat="44.97352" lon="0.24146">
        <ele>104</ele>
        <time>2014-11-03T16:05:55Z</time>
      </trkpt>
      <trkpt lat="44.97345" lon="0.24142">
        <ele>106</ele>
        <time>2014-11-03T16:06:00Z</time>
      </trkpt>
      <trkpt lat="44.9734" lon="0.24141">
        <ele>106</ele>
        <time>2014-11-03T16:06:05Z</time>
      </trkpt>
      <trkpt lat="44.97336" lon="0.24142">
        <ele>106</ele>
        <time>2014-11-03T16:06:10Z</time>
      </trkpt>
      <trkpt lat="44.97332" lon="0.24141">
        <ele>106</ele>
        <time>2014-11-03T16:06:15Z</time>
      </trkpt>
      <trkpt lat="44.97327" lon="0.2414">
        <ele>106</ele>
        <time>2014-11-03T16:06:20Z</time>
      </trkpt>
      <trkpt lat="44.97321" lon="0.24134">
        <ele>106</ele>
        <time>2014-11-03T16:06:25Z</time>
      </trkpt>
      <trkpt lat="44.97315" lon="0.2413">
        <ele>108</ele>
        <time>2014-11-03T16:06:30Z</time>
      </trkpt>
      <trkpt lat="44.97315" lon="0.2413">
        <ele>108</ele>
        <time>2014-11-03T16:06:35Z</time>
      </trkpt>
      <trkpt lat="44.97313" lon="0.24129">
        <ele>108</ele>
        <time>2014-11-03T16:06:40Z</time>
      </trkpt>
      <trkpt lat="44.9731" lon="0.24127">
        <ele>108</ele>
        <time>2014-11-03T16:06:45Z</time>
      </trkpt>
      <trkpt lat="44.97306" lon="0.24122">
        <ele>109</ele>
        <time>2014-11-03T16:06:50Z</time>
      </trkpt>
      <trkpt lat="44.97303" lon="0.24116">
        <ele>109</ele>
        <time>2014-11-03T16:06:55Z</time>
      </trkpt>
      <trkpt lat="44.97296" lon="0.24109">
        <ele>109</ele>
        <time>2014-11-03T16:07:00Z</time>
      </trkpt>
      <trkpt lat="44.97292" lon="0.241">
        <ele>109</ele>
        <time>2014-11-03T16:07:05Z</time>
      </trkpt>
      <trkpt lat="44.9729" lon="0.24097">
        <ele>110</ele>
        <time>2014-11-03T16:07:10Z</time>
      </trkpt>
      <trkpt lat="44.97288" lon="0.24093">
        <ele>110</ele>
        <time>2014-11-03T16:07:15Z</time>
      </trkpt>
      <trkpt lat="44.97284" lon="0.24086">
        <ele>110</ele>
        <time>2014-11-03T16:07:20Z</time>
      </trkpt>
      <trkpt lat="44.9728" lon="0.2408">
        <ele>110</ele>
        <time>2014-11-03T16:07:25Z</time>
      </trkpt>
      <trkpt lat="44.97274" lon="0.24073">
        <ele>110</ele>
        <time>2014-11-03T16:07:30Z</time>
      </trkpt>
      <trkpt lat="44.97268" lon="0.24067">
        <ele>109</ele>
        <time>2014-11-03T16:07:35Z</time>
      </trkpt>
      <trkpt lat="44.97265" lon="0.24059">
        <ele>109</ele>
        <time>2014-11-03T16:07:40Z</time>
      </trkpt>
      <trkpt lat="44.97262" lon="0.24055">
        <ele>110</ele>
        <time>2014-11-03T16:07:45Z</time>
      </trkpt>
      <trkpt lat="44.9726" lon="0.24052">
        <ele>110</ele>
        <time>2014-11-03T16:07:50Z</time>
      </trkpt>
      <trkpt lat="44.97256" lon="0.24045">
        <ele>110</ele>
        <time>2014-11-03T16:07:55Z</time>
      </trkpt>
      <trkpt lat="44.97254" lon="0.24034">
        <ele>110</ele>
        <time>2014-11-03T16:08:00Z</time>
      </trkpt>
      <trkpt lat="44.97253" lon="0.2403">
        <ele>110</ele>
        <time>2014-11-03T16:08:05Z</time>
      </trkpt>
      <trkpt lat="44.9725" lon="0.24024">
        <ele>110</ele>
        <time>2014-11-03T16:08:10Z</time>
      </trkpt>
      <trkpt lat="44.97246" lon="0.2402">
        <ele>110</ele>
        <time>2014-11-03T16:08:15Z</time>
      </trkpt>
      <trkpt lat="44.97242" lon="0.24015">
        <ele>110</ele>
        <time>2014-11-03T16:08:20Z</time>
      </trkpt>
      <trkpt lat="44.97237" lon="0.24012">
        <ele>108</ele>
        <time>2014-11-03T16:08:25Z</time>
      </trkpt>
      <trkpt lat="44.97233" lon="0.24005">
        <ele>110</ele>
        <time>2014-11-03T16:08:30Z</time>
      </trkpt>
      <trkpt lat="44.97229" lon="0.24001">
        <ele>110</ele>
        <time>2014-11-03T16:08:35Z</time>
      </trkpt>
      <trkpt lat="44.97228" lon="0.23997">
        <ele>110</ele>
        <time>2014-11-03T16:08:40Z</time>
      </trkpt>
      <trkpt lat="44.97225" lon="0.23991">
        <ele>110</ele>
        <time>2014-11-03T16:08:45Z</time>
      </trkpt>
      <trkpt lat="44.97223" lon="0.23988">
        <ele>110</ele>
        <time>2014-11-03T16:08:50Z</time>
      </trkpt>
      <trkpt lat="44.97221" lon="0.23982">
        <ele>108</ele>
        <time>2014-11-03T16:08:55Z</time>
      </trkpt>
      <trkpt lat="44.97219" lon="0.23976">
        <ele>108</ele>
        <time>2014-11-03T16:09:00Z</time>
      </trkpt>
      <trkpt lat="44.97217" lon="0.23972">
        <ele>108</ele>
        <time>2014-11-03T16:09:05Z</time>
      </trkpt>
      <trkpt lat="44.97212" lon="0.2397">
        <ele>108</ele>
        <time>2014-11-03T16:09:10Z</time>
      </trkpt>
      <trkpt lat="44.97207" lon="0.23967">
        <ele>109</ele>
        <time>2014-11-03T16:09:15Z</time>
      </trkpt>
      <trkpt lat="44.97205" lon="0.23961">
        <ele>109</ele>
        <time>2014-11-03T16:09:20Z</time>
      </trkpt>
      <trkpt lat="44.972" lon="0.23955">
        <ele>108</ele>
        <time>2014-11-03T16:09:25Z</time>
      </trkpt>
      <trkpt lat="44.97196" lon="0.23952">
        <ele>108</ele>
        <time>2014-11-03T16:09:30Z</time>
      </trkpt>
      <trkpt lat="44.97193" lon="0.23949">
        <ele>108</ele>
        <time>2014-11-03T16:09:35Z</time>
      </trkpt>
      <trkpt lat="44.97191" lon="0.23946">
        <ele>108</ele>
        <time>2014-11-03T16:09:40Z</time>
      </trkpt>
      <trkpt lat="44.97189" lon="0.23938">
        <ele>108</ele>
        <time>2014-11-03T16:09:45Z</time>
      </trkpt>
      <trkpt lat="44.97187" lon="0.2393">
        <ele>109</ele>
        <time>2014-11-03T16:09:50Z</time>
      </trkpt>
      <trkpt lat="44.97186" lon="0.23925">
        <ele>109</ele>
        <time>2014-11-03T16:09:55Z</time>
      </trkpt>
      <trkpt lat="44.97185" lon="0.23918">
        <ele>109</ele>
        <time>2014-11-03T16:10:00Z</time>
      </trkpt>
      <trkpt lat="44.97186" lon="0.23912">
        <ele>109</ele>
        <time>2014-11-03T16:10:05Z</time>
      </trkpt>
      <trkpt lat="44.97192" lon="0.23906">
        <ele>109</ele>
        <time>2014-11-03T16:10:10Z</time>
      </trkpt>
      <trkpt lat="44.97197" lon="0.23899">
        <ele>110</ele>
        <time>2014-11-03T16:10:15Z</time>
      </trkpt>
      <trkpt lat="44.97201" lon="0.23894">
        <ele>110</ele>
        <time>2014-11-03T16:10:20Z</time>
      </trkpt>
      <trkpt lat="44.97202" lon="0.23888">
        <ele>110</ele>
        <time>2014-11-03T16:10:25Z</time>
      </trkpt>
      <trkpt lat="44.97204" lon="0.23883">
        <ele>110</ele>
        <time>2014-11-03T16:10:30Z</time>
      </trkpt>
      <trkpt lat="44.97211" lon="0.23876">
        <ele>109</ele>
        <time>2014-11-03T16:10:35Z</time>
      </trkpt>
      <trkpt lat="44.97215" lon="0.2387">
        <ele>110</ele>
        <time>2014-11-03T16:10:40Z</time>
      </trkpt>
      <trkpt lat="44.97222" lon="0.23864">
        <ele>110</ele>
        <time>2014-11-03T16:10:45Z</time>
      </trkpt>
      <trkpt lat="44.9723" lon="0.2386">
        <ele>110</ele>
        <time>2014-11-03T16:10:50Z</time>
      </trkpt>
      <trkpt lat="44.97231" lon="0.23853">
        <ele>110</ele>
        <time>2014-11-03T16:10:55Z</time>
      </trkpt>
      <trkpt lat="44.97225" lon="0.23845">
        <ele>111</ele>
        <time>2014-11-03T16:11:00Z</time>
      </trkpt>
      <trkpt lat="44.97231" lon="0.2384">
        <ele>111</ele>
        <time>2014-11-03T16:11:05Z</time>
      </trkpt>
      <trkpt lat="44.97237" lon="0.23836">
        <ele>110</ele>
        <time>2014-11-03T16:11:10Z</time>
      </trkpt>
      <trkpt lat="44.9724" lon="0.23829">
        <ele>110</ele>
        <time>2014-11-03T16:11:15Z</time>
      </trkpt>
      <trkpt lat="44.97241" lon="0.23823">
        <ele>110</ele>
        <time>2014-11-03T16:11:20Z</time>
      </trkpt>
      <trkpt lat="44.97241" lon="0.23818">
        <ele>112</ele>
        <time>2014-11-03T16:11:25Z</time>
      </trkpt>
      <trkpt lat="44.97244" lon="0.23811">
        <ele>112</ele>
        <time>2014-11-03T16:11:30Z</time>
      </trkpt>
      <trkpt lat="44.97249" lon="0.23805">
        <ele>112</ele>
        <time>2014-11-03T16:11:35Z</time>
      </trkpt>
      <trkpt lat="44.97253" lon="0.23798">
        <ele>112</ele>
        <time>2014-11-03T16:11:40Z</time>
      </trkpt>
      <trkpt lat="44.97251" lon="0.23789">
        <ele>112</ele>
        <time>2014-11-03T16:11:45Z</time>
      </trkpt>
      <trkpt lat="44.97253" lon="0.23781">
        <ele>112</ele>
        <time>2014-11-03T16:11:50Z</time>
      </trkpt>
      <trkpt lat="44.97254" lon="0.23774">
        <ele>112</ele>
        <time>2014-11-03T16:11:55Z</time>
      </trkpt>
      <trkpt lat="44.97257" lon="0.23771">
        <ele>112</ele>
        <time>2014-11-03T16:12:00Z</time>
      </trkpt>
      <trkpt lat="44.97262" lon="0.2377">
        <ele>112</ele>
        <time>2014-11-03T16:12:05Z</time>
      </trkpt>
      <trkpt lat="44.97267" lon="0.23765">
        <ele>108</ele>
        <time>2014-11-03T16:12:10Z</time>
      </trkpt>
      <trkpt lat="44.97266" lon="0.23756">
        <ele>107</ele>
        <time>2014-11-03T16:12:15Z</time>
      </trkpt>
      <trkpt lat="44.97267" lon="0.23747">
        <ele>107</ele>
        <time>2014-11-03T16:12:20Z</time>
      </trkpt>
      <trkpt lat="44.97269" lon="0.23738">
        <ele>107</ele>
        <time>2014-11-03T16:12:25Z</time>
      </trkpt>
      <trkpt lat="44.97273" lon="0.23726">
        <ele>108</ele>
        <time>2014-11-03T16:12:30Z</time>
      </trkpt>
      <trkpt lat="44.97278" lon="0.23717">
        <ele>108</ele>
        <time>2014-11-03T16:12:35Z</time>
      </trkpt>
      <trkpt lat="44.97281" lon="0.23709">
        <ele>108</ele>
        <time>2014-11-03T16:12:40Z</time>
      </trkpt>
      <trkpt lat="44.97279" lon="0.23703">
        <ele>108</ele>
        <time>2014-11-03T16:12:45Z</time>
      </trkpt>
      <trkpt lat="44.97271" lon="0.23696">
        <ele>108</ele>
        <time>2014-11-03T16:12:50Z</time>
      </trkpt>
      <trkpt lat="44.97266" lon="0.23688">
        <ele>108</ele>
        <time>2014-11-03T16:12:55Z</time>
      </trkpt>
      <trkpt lat="44.97262" lon="0.2368">
        <ele>107</ele>
        <time>2014-11-03T16:13:01Z</time>
      </trkpt>
      <trkpt lat="44.9726" lon="0.23675">
        <ele>107</ele>
        <time>2014-11-03T16:13:05Z</time>
      </trkpt>
      <trkpt lat="44.97257" lon="0.23668">
        <ele>107</ele>
        <time>2014-11-03T16:13:10Z</time>
      </trkpt>
      <trkpt lat="44.97254" lon="0.23662">
        <ele>107</ele>
        <time>2014-11-03T16:13:15Z</time>
      </trkpt>
      <trkpt lat="44.9725" lon="0.23656">
        <ele>107</ele>
        <time>2014-11-03T16:13:20Z</time>
      </trkpt>
      <trkpt lat="44.97247" lon="0.23648">
        <ele>105</ele>
        <time>2014-11-03T16:13:25Z</time>
      </trkpt>
      <trkpt lat="44.97243" lon="0.23641">
        <ele>105</ele>
        <time>2014-11-03T16:13:30Z</time>
      </trkpt>
      <trkpt lat="44.9724" lon="0.23633">
        <ele>105</ele>
        <time>2014-11-03T16:13:35Z</time>
      </trkpt>
      <trkpt lat="44.97239" lon="0.23625">
        <ele>105</ele>
        <time>2014-11-03T16:13:40Z</time>
      </trkpt>
      <trkpt lat="44.97238" lon="0.23618">
        <ele>105</ele>
        <time>2014-11-03T16:13:45Z</time>
      </trkpt>
      <trkpt lat="44.97236" lon="0.23612">
        <ele>105</ele>
        <time>2014-11-03T16:13:50Z</time>
      </trkpt>
      <trkpt lat="44.97234" lon="0.23606">
        <ele>105</ele>
        <time>2014-11-03T16:13:55Z</time>
      </trkpt>
      <trkpt lat="44.97233" lon="0.23599">
        <ele>105</ele>
        <time>2014-11-03T16:14:00Z</time>
      </trkpt>
      <trkpt lat="44.97232" lon="0.23593">
        <ele>105</ele>
        <time>2014-11-03T16:14:05Z</time>
      </trkpt>
      <trkpt lat="44.97231" lon="0.23583">
        <ele>105</ele>
        <time>2014-11-03T16:14:10Z</time>
      </trkpt>
      <trkpt lat="44.97229" lon="0.23577">
        <ele>105</ele>
        <time>2014-11-03T16:14:15Z</time>
      </trkpt>
      <trkpt lat="44.97228" lon="0.23569">
        <ele>106</ele>
        <time>2014-11-03T16:14:20Z</time>
      </trkpt>
      <trkpt lat="44.97225" lon="0.23564">
        <ele>106</ele>
        <time>2014-11-03T16:14:25Z</time>
      </trkpt>
      <trkpt lat="44.97222" lon="0.23558">
        <ele>106</ele>
        <time>2014-11-03T16:14:30Z</time>
      </trkpt>
      <trkpt lat="44.97219" lon="0.23552">
        <ele>106</ele>
        <time>2014-11-03T16:14:35Z</time>
      </trkpt>
      <trkpt lat="44.97218" lon="0.23544">
        <ele>106</ele>
        <time>2014-11-03T16:14:40Z</time>
      </trkpt>
      <trkpt lat="44.97217" lon="0.23537">
        <ele>107</ele>
        <time>2014-11-03T16:14:45Z</time>
      </trkpt>
      <trkpt lat="44.97215" lon="0.2353">
        <ele>107</ele>
        <time>2014-11-03T16:14:50Z</time>
      </trkpt>
      <trkpt lat="44.97214" lon="0.23524">
        <ele>107</ele>
        <time>2014-11-03T16:14:55Z</time>
      </trkpt>
      <trkpt lat="44.97212" lon="0.23518">
        <ele>107</ele>
        <time>2014-11-03T16:15:00Z</time>
      </trkpt>
      <trkpt lat="44.97209" lon="0.23512">
        <ele>107</ele>
        <time>2014-11-03T16:15:05Z</time>
      </trkpt>
      <trkpt lat="44.97207" lon="0.23506">
        <ele>108</ele>
        <time>2014-11-03T16:15:10Z</time>
      </trkpt>
      <trkpt lat="44.97206" lon="0.235">
        <ele>108</ele>
        <time>2014-11-03T16:15:15Z</time>
      </trkpt>
      <trkpt lat="44.972" lon="0.23493">
        <ele>108</ele>
        <time>2014-11-03T16:15:20Z</time>
      </trkpt>
      <trkpt lat="44.97196" lon="0.23486">
        <ele>108</ele>
        <time>2014-11-03T16:15:25Z</time>
      </trkpt>
      <trkpt lat="44.97192" lon="0.2348">
        <ele>108</ele>
        <time>2014-11-03T16:15:30Z</time>
      </trkpt>
      <trkpt lat="44.97188" lon="0.23473">
        <ele>108</ele>
        <time>2014-11-03T16:15:35Z</time>
      </trkpt>
      <trkpt lat="44.97183" lon="0.23467">
        <ele>108</ele>
        <time>2014-11-03T16:15:40Z</time>
      </trkpt>
      <trkpt lat="44.97178" lon="0.2346">
        <ele>110</ele>
        <time>2014-11-03T16:15:45Z</time>
      </trkpt>
      <trkpt lat="44.97174" lon="0.23455">
        <ele>109</ele>
        <time>2014-11-03T16:15:50Z</time>
      </trkpt>
      <trkpt lat="44.9717" lon="0.23453">
        <ele>109</ele>
        <time>2014-11-03T16:15:55Z</time>
      </trkpt>
      <trkpt lat="44.97166" lon="0.23447">
        <ele>109</ele>
        <time>2014-11-03T16:16:01Z</time>
      </trkpt>
      <trkpt lat="44.97161" lon="0.23441">
        <ele>109</ele>
        <time>2014-11-03T16:16:05Z</time>
      </trkpt>
      <trkpt lat="44.97157" lon="0.23437">
        <ele>109</ele>
        <time>2014-11-03T16:16:10Z</time>
      </trkpt>
      <trkpt lat="44.97153" lon="0.23438">
        <ele>109</ele>
        <time>2014-11-03T16:16:15Z</time>
      </trkpt>
      <trkpt lat="44.97148" lon="0.23438">
        <ele>109</ele>
        <time>2014-11-03T16:16:21Z</time>
      </trkpt>
      <trkpt lat="44.97142" lon="0.23436">
        <ele>109</ele>
        <time>2014-11-03T16:16:25Z</time>
      </trkpt>
      <trkpt lat="44.97136" lon="0.23433">
        <ele>109</ele>
        <time>2014-11-03T16:16:30Z</time>
      </trkpt>
      <trkpt lat="44.97132" lon="0.23432">
        <ele>109</ele>
        <time>2014-11-03T16:16:35Z</time>
      </trkpt>
      <trkpt lat="44.97128" lon="0.23429">
        <ele>109</ele>
        <time>2014-11-03T16:16:40Z</time>
      </trkpt>
      <trkpt lat="44.97123" lon="0.23425">
        <ele>108</ele>
        <time>2014-11-03T16:16:46Z</time>
      </trkpt>
      <trkpt lat="44.97121" lon="0.2342">
        <ele>108</ele>
        <time>2014-11-03T16:16:52Z</time>
      </trkpt>
      <trkpt lat="44.97118" lon="0.23419">
        <ele>108</ele>
        <time>2014-11-03T16:16:55Z</time>
      </trkpt>
      <trkpt lat="44.97111" lon="0.23417">
        <ele>108</ele>
        <time>2014-11-03T16:17:00Z</time>
      </trkpt>
      <trkpt lat="44.97105" lon="0.23412">
        <ele>108</ele>
        <time>2014-11-03T16:17:05Z</time>
      </trkpt>
      <trkpt lat="44.97099" lon="0.2341">
        <ele>108</ele>
        <time>2014-11-03T16:17:10Z</time>
      </trkpt>
      <trkpt lat="44.97095" lon="0.23407">
        <ele>105</ele>
        <time>2014-11-03T16:17:15Z</time>
      </trkpt>
      <trkpt lat="44.97094" lon="0.23405">
        <ele>105</ele>
        <time>2014-11-03T16:17:20Z</time>
      </trkpt>
      <trkpt lat="44.97098" lon="0.234">
        <ele>107</ele>
        <time>2014-11-03T16:17:25Z</time>
      </trkpt>
      <trkpt lat="44.97101" lon="0.23404">
        <ele>108</ele>
        <time>2014-11-03T16:17:30Z</time>
      </trkpt>
      <trkpt lat="44.971" lon="0.23409">
        <ele>108</ele>
        <time>2014-11-03T16:17:35Z</time>
      </trkpt>
      <trkpt lat="44.97097" lon="0.23411">
        <ele>105</ele>
        <time>2014-11-03T16:17:40Z</time>
      </trkpt>
      <trkpt lat="44.97096" lon="0.23417">
        <ele>105</ele>
        <time>2014-11-03T16:17:45Z</time>
      </trkpt>
      <trkpt lat="44.97091" lon="0.23407">
        <ele>105</ele>
        <time>2014-11-03T16:17:50Z</time>
      </trkpt>
      <trkpt lat="44.97092" lon="0.23406">
        <ele>105</ele>
        <time>2014-11-03T16:17:55Z</time>
      </trkpt>
      <trkpt lat="44.97096" lon="0.23406">
        <ele>105</ele>
        <time>2014-11-03T16:18:00Z</time>
      </trkpt>
      <trkpt lat="44.97098" lon="0.23406">
        <ele>108</ele>
        <time>2014-11-03T16:18:05Z</time>
      </trkpt>
      <trkpt lat="44.97098" lon="0.23406">
        <ele>108</ele>
        <time>2014-11-03T16:18:10Z</time>
      </trkpt>
      <trkpt lat="44.97098" lon="0.23406">
        <ele>108</ele>
        <time>2014-11-03T16:18:15Z</time>
      </trkpt>
      <trkpt lat="44.97099" lon="0.23406">
        <ele>108</ele>
        <time>2014-11-03T16:18:20Z</time>
      </trkpt>
      <trkpt lat="44.97099" lon="0.23407">
        <ele>108</ele>
        <time>2014-11-03T16:18:25Z</time>
      </trkpt>
      <trkpt lat="44.97099" lon="0.23407">
        <ele>108</ele>
        <time>2014-11-03T16:18:30Z</time>
      </trkpt>
      <trkpt lat="44.97099" lon="0.23407">
        <ele>108</ele>
        <time>2014-11-03T16:18:35Z</time>
      </trkpt>
      <trkpt lat="44.97099" lon="0.23407">
        <ele>108</ele>
        <time>2014-11-03T16:18:40Z</time>
      </trkpt>
      <trkpt lat="44.97099" lon="0.23406">
        <ele>108</ele>
        <time>2014-11-03T16:18:45Z</time>
      </trkpt>
      <trkpt lat="44.971" lon="0.23406">
        <ele>108</ele>
        <time>2014-11-03T16:18:50Z</time>
      </trkpt>
      <trkpt lat="44.971" lon="0.23406">
        <ele>108</ele>
        <time>2014-11-03T16:18:55Z</time>
      </trkpt>
      <trkpt lat="44.971" lon="0.23406">
        <ele>108</ele>
        <time>2014-11-03T16:19:00Z</time>
      </trkpt>
      <trkpt lat="44.971" lon="0.23406">
        <ele>108</ele>
        <time>2014-11-03T16:19:05Z</time>
      </trkpt>
      <trkpt lat="44.971" lon="0.23406">
        <ele>108</ele>
        <time>2014-11-03T16:19:10Z</time>
      </trkpt>
      <trkpt lat="44.971" lon="0.23406">
        <ele>108</ele>
        <time>2014-11-03T16:19:15Z</time>
      </trkpt>
      <trkpt lat="44.97099" lon="0.23406">
        <ele>108</ele>
        <time>2014-11-03T16:19:20Z</time>
      </trkpt>
      <trkpt lat="44.97099" lon="0.23406">
        <ele>108</ele>
        <time>2014-11-03T16:19:25Z</time>
      </trkpt>
      <trkpt lat="44.97099" lon="0.23406">
        <ele>108</ele>
        <time>2014-11-03T16:19:30Z</time>
      </trkpt>
      <trkpt lat="44.97099" lon="0.23406">
        <ele>108</ele>
        <time>2014-11-03T16:19:36Z</time>
      </trkpt>
      <trkpt lat="44.97099" lon="0.23407">
        <ele>108</ele>
        <time>2014-11-03T16:19:40Z</time>
      </trkpt>
      <trkpt lat="44.97096" lon="0.23407">
        <ele>105</ele>
        <time>2014-11-03T16:19:45Z</time>
      </trkpt>
      <trkpt lat="44.97089" lon="0.23404">
        <ele>105</ele>
        <time>2014-11-03T16:19:52Z</time>
      </trkpt>
      <trkpt lat="44.97087" lon="0.23402">
        <ele>106</ele>
        <time>2014-11-03T16:19:55Z</time>
      </trkpt>
      <trkpt lat="44.97077" lon="0.23397">
        <ele>106</ele>
        <time>2014-11-03T16:20:00Z</time>
      </trkpt>
      <trkpt lat="44.9707" lon="0.23393">
        <ele>106</ele>
        <time>2014-11-03T16:20:05Z</time>
      </trkpt>
      <trkpt lat="44.97066" lon="0.23391">
        <ele>106</ele>
        <time>2014-11-03T16:20:10Z</time>
      </trkpt>
      <trkpt lat="44.97061" lon="0.23385">
        <ele>106</ele>
        <time>2014-11-03T16:20:16Z</time>
      </trkpt>
      <trkpt lat="44.97056" lon="0.23379">
        <ele>106</ele>
        <time>2014-11-03T16:20:21Z</time>
      </trkpt>
      <trkpt lat="44.97051" lon="0.23374">
        <ele>107</ele>
        <time>2014-11-03T16:20:26Z</time>
      </trkpt>
      <trkpt lat="44.97047" lon="0.23372">
        <ele>107</ele>
        <time>2014-11-03T16:20:30Z</time>
      </trkpt>
      <trkpt lat="44.97044" lon="0.23366">
        <ele>107</ele>
        <time>2014-11-03T16:20:35Z</time>
      </trkpt>
      <trkpt lat="44.9704" lon="0.23362">
        <ele>106</ele>
        <time>2014-11-03T16:20:41Z</time>
      </trkpt>
      <trkpt lat="44.97036" lon="0.23356">
        <ele>106</ele>
        <time>2014-11-03T16:20:46Z</time>
      </trkpt>
      <trkpt lat="44.97033" lon="0.23353">
        <ele>106</ele>
        <time>2014-11-03T16:20:50Z</time>
      </trkpt>
      <trkpt lat="44.97028" lon="0.23347">
        <ele>106</ele>
        <time>2014-11-03T16:20:56Z</time>
      </trkpt>
      <trkpt lat="44.97025" lon="0.23341">
        <ele>106</ele>
        <time>2014-11-03T16:21:00Z</time>
      </trkpt>
      <trkpt lat="44.97018" lon="0.23335">
        <ele>106</ele>
        <time>2014-11-03T16:21:06Z</time>
      </trkpt>
      <trkpt lat="44.97016" lon="0.23329">
        <ele>106</ele>
        <time>2014-11-03T16:21:10Z</time>
      </trkpt>
      <trkpt lat="44.97013" lon="0.23321">
        <ele>103</ele>
        <time>2014-11-03T16:21:15Z</time>
      </trkpt>
      <trkpt lat="44.97009" lon="0.23318">
        <ele>103</ele>
        <time>2014-11-03T16:21:21Z</time>
      </trkpt>
      <trkpt lat="44.97004" lon="0.23313">
        <ele>103</ele>
        <time>2014-11-03T16:21:26Z</time>
      </trkpt>
      <trkpt lat="44.96999" lon="0.23308">
        <ele>103</ele>
        <time>2014-11-03T16:21:32Z</time>
      </trkpt>
      <trkpt lat="44.96997" lon="0.23305">
        <ele>103</ele>
        <time>2014-11-03T16:21:35Z</time>
      </trkpt>
      <trkpt lat="44.96992" lon="0.23301">
        <ele>103</ele>
        <time>2014-11-03T16:21:40Z</time>
      </trkpt>
      <trkpt lat="44.96988" lon="0.23298">
        <ele>103</ele>
        <time>2014-11-03T16:21:45Z</time>
      </trkpt>
      <trkpt lat="44.96984" lon="0.23292">
        <ele>100</ele>
        <time>2014-11-03T16:21:50Z</time>
      </trkpt>
      <trkpt lat="44.9698" lon="0.23286">
        <ele>100</ele>
        <time>2014-11-03T16:21:55Z</time>
      </trkpt>
      <trkpt lat="44.96976" lon="0.23281">
        <ele>100</ele>
        <time>2014-11-03T16:22:00Z</time>
      </trkpt>
      <trkpt lat="44.96974" lon="0.23275">
        <ele>100</ele>
        <time>2014-11-03T16:22:06Z</time>
      </trkpt>
      <trkpt lat="44.96971" lon="0.23268">
        <ele>100</ele>
        <time>2014-11-03T16:22:10Z</time>
      </trkpt>
      <trkpt lat="44.96967" lon="0.23259">
        <ele>100</ele>
        <time>2014-11-03T16:22:16Z</time>
      </trkpt>
      <trkpt lat="44.96963" lon="0.23252">
        <ele>100</ele>
        <time>2014-11-03T16:22:21Z</time>
      </trkpt>
      <trkpt lat="44.9696" lon="0.23248">
        <ele>100</ele>
        <time>2014-11-03T16:22:25Z</time>
      </trkpt>
      <trkpt lat="44.96955" lon="0.23244">
        <ele>99</ele>
        <time>2014-11-03T16:22:31Z</time>
      </trkpt>
      <trkpt lat="44.96954" lon="0.23239">
        <ele>99</ele>
        <time>2014-11-03T16:22:35Z</time>
      </trkpt>
      <trkpt lat="44.96951" lon="0.23231">
        <ele>99</ele>
        <time>2014-11-03T16:22:41Z</time>
      </trkpt>
      <trkpt lat="44.96947" lon="0.23226">
        <ele>99</ele>
        <time>2014-11-03T16:22:45Z</time>
      </trkpt>
      <trkpt lat="44.96943" lon="0.23223">
        <ele>99</ele>
        <time>2014-11-03T16:22:50Z</time>
      </trkpt>
      <trkpt lat="44.96941" lon="0.23218">
        <ele>99</ele>
        <time>2014-11-03T16:22:55Z</time>
      </trkpt>
      <trkpt lat="44.96935" lon="0.23213">
        <ele>99</ele>
        <time>2014-11-03T16:23:00Z</time>
      </trkpt>
      <trkpt lat="44.96925" lon="0.23207">
        <ele>100</ele>
        <time>2014-11-03T16:23:05Z</time>
      </trkpt>
      <trkpt lat="44.9692" lon="0.23204">
        <ele>100</ele>
        <time>2014-11-03T16:23:10Z</time>
      </trkpt>
      <trkpt lat="44.96919" lon="0.23194">
        <ele>100</ele>
        <time>2014-11-03T16:23:15Z</time>
      </trkpt>
      <trkpt lat="44.96918" lon="0.2319">
        <ele>100</ele>
        <time>2014-11-03T16:23:20Z</time>
      </trkpt>
      <trkpt lat="44.96913" lon="0.2319">
        <ele>100</ele>
        <time>2014-11-03T16:23:26Z</time>
      </trkpt>
      <trkpt lat="44.96912" lon="0.23184">
        <ele>100</ele>
        <time>2014-11-03T16:23:30Z</time>
      </trkpt>
      <trkpt lat="44.96908" lon="0.23176">
        <ele>101</ele>
        <time>2014-11-03T16:23:36Z</time>
      </trkpt>
      <trkpt lat="44.96903" lon="0.23174">
        <ele>101</ele>
        <time>2014-11-03T16:23:40Z</time>
      </trkpt>
      <trkpt lat="44.96895" lon="0.23172">
        <ele>101</ele>
        <time>2014-11-03T16:23:45Z</time>
      </trkpt>
      <trkpt lat="44.96891" lon="0.23167">
        <ele>101</ele>
        <time>2014-11-03T16:23:50Z</time>
      </trkpt>
      <trkpt lat="44.96889" lon="0.23164">
        <ele>101</ele>
        <time>2014-11-03T16:23:57Z</time>
      </trkpt>
      <trkpt lat="44.96886" lon="0.23161">
        <ele>101</ele>
        <time>2014-11-03T16:24:00Z</time>
      </trkpt>
      <trkpt lat="44.96883" lon="0.23157">
        <ele>101</ele>
        <time>2014-11-03T16:24:05Z</time>
      </trkpt>
      <trkpt lat="44.96878" lon="0.23153">
        <ele>101</ele>
        <time>2014-11-03T16:24:10Z</time>
      </trkpt>
      <trkpt lat="44.96875" lon="0.23146">
        <ele>103</ele>
        <time>2014-11-03T16:24:16Z</time>
      </trkpt>
      <trkpt lat="44.96872" lon="0.2314">
        <ele>103</ele>
        <time>2014-11-03T16:24:20Z</time>
      </trkpt>
      <trkpt lat="44.96867" lon="0.23135">
        <ele>103</ele>
        <time>2014-11-03T16:24:25Z</time>
      </trkpt>
      <trkpt lat="44.96863" lon="0.23131">
        <ele>103</ele>
        <time>2014-11-03T16:24:30Z</time>
      </trkpt>
      <trkpt lat="44.9686" lon="0.23126">
        <ele>103</ele>
        <time>2014-11-03T16:24:35Z</time>
      </trkpt>
      <trkpt lat="44.96856" lon="0.2312">
        <ele>103</ele>
        <time>2014-11-03T16:24:41Z</time>
      </trkpt>
      <trkpt lat="44.96854" lon="0.23117">
        <ele>103</ele>
        <time>2014-11-03T16:24:45Z</time>
      </trkpt>
      <trkpt lat="44.96851" lon="0.23112">
        <ele>103</ele>
        <time>2014-11-03T16:24:50Z</time>
      </trkpt>
      <trkpt lat="44.96847" lon="0.23108">
        <ele>104</ele>
        <time>2014-11-03T16:24:55Z</time>
      </trkpt>
      <trkpt lat="44.96842" lon="0.23101">
        <ele>104</ele>
        <time>2014-11-03T16:25:01Z</time>
      </trkpt>
      <trkpt lat="44.96838" lon="0.23096">
        <ele>104</ele>
        <time>2014-11-03T16:25:05Z</time>
      </trkpt>
      <trkpt lat="44.96834" lon="0.23091">
        <ele>104</ele>
        <time>2014-11-03T16:25:10Z</time>
      </trkpt>
      <trkpt lat="44.9683" lon="0.23087">
        <ele>104</ele>
        <time>2014-11-03T16:25:15Z</time>
      </trkpt>
      <trkpt lat="44.96826" lon="0.23083">
        <ele>104</ele>
        <time>2014-11-03T16:25:20Z</time>
      </trkpt>
      <trkpt lat="44.96822" lon="0.23079">
        <ele>104</ele>
        <time>2014-11-03T16:25:25Z</time>
      </trkpt>
      <trkpt lat="44.9682" lon="0.23072">
        <ele>104</ele>
        <time>2014-11-03T16:25:30Z</time>
      </trkpt>
      <trkpt lat="44.96816" lon="0.23067">
        <ele>103</ele>
        <time>2014-11-03T16:25:35Z</time>
      </trkpt>
      <trkpt lat="44.96812" lon="0.23061">
        <ele>103</ele>
        <time>2014-11-03T16:25:40Z</time>
      </trkpt>
      <trkpt lat="44.96809" lon="0.23058">
        <ele>103</ele>
        <time>2014-11-03T16:25:45Z</time>
      </trkpt>
      <trkpt lat="44.96805" lon="0.23051">
        <ele>103</ele>
        <time>2014-11-03T16:25:50Z</time>
      </trkpt>
      <trkpt lat="44.96802" lon="0.23047">
        <ele>103</ele>
        <time>2014-11-03T16:25:55Z</time>
      </trkpt>
      <trkpt lat="44.968" lon="0.23042">
        <ele>103</ele>
        <time>2014-11-03T16:26:00Z</time>
      </trkpt>
      <trkpt lat="44.96796" lon="0.23037">
        <ele>103</ele>
        <time>2014-11-03T16:26:06Z</time>
      </trkpt>
      <trkpt lat="44.96793" lon="0.2303">
        <ele>103</ele>
        <time>2014-11-03T16:26:10Z</time>
      </trkpt>
      <trkpt lat="44.96789" lon="0.23026">
        <ele>103</ele>
        <time>2014-11-03T16:26:15Z</time>
      </trkpt>
      <trkpt lat="44.96784" lon="0.2302">
        <ele>103</ele>
        <time>2014-11-03T16:26:20Z</time>
      </trkpt>
      <trkpt lat="44.9678" lon="0.23014">
        <ele>103</ele>
        <time>2014-11-03T16:26:25Z</time>
      </trkpt>
      <trkpt lat="44.96776" lon="0.23007">
        <ele>102</ele>
        <time>2014-11-03T16:26:30Z</time>
      </trkpt>
      <trkpt lat="44.96773" lon="0.23002">
        <ele>102</ele>
        <time>2014-11-03T16:26:35Z</time>
      </trkpt>
      <trkpt lat="44.96769" lon="0.22995">
        <ele>102</ele>
        <time>2014-11-03T16:26:40Z</time>
      </trkpt>
      <trkpt lat="44.96765" lon="0.22986">
        <ele>102</ele>
        <time>2014-11-03T16:26:45Z</time>
      </trkpt>
      <trkpt lat="44.96763" lon="0.2298">
        <ele>102</ele>
        <time>2014-11-03T16:26:50Z</time>
      </trkpt>
      <trkpt lat="44.9676" lon="0.22977">
        <ele>102</ele>
        <time>2014-11-03T16:26:55Z</time>
      </trkpt>
      <trkpt lat="44.96757" lon="0.2297">
        <ele>102</ele>
        <time>2014-11-03T16:27:01Z</time>
      </trkpt>
      <trkpt lat="44.96753" lon="0.22963">
        <ele>102</ele>
        <time>2014-11-03T16:27:05Z</time>
      </trkpt>
      <trkpt lat="44.96752" lon="0.22958">
        <ele>103</ele>
        <time>2014-11-03T16:27:10Z</time>
      </trkpt>
      <trkpt lat="44.96753" lon="0.22951">
        <ele>103</ele>
        <time>2014-11-03T16:27:15Z</time>
      </trkpt>
      <trkpt lat="44.96746" lon="0.22946">
        <ele>103</ele>
        <time>2014-11-03T16:27:20Z</time>
      </trkpt>
      <trkpt lat="44.96742" lon="0.22939">
        <ele>103</ele>
        <time>2014-11-03T16:27:25Z</time>
      </trkpt>
      <trkpt lat="44.9674" lon="0.22932">
        <ele>103</ele>
        <time>2014-11-03T16:27:30Z</time>
      </trkpt>
      <trkpt lat="44.96739" lon="0.22927">
        <ele>103</ele>
        <time>2014-11-03T16:27:35Z</time>
      </trkpt>
      <trkpt lat="44.96739" lon="0.22922">
        <ele>103</ele>
        <time>2014-11-03T16:27:40Z</time>
      </trkpt>
      <trkpt lat="44.96738" lon="0.22917">
        <ele>103</ele>
        <time>2014-11-03T16:27:45Z</time>
      </trkpt>
      <trkpt lat="44.96738" lon="0.22906">
        <ele>103</ele>
        <time>2014-11-03T16:27:50Z</time>
      </trkpt>
      <trkpt lat="44.96737" lon="0.229">
        <ele>104</ele>
        <time>2014-11-03T16:27:55Z</time>
      </trkpt>
      <trkpt lat="44.96734" lon="0.22894">
        <ele>105</ele>
        <time>2014-11-03T16:28:00Z</time>
      </trkpt>
      <trkpt lat="44.96732" lon="0.22887">
        <ele>105</ele>
        <time>2014-11-03T16:28:05Z</time>
      </trkpt>
      <trkpt lat="44.9673" lon="0.2288">
        <ele>105</ele>
        <time>2014-11-03T16:28:10Z</time>
      </trkpt>
      <trkpt lat="44.96728" lon="0.22872">
        <ele>105</ele>
        <time>2014-11-03T16:28:15Z</time>
      </trkpt>
      <trkpt lat="44.96725" lon="0.22866">
        <ele>105</ele>
        <time>2014-11-03T16:28:20Z</time>
      </trkpt>
      <trkpt lat="44.96722" lon="0.22861">
        <ele>105</ele>
        <time>2014-11-03T16:28:25Z</time>
      </trkpt>
      <trkpt lat="44.96722" lon="0.22854">
        <ele>105</ele>
        <time>2014-11-03T16:28:30Z</time>
      </trkpt>
      <trkpt lat="44.96721" lon="0.22852">
        <ele>105</ele>
        <time>2014-11-03T16:28:35Z</time>
      </trkpt>
      <trkpt lat="44.96722" lon="0.2285">
        <ele>105</ele>
        <time>2014-11-03T16:28:40Z</time>
      </trkpt>
      <trkpt lat="44.96722" lon="0.22848">
        <ele>105</ele>
        <time>2014-11-03T16:28:47Z</time>
      </trkpt>
      <trkpt lat="44.96722" lon="0.22848">
        <ele>105</ele>
        <time>2014-11-03T16:28:50Z</time>
      </trkpt>
      <trkpt lat="44.96717" lon="0.2284">
        <ele>105</ele>
        <time>2014-11-03T16:28:55Z</time>
      </trkpt>
      <trkpt lat="44.96711" lon="0.22828">
        <ele>105</ele>
        <time>2014-11-03T16:29:01Z</time>
      </trkpt>
      <trkpt lat="44.96709" lon="0.2282">
        <ele>105</ele>
        <time>2014-11-03T16:29:05Z</time>
      </trkpt>
      <trkpt lat="44.96709" lon="0.22816">
        <ele>104</ele>
        <time>2014-11-03T16:29:10Z</time>
      </trkpt>
      <trkpt lat="44.96709" lon="0.22809">
        <ele>104</ele>
        <time>2014-11-03T16:29:15Z</time>
      </trkpt>
      <trkpt lat="44.9671" lon="0.22802">
        <ele>104</ele>
        <time>2014-11-03T16:29:20Z</time>
      </trkpt>
      <trkpt lat="44.96706" lon="0.22795">
        <ele>106</ele>
        <time>2014-11-03T16:29:26Z</time>
      </trkpt>
      <trkpt lat="44.96702" lon="0.22788">
        <ele>107</ele>
        <time>2014-11-03T16:29:30Z</time>
      </trkpt>
      <trkpt lat="44.96698" lon="0.2278">
        <ele>107</ele>
        <time>2014-11-03T16:29:35Z</time>
      </trkpt>
      <trkpt lat="44.96696" lon="0.22772">
        <ele>107</ele>
        <time>2014-11-03T16:29:40Z</time>
      </trkpt>
      <trkpt lat="44.96696" lon="0.22763">
        <ele>108</ele>
        <time>2014-11-03T16:29:46Z</time>
      </trkpt>
      <trkpt lat="44.96693" lon="0.2276">
        <ele>108</ele>
        <time>2014-11-03T16:29:50Z</time>
      </trkpt>
      <trkpt lat="44.96689" lon="0.22751">
        <ele>108</ele>
        <time>2014-11-03T16:29:56Z</time>
      </trkpt>
      <trkpt lat="44.96687" lon="0.22745">
        <ele>108</ele>
        <time>2014-11-03T16:30:00Z</time>
      </trkpt>
      <trkpt lat="44.96685" lon="0.22738">
        <ele>108</ele>
        <time>2014-11-03T16:30:05Z</time>
      </trkpt>
      <trkpt lat="44.96681" lon="0.2273">
        <ele>108</ele>
        <time>2014-11-03T16:30:10Z</time>
      </trkpt>
      <trkpt lat="44.9668" lon="0.22722">
        <ele>109</ele>
        <time>2014-11-03T16:30:15Z</time>
      </trkpt>
      <trkpt lat="44.96678" lon="0.22711">
        <ele>109</ele>
        <time>2014-11-03T16:30:20Z</time>
      </trkpt>
      <trkpt lat="44.96677" lon="0.22706">
        <ele>108</ele>
        <time>2014-11-03T16:30:26Z</time>
      </trkpt>
      <trkpt lat="44.96675" lon="0.22701">
        <ele>108</ele>
        <time>2014-11-03T16:30:30Z</time>
      </trkpt>
      <trkpt lat="44.96676" lon="0.22694">
        <ele>108</ele>
        <time>2014-11-03T16:30:35Z</time>
      </trkpt>
      <trkpt lat="44.96674" lon="0.22689">
        <ele>108</ele>
        <time>2014-11-03T16:30:40Z</time>
      </trkpt>
      <trkpt lat="44.96673" lon="0.2269">
        <ele>108</ele>
        <time>2014-11-03T16:30:45Z</time>
      </trkpt>
      <trkpt lat="44.96672" lon="0.2269">
        <ele>108</ele>
        <time>2014-11-03T16:30:50Z</time>
      </trkpt>
      <trkpt lat="44.96671" lon="0.22689">
        <ele>108</ele>
        <time>2014-11-03T16:30:56Z</time>
      </trkpt>
      <trkpt lat="44.96671" lon="0.22687">
        <ele>108</ele>
        <time>2014-11-03T16:31:00Z</time>
      </trkpt>
      <trkpt lat="44.96667" lon="0.22675">
        <ele>108</ele>
        <time>2014-11-03T16:31:05Z</time>
      </trkpt>
      <trkpt lat="44.96662" lon="0.22668">
        <ele>108</ele>
        <time>2014-11-03T16:31:10Z</time>
      </trkpt>
      <trkpt lat="44.96659" lon="0.22661">
        <ele>108</ele>
        <time>2014-11-03T16:31:15Z</time>
      </trkpt>
      <trkpt lat="44.96655" lon="0.22652">
        <ele>106</ele>
        <time>2014-11-03T16:31:20Z</time>
      </trkpt>
      <trkpt lat="44.96651" lon="0.22644">
        <ele>106</ele>
        <time>2014-11-03T16:31:25Z</time>
      </trkpt>
      <trkpt lat="44.9665" lon="0.22635">
        <ele>106</ele>
        <time>2014-11-03T16:31:30Z</time>
      </trkpt>
      <trkpt lat="44.96649" lon="0.22625">
        <ele>106</ele>
        <time>2014-11-03T16:31:35Z</time>
      </trkpt>
      <trkpt lat="44.96647" lon="0.22619">
        <ele>105</ele>
        <time>2014-11-03T16:31:40Z</time>
      </trkpt>
      <trkpt lat="44.96644" lon="0.22613">
        <ele>105</ele>
        <time>2014-11-03T16:31:45Z</time>
      </trkpt>
      <trkpt lat="44.96643" lon="0.22608">
        <ele>105</ele>
        <time>2014-11-03T16:31:50Z</time>
      </trkpt>
      <trkpt lat="44.96641" lon="0.22601">
        <ele>105</ele>
        <time>2014-11-03T16:31:55Z</time>
      </trkpt>
      <trkpt lat="44.96638" lon="0.22595">
        <ele>103</ele>
        <time>2014-11-03T16:32:00Z</time>
      </trkpt>
      <trkpt lat="44.96638" lon="0.22587">
        <ele>103</ele>
        <time>2014-11-03T16:32:05Z</time>
      </trkpt>
      <trkpt lat="44.96638" lon="0.2258">
        <ele>103</ele>
        <time>2014-11-03T16:32:10Z</time>
      </trkpt>
      <trkpt lat="44.96633" lon="0.22573">
        <ele>103</ele>
        <time>2014-11-03T16:32:15Z</time>
      </trkpt>
      <trkpt lat="44.96628" lon="0.22564">
        <ele>103</ele>
        <time>2014-11-03T16:32:20Z</time>
      </trkpt>
      <trkpt lat="44.96629" lon="0.22555">
        <ele>103</ele>
        <time>2014-11-03T16:32:25Z</time>
      </trkpt>
      <trkpt lat="44.96626" lon="0.22546">
        <ele>103</ele>
        <time>2014-11-03T16:32:30Z</time>
      </trkpt>
      <trkpt lat="44.96622" lon="0.22538">
        <ele>104</ele>
        <time>2014-11-03T16:32:36Z</time>
      </trkpt>
      <trkpt lat="44.9662" lon="0.22531">
        <ele>104</ele>
        <time>2014-11-03T16:32:40Z</time>
      </trkpt>
      <trkpt lat="44.96617" lon="0.22525">
        <ele>104</ele>
        <time>2014-11-03T16:32:45Z</time>
      </trkpt>
      <trkpt lat="44.96618" lon="0.22519">
        <ele>104</ele>
        <time>2014-11-03T16:32:51Z</time>
      </trkpt>
      <trkpt lat="44.96615" lon="0.2251">
        <ele>104</ele>
        <time>2014-11-03T16:32:55Z</time>
      </trkpt>
      <trkpt lat="44.96611" lon="0.22505">
        <ele>104</ele>
        <time>2014-11-03T16:33:00Z</time>
      </trkpt>
      <trkpt lat="44.96612" lon="0.22495">
        <ele>104</ele>
        <time>2014-11-03T16:33:06Z</time>
      </trkpt>
      <trkpt lat="44.96611" lon="0.22486">
        <ele>104</ele>
        <time>2014-11-03T16:33:11Z</time>
      </trkpt>
      <trkpt lat="44.96608" lon="0.22479">
        <ele>104</ele>
        <time>2014-11-03T16:33:15Z</time>
      </trkpt>
      <trkpt lat="44.96606" lon="0.22475">
        <ele>104</ele>
        <time>2014-11-03T16:33:21Z</time>
      </trkpt>
      <trkpt lat="44.96604" lon="0.22469">
        <ele>104</ele>
        <time>2014-11-03T16:33:26Z</time>
      </trkpt>
      <trkpt lat="44.96604" lon="0.22466">
        <ele>104</ele>
        <time>2014-11-03T16:33:31Z</time>
      </trkpt>
      <trkpt lat="44.96601" lon="0.22461">
        <ele>104</ele>
        <time>2014-11-03T16:33:35Z</time>
      </trkpt>
      <trkpt lat="44.96597" lon="0.22455">
        <ele>102</ele>
        <time>2014-11-03T16:33:40Z</time>
      </trkpt>
      <trkpt lat="44.96593" lon="0.22447">
        <ele>99</ele>
        <time>2014-11-03T16:33:45Z</time>
      </trkpt>
      <trkpt lat="44.96586" lon="0.22435">
        <ele>99</ele>
        <time>2014-11-03T16:33:50Z</time>
      </trkpt>
      <trkpt lat="44.96584" lon="0.22425">
        <ele>100</ele>
        <time>2014-11-03T16:33:55Z</time>
      </trkpt>
      <trkpt lat="44.96581" lon="0.22416">
        <ele>100</ele>
        <time>2014-11-03T16:34:00Z</time>
      </trkpt>
      <trkpt lat="44.96578" lon="0.22411">
        <ele>100</ele>
        <time>2014-11-03T16:34:05Z</time>
      </trkpt>
      <trkpt lat="44.96575" lon="0.22407">
        <ele>100</ele>
        <time>2014-11-03T16:34:10Z</time>
      </trkpt>
      <trkpt lat="44.96568" lon="0.224">
        <ele>98</ele>
        <time>2014-11-03T16:34:17Z</time>
      </trkpt>
      <trkpt lat="44.96565" lon="0.22398">
        <ele>98</ele>
        <time>2014-11-03T16:34:21Z</time>
      </trkpt>
      <trkpt lat="44.96564" lon="0.22397">
        <ele>98</ele>
        <time>2014-11-03T16:34:26Z</time>
      </trkpt>
      <trkpt lat="44.96556" lon="0.22395">
        <ele>98</ele>
        <time>2014-11-03T16:34:30Z</time>
      </trkpt>
      <trkpt lat="44.96551" lon="0.2239">
        <ele>98</ele>
        <time>2014-11-03T16:34:36Z</time>
      </trkpt>
      <trkpt lat="44.96547" lon="0.22389">
        <ele>98</ele>
        <time>2014-11-03T16:34:40Z</time>
      </trkpt>
      <trkpt lat="44.96543" lon="0.22387">
        <ele>98</ele>
        <time>2014-11-03T16:34:45Z</time>
      </trkpt>
      <trkpt lat="44.96539" lon="0.22383">
        <ele>94</ele>
        <time>2014-11-03T16:34:50Z</time>
      </trkpt>
      <trkpt lat="44.96533" lon="0.2238">
        <ele>94</ele>
        <time>2014-11-03T16:34:55Z</time>
      </trkpt>
      <trkpt lat="44.96528" lon="0.22377">
        <ele>94</ele>
        <time>2014-11-03T16:35:00Z</time>
      </trkpt>
      <trkpt lat="44.96522" lon="0.22376">
        <ele>94</ele>
        <time>2014-11-03T16:35:05Z</time>
      </trkpt>
      <trkpt lat="44.96518" lon="0.22375">
        <ele>96</ele>
        <time>2014-11-03T16:35:10Z</time>
      </trkpt>
      <trkpt lat="44.96514" lon="0.22372">
        <ele>96</ele>
        <time>2014-11-03T16:35:16Z</time>
      </trkpt>
      <trkpt lat="44.9651" lon="0.22369">
        <ele>95</ele>
        <time>2014-11-03T16:35:20Z</time>
      </trkpt>
      <trkpt lat="44.96507" lon="0.22366">
        <ele>95</ele>
        <time>2014-11-03T16:35:25Z</time>
      </trkpt>
      <trkpt lat="44.96503" lon="0.22364">
        <ele>95</ele>
        <time>2014-11-03T16:35:30Z</time>
      </trkpt>
      <trkpt lat="44.96498" lon="0.22359">
        <ele>95</ele>
        <time>2014-11-03T16:35:35Z</time>
      </trkpt>
      <trkpt lat="44.96496" lon="0.22359">
        <ele>95</ele>
        <time>2014-11-03T16:35:40Z</time>
      </trkpt>
      <trkpt lat="44.96495" lon="0.22359">
        <ele>95</ele>
        <time>2014-11-03T16:35:45Z</time>
      </trkpt>
      <trkpt lat="44.9649" lon="0.22357">
        <ele>95</ele>
        <time>2014-11-03T16:35:50Z</time>
      </trkpt>
      <trkpt lat="44.96483" lon="0.22351">
        <ele>97</ele>
        <time>2014-11-03T16:35:55Z</time>
      </trkpt>
      <trkpt lat="44.96479" lon="0.22347">
        <ele>97</ele>
        <time>2014-11-03T16:36:00Z</time>
      </trkpt>
      <trkpt lat="44.96473" lon="0.22341">
        <ele>97</ele>
        <time>2014-11-03T16:36:06Z</time>
      </trkpt>
      <trkpt lat="44.96468" lon="0.22334">
        <ele>97</ele>
        <time>2014-11-03T16:36:11Z</time>
      </trkpt>
      <trkpt lat="44.96468" lon="0.22331">
        <ele>97</ele>
        <time>2014-11-03T16:36:15Z</time>
      </trkpt>
      <trkpt lat="44.96464" lon="0.22325">
        <ele>97</ele>
        <time>2014-11-03T16:36:21Z</time>
      </trkpt>
      <trkpt lat="44.96463" lon="0.22319">
        <ele>98</ele>
        <time>2014-11-03T16:36:26Z</time>
      </trkpt>
      <trkpt lat="44.9646" lon="0.22316">
        <ele>98</ele>
        <time>2014-11-03T16:36:30Z</time>
      </trkpt>
      <trkpt lat="44.9646" lon="0.2231">
        <ele>98</ele>
        <time>2014-11-03T16:36:36Z</time>
      </trkpt>
      <trkpt lat="44.96458" lon="0.22303">
        <ele>98</ele>
        <time>2014-11-03T16:36:41Z</time>
      </trkpt>
      <trkpt lat="44.96458" lon="0.223">
        <ele>98</ele>
        <time>2014-11-03T16:36:45Z</time>
      </trkpt>
      <trkpt lat="44.96459" lon="0.22293">
        <ele>98</ele>
        <time>2014-11-03T16:36:51Z</time>
      </trkpt>
      <trkpt lat="44.96456" lon="0.22286">
        <ele>98</ele>
        <time>2014-11-03T16:36:56Z</time>
      </trkpt>
      <trkpt lat="44.96456" lon="0.22282">
        <ele>98</ele>
        <time>2014-11-03T16:37:01Z</time>
      </trkpt>
      <trkpt lat="44.96457" lon="0.22277">
        <ele>98</ele>
        <time>2014-11-03T16:37:05Z</time>
      </trkpt>
      <trkpt lat="44.96458" lon="0.22274">
        <ele>98</ele>
        <time>2014-11-03T16:37:10Z</time>
      </trkpt>
      <trkpt lat="44.96456" lon="0.22271">
        <ele>98</ele>
        <time>2014-11-03T16:37:15Z</time>
      </trkpt>
      <trkpt lat="44.96454" lon="0.22259">
        <ele>99</ele>
        <time>2014-11-03T16:37:20Z</time>
      </trkpt>
      <trkpt lat="44.96455" lon="0.22253">
        <ele>99</ele>
        <time>2014-11-03T16:37:25Z</time>
      </trkpt>
      <trkpt lat="44.96454" lon="0.22246">
        <ele>99</ele>
        <time>2014-11-03T16:37:30Z</time>
      </trkpt>
      <trkpt lat="44.96451" lon="0.22237">
        <ele>99</ele>
        <time>2014-11-03T16:37:36Z</time>
      </trkpt>
      <trkpt lat="44.9645" lon="0.2223">
        <ele>99</ele>
        <time>2014-11-03T16:37:40Z</time>
      </trkpt>
      <trkpt lat="44.96448" lon="0.22226">
        <ele>99</ele>
        <time>2014-11-03T16:37:45Z</time>
      </trkpt>
      <trkpt lat="44.96447" lon="0.2222">
        <ele>99</ele>
        <time>2014-11-03T16:37:50Z</time>
      </trkpt>
      <trkpt lat="44.96446" lon="0.22214">
        <ele>99</ele>
        <time>2014-11-03T16:37:55Z</time>
      </trkpt>
      <trkpt lat="44.96446" lon="0.22209">
        <ele>99</ele>
        <time>2014-11-03T16:38:01Z</time>
      </trkpt>
      <trkpt lat="44.96447" lon="0.22204">
        <ele>99</ele>
        <time>2014-11-03T16:38:05Z</time>
      </trkpt>
      <trkpt lat="44.96447" lon="0.22199">
        <ele>99</ele>
        <time>2014-11-03T16:38:10Z</time>
      </trkpt>
      <trkpt lat="44.96446" lon="0.22192">
        <ele>99</ele>
        <time>2014-11-03T16:38:15Z</time>
      </trkpt>
      <trkpt lat="44.96443" lon="0.22182">
        <ele>99</ele>
        <time>2014-11-03T16:38:21Z</time>
      </trkpt>
      <trkpt lat="44.96442" lon="0.22175">
        <ele>98</ele>
        <time>2014-11-03T16:38:25Z</time>
      </trkpt>
      <trkpt lat="44.96444" lon="0.22168">
        <ele>98</ele>
        <time>2014-11-03T16:38:30Z</time>
      </trkpt>
      <trkpt lat="44.96444" lon="0.22162">
        <ele>98</ele>
        <time>2014-11-03T16:38:36Z</time>
      </trkpt>
      <trkpt lat="44.96442" lon="0.22154">
        <ele>98</ele>
        <time>2014-11-03T16:38:41Z</time>
      </trkpt>
      <trkpt lat="44.96439" lon="0.22148">
        <ele>97</ele>
        <time>2014-11-03T16:38:45Z</time>
      </trkpt>
      <trkpt lat="44.96435" lon="0.22135">
        <ele>97</ele>
        <time>2014-11-03T16:38:51Z</time>
      </trkpt>
      <trkpt lat="44.96435" lon="0.2213">
        <ele>97</ele>
        <time>2014-11-03T16:38:55Z</time>
      </trkpt>
      <trkpt lat="44.96438" lon="0.22124">
        <ele>97</ele>
        <time>2014-11-03T16:39:00Z</time>
      </trkpt>
      <trkpt lat="44.96437" lon="0.22116">
        <ele>97</ele>
        <time>2014-11-03T16:39:05Z</time>
      </trkpt>
      <trkpt lat="44.96437" lon="0.22109">
        <ele>97</ele>
        <time>2014-11-03T16:39:10Z</time>
      </trkpt>
      <trkpt lat="44.96435" lon="0.22104">
        <ele>97</ele>
        <time>2014-11-03T16:39:15Z</time>
      </trkpt>
      <trkpt lat="44.96432" lon="0.22098">
        <ele>97</ele>
        <time>2014-11-03T16:39:20Z</time>
      </trkpt>
      <trkpt lat="44.96432" lon="0.22094">
        <ele>96</ele>
        <time>2014-11-03T16:39:25Z</time>
      </trkpt>
      <trkpt lat="44.96432" lon="0.22088">
        <ele>96</ele>
        <time>2014-11-03T16:39:31Z</time>
      </trkpt>
      <trkpt lat="44.96435" lon="0.22082">
        <ele>96</ele>
        <time>2014-11-03T16:39:35Z</time>
      </trkpt>
      <trkpt lat="44.96435" lon="0.22073">
        <ele>96</ele>
        <time>2014-11-03T16:39:41Z</time>
      </trkpt>
      <trkpt lat="44.96436" lon="0.22068">
        <ele>96</ele>
        <time>2014-11-03T16:39:45Z</time>
      </trkpt>
      <trkpt lat="44.96436" lon="0.2206">
        <ele>96</ele>
        <time>2014-11-03T16:39:50Z</time>
      </trkpt>
      <trkpt lat="44.96433" lon="0.22052">
        <ele>96</ele>
        <time>2014-11-03T16:39:56Z</time>
      </trkpt>
      <trkpt lat="44.9643" lon="0.22046">
        <ele>95</ele>
        <time>2014-11-03T16:40:00Z</time>
      </trkpt>
      <trkpt lat="44.9643" lon="0.2204">
        <ele>94</ele>
        <time>2014-11-03T16:40:05Z</time>
      </trkpt>
      <trkpt lat="44.96432" lon="0.22033">
        <ele>95</ele>
        <time>2014-11-03T16:40:10Z</time>
      </trkpt>
      <trkpt lat="44.96434" lon="0.22026">
        <ele>95</ele>
        <time>2014-11-03T16:40:15Z</time>
      </trkpt>
      <trkpt lat="44.96436" lon="0.22018">
        <ele>95</ele>
        <time>2014-11-03T16:40:20Z</time>
      </trkpt>
      <trkpt lat="44.96435" lon="0.22011">
        <ele>95</ele>
        <time>2014-11-03T16:40:26Z</time>
      </trkpt>
      <trkpt lat="44.96438" lon="0.22">
        <ele>95</ele>
        <time>2014-11-03T16:40:30Z</time>
      </trkpt>
      <trkpt lat="44.96438" lon="0.21991">
        <ele>95</ele>
        <time>2014-11-03T16:40:35Z</time>
      </trkpt>
      <trkpt lat="44.96439" lon="0.21983">
        <ele>95</ele>
        <time>2014-11-03T16:40:40Z</time>
      </trkpt>
      <trkpt lat="44.96439" lon="0.21974">
        <ele>95</ele>
        <time>2014-11-03T16:40:45Z</time>
      </trkpt>
      <trkpt lat="44.96439" lon="0.21969">
        <ele>95</ele>
        <time>2014-11-03T16:40:50Z</time>
      </trkpt>
      <trkpt lat="44.96438" lon="0.21965">
        <ele>95</ele>
        <time>2014-11-03T16:40:55Z</time>
      </trkpt>
      <trkpt lat="44.96438" lon="0.21958">
        <ele>94</ele>
        <time>2014-11-03T16:41:00Z</time>
      </trkpt>
      <trkpt lat="44.96436" lon="0.21951">
        <ele>94</ele>
        <time>2014-11-03T16:41:05Z</time>
      </trkpt>
      <trkpt lat="44.96436" lon="0.21942">
        <ele>94</ele>
        <time>2014-11-03T16:41:10Z</time>
      </trkpt>
      <trkpt lat="44.96433" lon="0.21935">
        <ele>94</ele>
        <time>2014-11-03T16:41:15Z</time>
      </trkpt>
      <trkpt lat="44.96428" lon="0.21931">
        <ele>94</ele>
        <time>2014-11-03T16:41:20Z</time>
      </trkpt>
      <trkpt lat="44.96428" lon="0.21926">
        <ele>94</ele>
        <time>2014-11-03T16:41:25Z</time>
      </trkpt>
      <trkpt lat="44.96426" lon="0.21919">
        <ele>94</ele>
        <time>2014-11-03T16:41:30Z</time>
      </trkpt>
      <trkpt lat="44.96424" lon="0.21911">
        <ele>94</ele>
        <time>2014-11-03T16:41:36Z</time>
      </trkpt>
      <trkpt lat="44.9642" lon="0.21906">
        <ele>94</ele>
        <time>2014-11-03T16:41:40Z</time>
      </trkpt>
      <trkpt lat="44.96416" lon="0.21896">
        <ele>93</ele>
        <time>2014-11-03T16:41:46Z</time>
      </trkpt>
      <trkpt lat="44.96414" lon="0.21891">
        <ele>93</ele>
        <time>2014-11-03T16:41:50Z</time>
      </trkpt>
      <trkpt lat="44.96412" lon="0.21887">
        <ele>93</ele>
        <time>2014-11-03T16:41:55Z</time>
      </trkpt>
      <trkpt lat="44.96407" lon="0.21883">
        <ele>93</ele>
        <time>2014-11-03T16:42:00Z</time>
      </trkpt>
      <trkpt lat="44.96402" lon="0.21874">
        <ele>91</ele>
        <time>2014-11-03T16:42:05Z</time>
      </trkpt>
      <trkpt lat="44.964" lon="0.21869">
        <ele>91</ele>
        <time>2014-11-03T16:42:10Z</time>
      </trkpt>
      <trkpt lat="44.96399" lon="0.21862">
        <ele>91</ele>
        <time>2014-11-03T16:42:15Z</time>
      </trkpt>
      <trkpt lat="44.96397" lon="0.21856">
        <ele>91</ele>
        <time>2014-11-03T16:42:20Z</time>
      </trkpt>
      <trkpt lat="44.96396" lon="0.21849">
        <ele>91</ele>
        <time>2014-11-03T16:42:25Z</time>
      </trkpt>
      <trkpt lat="44.9639" lon="0.21838">
        <ele>88</ele>
        <time>2014-11-03T16:42:30Z</time>
      </trkpt>
      <trkpt lat="44.96388" lon="0.21834">
        <ele>88</ele>
        <time>2014-11-03T16:42:36Z</time>
      </trkpt>
      <trkpt lat="44.96388" lon="0.21834">
        <ele>88</ele>
        <time>2014-11-03T16:42:41Z</time>
      </trkpt>
      <trkpt lat="44.96388" lon="0.21831">
        <ele>88</ele>
        <time>2014-11-03T16:42:45Z</time>
      </trkpt>
      <trkpt lat="44.96386" lon="0.21823">
        <ele>88</ele>
        <time>2014-11-03T16:42:50Z</time>
      </trkpt>
      <trkpt lat="44.96385" lon="0.21811">
        <ele>86</ele>
        <time>2014-11-03T16:42:55Z</time>
      </trkpt>
      <trkpt lat="44.96379" lon="0.21799">
        <ele>86</ele>
        <time>2014-11-03T16:43:00Z</time>
      </trkpt>
      <trkpt lat="44.96375" lon="0.21796">
        <ele>88</ele>
        <time>2014-11-03T16:43:06Z</time>
      </trkpt>
      <trkpt lat="44.96374" lon="0.21792">
        <ele>88</ele>
        <time>2014-11-03T16:43:12Z</time>
      </trkpt>
      <trkpt lat="44.96373" lon="0.21793">
        <ele>88</ele>
        <time>2014-11-03T16:43:15Z</time>
      </trkpt>
      <trkpt lat="44.96372" lon="0.21788">
        <ele>86</ele>
        <time>2014-11-03T16:43:20Z</time>
      </trkpt>
      <trkpt lat="44.96372" lon="0.2178">
        <ele>86</ele>
        <time>2014-11-03T16:43:25Z</time>
      </trkpt>
      <trkpt lat="44.96375" lon="0.21767">
        <ele>86</ele>
        <time>2014-11-03T16:43:31Z</time>
      </trkpt>
      <trkpt lat="44.96374" lon="0.21763">
        <ele>85</ele>
        <time>2014-11-03T16:43:35Z</time>
      </trkpt>
      <trkpt lat="44.96372" lon="0.21754">
        <ele>85</ele>
        <time>2014-11-03T16:43:41Z</time>
      </trkpt>
      <trkpt lat="44.96373" lon="0.21748">
        <ele>85</ele>
        <time>2014-11-03T16:43:46Z</time>
      </trkpt>
      <trkpt lat="44.96372" lon="0.21741">
        <ele>85</ele>
        <time>2014-11-03T16:43:51Z</time>
      </trkpt>
      <trkpt lat="44.96368" lon="0.21734">
        <ele>84</ele>
        <time>2014-11-03T16:43:57Z</time>
      </trkpt>
      <trkpt lat="44.96368" lon="0.2173">
        <ele>84</ele>
        <time>2014-11-03T16:44:00Z</time>
      </trkpt>
      <trkpt lat="44.96368" lon="0.21724">
        <ele>84</ele>
        <time>2014-11-03T16:44:07Z</time>
      </trkpt>
      <trkpt lat="44.96367" lon="0.21712">
        <ele>84</ele>
        <time>2014-11-03T16:44:11Z</time>
      </trkpt>
      <trkpt lat="44.96366" lon="0.21705">
        <ele>84</ele>
        <time>2014-11-03T16:44:16Z</time>
      </trkpt>
      <trkpt lat="44.96367" lon="0.21697">
        <ele>84</ele>
        <time>2014-11-03T16:44:21Z</time>
      </trkpt>
      <trkpt lat="44.96366" lon="0.21691">
        <ele>84</ele>
        <time>2014-11-03T16:44:25Z</time>
      </trkpt>
      <trkpt lat="44.96365" lon="0.21684">
        <ele>84</ele>
        <time>2014-11-03T16:44:30Z</time>
      </trkpt>
      <trkpt lat="44.96363" lon="0.21677">
        <ele>85</ele>
        <time>2014-11-03T16:44:35Z</time>
      </trkpt>
      <trkpt lat="44.96359" lon="0.21667">
        <ele>85</ele>
        <time>2014-11-03T16:44:42Z</time>
      </trkpt>
      <trkpt lat="44.96358" lon="0.21662">
        <ele>85</ele>
        <time>2014-11-03T16:44:46Z</time>
      </trkpt>
      <trkpt lat="44.96355" lon="0.21655">
        <ele>85</ele>
        <time>2014-11-03T16:44:50Z</time>
      </trkpt>
      <trkpt lat="44.96352" lon="0.21651">
        <ele>86</ele>
        <time>2014-11-03T16:44:55Z</time>
      </trkpt>
      <trkpt lat="44.96348" lon="0.21645">
        <ele>86</ele>
        <time>2014-11-03T16:45:01Z</time>
      </trkpt>
      <trkpt lat="44.96347" lon="0.21641">
        <ele>84</ele>
        <time>2014-11-03T16:45:06Z</time>
      </trkpt>
      <trkpt lat="44.96345" lon="0.21637">
        <ele>84</ele>
        <time>2014-11-03T16:45:11Z</time>
      </trkpt>
      <trkpt lat="44.96345" lon="0.21634">
        <ele>84</ele>
        <time>2014-11-03T16:45:16Z</time>
      </trkpt>
      <trkpt lat="44.96339" lon="0.21627">
        <ele>84</ele>
        <time>2014-11-03T16:45:21Z</time>
      </trkpt>
      <trkpt lat="44.96337" lon="0.21622">
        <ele>85</ele>
        <time>2014-11-03T16:45:25Z</time>
      </trkpt>
      <trkpt lat="44.96334" lon="0.21613">
        <ele>85</ele>
        <time>2014-11-03T16:45:31Z</time>
      </trkpt>
      <trkpt lat="44.96331" lon="0.21606">
        <ele>85</ele>
        <time>2014-11-03T16:45:37Z</time>
      </trkpt>
      <trkpt lat="44.9633" lon="0.21603">
        <ele>85</ele>
        <time>2014-11-03T16:45:41Z</time>
      </trkpt>
      <trkpt lat="44.96327" lon="0.21594">
        <ele>85</ele>
        <time>2014-11-03T16:45:45Z</time>
      </trkpt>
      <trkpt lat="44.96324" lon="0.21587">
        <ele>85</ele>
        <time>2014-11-03T16:45:51Z</time>
      </trkpt>
      <trkpt lat="44.96323" lon="0.21579">
        <ele>85</ele>
        <time>2014-11-03T16:45:58Z</time>
      </trkpt>
      <trkpt lat="44.96322" lon="0.21574">
        <ele>85</ele>
        <time>2014-11-03T16:46:01Z</time>
      </trkpt>
      <trkpt lat="44.96323" lon="0.21569">
        <ele>85</ele>
        <time>2014-11-03T16:46:05Z</time>
      </trkpt>
      <trkpt lat="44.96321" lon="0.21561">
        <ele>85</ele>
        <time>2014-11-03T16:46:11Z</time>
      </trkpt>
      <trkpt lat="44.96322" lon="0.21556">
        <ele>85</ele>
        <time>2014-11-03T16:46:15Z</time>
      </trkpt>
      <trkpt lat="44.96323" lon="0.21549">
        <ele>85</ele>
        <time>2014-11-03T16:46:20Z</time>
      </trkpt>
      <trkpt lat="44.96326" lon="0.21541">
        <ele>85</ele>
        <time>2014-11-03T16:46:25Z</time>
      </trkpt>
      <trkpt lat="44.96326" lon="0.21536">
        <ele>85</ele>
        <time>2014-11-03T16:46:30Z</time>
      </trkpt>
      <trkpt lat="44.96324" lon="0.2153">
        <ele>85</ele>
        <time>2014-11-03T16:46:35Z</time>
      </trkpt>
      <trkpt lat="44.96326" lon="0.21518">
        <ele>85</ele>
        <time>2014-11-03T16:46:41Z</time>
      </trkpt>
      <trkpt lat="44.96334" lon="0.21507">
        <ele>85</ele>
        <time>2014-11-03T16:46:46Z</time>
      </trkpt>
      <trkpt lat="44.96337" lon="0.21499">
        <ele>85</ele>
        <time>2014-11-03T16:46:51Z</time>
      </trkpt>
      <trkpt lat="44.96341" lon="0.21492">
        <ele>85</ele>
        <time>2014-11-03T16:46:55Z</time>
      </trkpt>
      <trkpt lat="44.96346" lon="0.21487">
        <ele>85</ele>
        <time>2014-11-03T16:47:01Z</time>
      </trkpt>
      <trkpt lat="44.96348" lon="0.21486">
        <ele>88</ele>
        <time>2014-11-03T16:47:05Z</time>
      </trkpt>
      <trkpt lat="44.9635" lon="0.21485">
        <ele>88</ele>
        <time>2014-11-03T16:47:10Z</time>
      </trkpt>
      <trkpt lat="44.96352" lon="0.21484">
        <ele>88</ele>
        <time>2014-11-03T16:47:16Z</time>
      </trkpt>
      <trkpt lat="44.96355" lon="0.2148">
        <ele>88</ele>
        <time>2014-11-03T16:47:21Z</time>
      </trkpt>
      <trkpt lat="44.96359" lon="0.21477">
        <ele>88</ele>
        <time>2014-11-03T16:47:25Z</time>
      </trkpt>
      <trkpt lat="44.96362" lon="0.21471">
        <ele>88</ele>
        <time>2014-11-03T16:47:30Z</time>
      </trkpt>
      <trkpt lat="44.96367" lon="0.21465">
        <ele>88</ele>
        <time>2014-11-03T16:47:38Z</time>
      </trkpt>
      <trkpt lat="44.96369" lon="0.21462">
        <ele>88</ele>
        <time>2014-11-03T16:47:40Z</time>
      </trkpt>
      <trkpt lat="44.96374" lon="0.21455">
        <ele>87</ele>
        <time>2014-11-03T16:47:46Z</time>
      </trkpt>
      <trkpt lat="44.96377" lon="0.21448">
        <ele>86</ele>
        <time>2014-11-03T16:47:51Z</time>
      </trkpt>
      <trkpt lat="44.96382" lon="0.21445">
        <ele>86</ele>
        <time>2014-11-03T16:47:56Z</time>
      </trkpt>
      <trkpt lat="44.96386" lon="0.2144">
        <ele>86</ele>
        <time>2014-11-03T16:48:00Z</time>
      </trkpt>
      <trkpt lat="44.96382" lon="0.21433">
        <ele>86</ele>
        <time>2014-11-03T16:48:05Z</time>
      </trkpt>
      <trkpt lat="44.96386" lon="0.21422">
        <ele>84</ele>
        <time>2014-11-03T16:48:11Z</time>
      </trkpt>
      <trkpt lat="44.96385" lon="0.21415">
        <ele>84</ele>
        <time>2014-11-03T16:48:16Z</time>
      </trkpt>
      <trkpt lat="44.96385" lon="0.21408">
        <ele>84</ele>
        <time>2014-11-03T16:48:20Z</time>
      </trkpt>
      <trkpt lat="44.96385" lon="0.21403">
        <ele>84</ele>
        <time>2014-11-03T16:48:25Z</time>
      </trkpt>
      <trkpt lat="44.96388" lon="0.21395">
        <ele>84</ele>
        <time>2014-11-03T16:48:30Z</time>
      </trkpt>
      <trkpt lat="44.96392" lon="0.21387">
        <ele>84</ele>
        <time>2014-11-03T16:48:35Z</time>
      </trkpt>
      <trkpt lat="44.96393" lon="0.21381">
        <ele>84</ele>
        <time>2014-11-03T16:48:40Z</time>
      </trkpt>
      <trkpt lat="44.96393" lon="0.21373">
        <ele>84</ele>
        <time>2014-11-03T16:48:45Z</time>
      </trkpt>
      <trkpt lat="44.96396" lon="0.21364">
        <ele>84</ele>
        <time>2014-11-03T16:48:50Z</time>
      </trkpt>
      <trkpt lat="44.96398" lon="0.21356">
        <ele>84</ele>
        <time>2014-11-03T16:48:55Z</time>
      </trkpt>
      <trkpt lat="44.964" lon="0.21349">
        <ele>84</ele>
        <time>2014-11-03T16:49:00Z</time>
      </trkpt>
      <trkpt lat="44.964" lon="0.21344">
        <ele>84</ele>
        <time>2014-11-03T16:49:05Z</time>
      </trkpt>
      <trkpt lat="44.96405" lon="0.21331">
        <ele>85</ele>
        <time>2014-11-03T16:49:11Z</time>
      </trkpt>
      <trkpt lat="44.96407" lon="0.21326">
        <ele>85</ele>
        <time>2014-11-03T16:49:16Z</time>
      </trkpt>
      <trkpt lat="44.96408" lon="0.2132">
        <ele>85</ele>
        <time>2014-11-03T16:49:20Z</time>
      </trkpt>
      <trkpt lat="44.96407" lon="0.21312">
        <ele>85</ele>
        <time>2014-11-03T16:49:25Z</time>
      </trkpt>
      <trkpt lat="44.96407" lon="0.21305">
        <ele>85</ele>
        <time>2014-11-03T16:49:30Z</time>
      </trkpt>
      <trkpt lat="44.96402" lon="0.21299">
        <ele>85</ele>
        <time>2014-11-03T16:49:36Z</time>
      </trkpt>
      <trkpt lat="44.964" lon="0.21293">
        <ele>85</ele>
        <time>2014-11-03T16:49:41Z</time>
      </trkpt>
      <trkpt lat="44.964" lon="0.21285">
        <ele>85</ele>
        <time>2014-11-03T16:49:46Z</time>
      </trkpt>
      <trkpt lat="44.96401" lon="0.2128">
        <ele>85</ele>
        <time>2014-11-03T16:49:50Z</time>
      </trkpt>
      <trkpt lat="44.964" lon="0.21275">
        <ele>85</ele>
        <time>2014-11-03T16:49:55Z</time>
      </trkpt>
      <trkpt lat="44.96399" lon="0.21266">
        <ele>85</ele>
        <time>2014-11-03T16:50:01Z</time>
      </trkpt>
      <trkpt lat="44.96401" lon="0.21258">
        <ele>87</ele>
        <time>2014-11-03T16:50:07Z</time>
      </trkpt>
      <trkpt lat="44.96402" lon="0.21248">
        <ele>87</ele>
        <time>2014-11-03T16:50:10Z</time>
      </trkpt>
      <trkpt lat="44.96394" lon="0.2124">
        <ele>87</ele>
        <time>2014-11-03T16:50:16Z</time>
      </trkpt>
      <trkpt lat="44.96397" lon="0.21234">
        <ele>87</ele>
        <time>2014-11-03T16:50:21Z</time>
      </trkpt>
      <trkpt lat="44.96399" lon="0.2123">
        <ele>87</ele>
        <time>2014-11-03T16:50:25Z</time>
      </trkpt>
      <trkpt lat="44.96397" lon="0.21222">
        <ele>87</ele>
        <time>2014-11-03T16:50:30Z</time>
      </trkpt>
      <trkpt lat="44.96396" lon="0.21214">
        <ele>87</ele>
        <time>2014-11-03T16:50:36Z</time>
      </trkpt>
      <trkpt lat="44.96395" lon="0.21207">
        <ele>87</ele>
        <time>2014-11-03T16:50:40Z</time>
      </trkpt>
      <trkpt lat="44.96398" lon="0.21202">
        <ele>87</ele>
        <time>2014-11-03T16:50:45Z</time>
      </trkpt>
      <trkpt lat="44.96398" lon="0.21201">
        <ele>87</ele>
        <time>2014-11-03T16:50:51Z</time>
      </trkpt>
      <trkpt lat="44.96398" lon="0.21201">
        <ele>87</ele>
        <time>2014-11-03T16:50:57Z</time>
      </trkpt>
      <trkpt lat="44.96398" lon="0.21201">
        <ele>87</ele>
        <time>2014-11-03T16:51:00Z</time>
      </trkpt>
      <trkpt lat="44.96397" lon="0.21199">
        <ele>87</ele>
        <time>2014-11-03T16:51:06Z</time>
      </trkpt>
      <trkpt lat="44.96396" lon="0.21196">
        <ele>87</ele>
        <time>2014-11-03T16:51:10Z</time>
      </trkpt>
      <trkpt lat="44.96397" lon="0.2118">
        <ele>87</ele>
        <time>2014-11-03T16:51:15Z</time>
      </trkpt>
      <trkpt lat="44.96398" lon="0.21174">
        <ele>87</ele>
        <time>2014-11-03T16:51:20Z</time>
      </trkpt>
      <trkpt lat="44.96401" lon="0.21169">
        <ele>87</ele>
        <time>2014-11-03T16:51:25Z</time>
      </trkpt>
      <trkpt lat="44.96398" lon="0.21164">
        <ele>87</ele>
        <time>2014-11-03T16:51:30Z</time>
      </trkpt>
      <trkpt lat="44.96397" lon="0.2116">
        <ele>87</ele>
        <time>2014-11-03T16:51:35Z</time>
      </trkpt>
      <trkpt lat="44.96393" lon="0.21145">
        <ele>87</ele>
        <time>2014-11-03T16:51:41Z</time>
      </trkpt>
      <trkpt lat="44.96393" lon="0.21142">
        <ele>87</ele>
        <time>2014-11-03T16:51:45Z</time>
      </trkpt>
      <trkpt lat="44.96393" lon="0.21136">
        <ele>87</ele>
        <time>2014-11-03T16:51:50Z</time>
      </trkpt>
      <trkpt lat="44.96392" lon="0.21129">
        <ele>87</ele>
        <time>2014-11-03T16:51:55Z</time>
      </trkpt>
      <trkpt lat="44.96395" lon="0.21119">
        <ele>87</ele>
        <time>2014-11-03T16:52:01Z</time>
      </trkpt>
      <trkpt lat="44.96398" lon="0.21117">
        <ele>87</ele>
        <time>2014-11-03T16:52:05Z</time>
      </trkpt>
      <trkpt lat="44.964" lon="0.21112">
        <ele>87</ele>
        <time>2014-11-03T16:52:10Z</time>
      </trkpt>
      <trkpt lat="44.96402" lon="0.21102">
        <ele>87</ele>
        <time>2014-11-03T16:52:16Z</time>
      </trkpt>
      <trkpt lat="44.96403" lon="0.21096">
        <ele>86</ele>
        <time>2014-11-03T16:52:20Z</time>
      </trkpt>
      <trkpt lat="44.96403" lon="0.2109">
        <ele>86</ele>
        <time>2014-11-03T16:52:25Z</time>
      </trkpt>
      <trkpt lat="44.96402" lon="0.21083">
        <ele>87</ele>
        <time>2014-11-03T16:52:30Z</time>
      </trkpt>
      <trkpt lat="44.96403" lon="0.21077">
        <ele>87</ele>
        <time>2014-11-03T16:52:35Z</time>
      </trkpt>
      <trkpt lat="44.96404" lon="0.21074">
        <ele>86</ele>
        <time>2014-11-03T16:52:41Z</time>
      </trkpt>
      <trkpt lat="44.96404" lon="0.21075">
        <ele>86</ele>
        <time>2014-11-03T16:52:46Z</time>
      </trkpt>
      <trkpt lat="44.96403" lon="0.21073">
        <ele>86</ele>
        <time>2014-11-03T16:52:51Z</time>
      </trkpt>
      <trkpt lat="44.96406" lon="0.21064">
        <ele>86</ele>
        <time>2014-11-03T16:52:55Z</time>
      </trkpt>
      <trkpt lat="44.96409" lon="0.21057">
        <ele>86</ele>
        <time>2014-11-03T16:53:00Z</time>
      </trkpt>
      <trkpt lat="44.96413" lon="0.21051">
        <ele>86</ele>
        <time>2014-11-03T16:53:07Z</time>
      </trkpt>
      <trkpt lat="44.96415" lon="0.21046">
        <ele>86</ele>
        <time>2014-11-03T16:53:10Z</time>
      </trkpt>
      <trkpt lat="44.96416" lon="0.2104">
        <ele>87</ele>
        <time>2014-11-03T16:53:15Z</time>
      </trkpt>
      <trkpt lat="44.96418" lon="0.21031">
        <ele>87</ele>
        <time>2014-11-03T16:53:21Z</time>
      </trkpt>
      <trkpt lat="44.96419" lon="0.21024">
        <ele>87</ele>
        <time>2014-11-03T16:53:25Z</time>
      </trkpt>
      <trkpt lat="44.96419" lon="0.21022">
        <ele>87</ele>
        <time>2014-11-03T16:53:30Z</time>
      </trkpt>
      <trkpt lat="44.96419" lon="0.21015">
        <ele>87</ele>
        <time>2014-11-03T16:53:35Z</time>
      </trkpt>
      <trkpt lat="44.9642" lon="0.21007">
        <ele>89</ele>
        <time>2014-11-03T16:53:40Z</time>
      </trkpt>
      <trkpt lat="44.96421" lon="0.21003">
        <ele>89</ele>
        <time>2014-11-03T16:53:45Z</time>
      </trkpt>
      <trkpt lat="44.96422" lon="0.20999">
        <ele>89</ele>
        <time>2014-11-03T16:53:51Z</time>
      </trkpt>
      <trkpt lat="44.96423" lon="0.20994">
        <ele>89</ele>
        <time>2014-11-03T16:53:55Z</time>
      </trkpt>
      <trkpt lat="44.96425" lon="0.20988">
        <ele>89</ele>
        <time>2014-11-03T16:54:00Z</time>
      </trkpt>
      <trkpt lat="44.96425" lon="0.2098">
        <ele>91</ele>
        <time>2014-11-03T16:54:06Z</time>
      </trkpt>
      <trkpt lat="44.96426" lon="0.20973">
        <ele>91</ele>
        <time>2014-11-03T16:54:11Z</time>
      </trkpt>
      <trkpt lat="44.9643" lon="0.20968">
        <ele>91</ele>
        <time>2014-11-03T16:54:15Z</time>
      </trkpt>
      <trkpt lat="44.96435" lon="0.20968">
        <ele>92</ele>
        <time>2014-11-03T16:54:20Z</time>
      </trkpt>
      <trkpt lat="44.96439" lon="0.20968">
        <ele>92</ele>
        <time>2014-11-03T16:54:25Z</time>
      </trkpt>
      <trkpt lat="44.96443" lon="0.20969">
        <ele>92</ele>
        <time>2014-11-03T16:54:30Z</time>
      </trkpt>
      <trkpt lat="44.96448" lon="0.2097">
        <ele>92</ele>
        <time>2014-11-03T16:54:35Z</time>
      </trkpt>
      <trkpt lat="44.96454" lon="0.20972">
        <ele>92</ele>
        <time>2014-11-03T16:54:41Z</time>
      </trkpt>
      <trkpt lat="44.96459" lon="0.20972">
        <ele>93</ele>
        <time>2014-11-03T16:54:45Z</time>
      </trkpt>
      <trkpt lat="44.96463" lon="0.20974">
        <ele>93</ele>
        <time>2014-11-03T16:54:50Z</time>
      </trkpt>
      <trkpt lat="44.96468" lon="0.20975">
        <ele>93</ele>
        <time>2014-11-03T16:54:55Z</time>
      </trkpt>
      <trkpt lat="44.96473" lon="0.20975">
        <ele>93</ele>
        <time>2014-11-03T16:55:00Z</time>
      </trkpt>
      <trkpt lat="44.96478" lon="0.20977">
        <ele>93</ele>
        <time>2014-11-03T16:55:05Z</time>
      </trkpt>
      <trkpt lat="44.96483" lon="0.20979">
        <ele>93</ele>
        <time>2014-11-03T16:55:10Z</time>
      </trkpt>
      <trkpt lat="44.96488" lon="0.20983">
        <ele>93</ele>
        <time>2014-11-03T16:55:15Z</time>
      </trkpt>
      <trkpt lat="44.96494" lon="0.20987">
        <ele>94</ele>
        <time>2014-11-03T16:55:20Z</time>
      </trkpt>
      <trkpt lat="44.96498" lon="0.20991">
        <ele>94</ele>
        <time>2014-11-03T16:55:27Z</time>
      </trkpt>
      <trkpt lat="44.96503" lon="0.20995">
        <ele>94</ele>
        <time>2014-11-03T16:55:31Z</time>
      </trkpt>
      <trkpt lat="44.96506" lon="0.20998">
        <ele>94</ele>
        <time>2014-11-03T16:55:35Z</time>
      </trkpt>
      <trkpt lat="44.9651" lon="0.21002">
        <ele>94</ele>
        <time>2014-11-03T16:55:40Z</time>
      </trkpt>
      <trkpt lat="44.96511" lon="0.21005">
        <ele>94</ele>
        <time>2014-11-03T16:55:46Z</time>
      </trkpt>
      <trkpt lat="44.96512" lon="0.21002">
        <ele>94</ele>
        <time>2014-11-03T16:55:50Z</time>
      </trkpt>
      <trkpt lat="44.96513" lon="0.21003">
        <ele>94</ele>
        <time>2014-11-03T16:55:55Z</time>
      </trkpt>
      <trkpt lat="44.96515" lon="0.21005">
        <ele>94</ele>
        <time>2014-11-03T16:56:00Z</time>
      </trkpt>
      <trkpt lat="44.9652" lon="0.21007">
        <ele>94</ele>
        <time>2014-11-03T16:56:05Z</time>
      </trkpt>
      <trkpt lat="44.96526" lon="0.21014">
        <ele>95</ele>
        <time>2014-11-03T16:56:11Z</time>
      </trkpt>
      <trkpt lat="44.9653" lon="0.21017">
        <ele>95</ele>
        <time>2014-11-03T16:56:15Z</time>
      </trkpt>
      <trkpt lat="44.96534" lon="0.21021">
        <ele>95</ele>
        <time>2014-11-03T16:56:20Z</time>
      </trkpt>
      <trkpt lat="44.96538" lon="0.2103">
        <ele>95</ele>
        <time>2014-11-03T16:56:25Z</time>
      </trkpt>
      <trkpt lat="44.96541" lon="0.21032">
        <ele>95</ele>
        <time>2014-11-03T16:56:30Z</time>
      </trkpt>
      <trkpt lat="44.96543" lon="0.21038">
        <ele>94</ele>
        <time>2014-11-03T16:56:35Z</time>
      </trkpt>
      <trkpt lat="44.96546" lon="0.21044">
        <ele>94</ele>
        <time>2014-11-03T16:56:40Z</time>
      </trkpt>
      <trkpt lat="44.96549" lon="0.21053">
        <ele>94</ele>
        <time>2014-11-03T16:56:45Z</time>
      </trkpt>
      <trkpt lat="44.96553" lon="0.21057">
        <ele>94</ele>
        <time>2014-11-03T16:56:50Z</time>
      </trkpt>
      <trkpt lat="44.96554" lon="0.21061">
        <ele>94</ele>
        <time>2014-11-03T16:56:55Z</time>
      </trkpt>
      <trkpt lat="44.96554" lon="0.21061">
        <ele>94</ele>
        <time>2014-11-03T16:57:00Z</time>
      </trkpt>
      <trkpt lat="44.96555" lon="0.21063">
        <ele>94</ele>
        <time>2014-11-03T16:57:05Z</time>
      </trkpt>
      <trkpt lat="44.96558" lon="0.21067">
        <ele>94</ele>
        <time>2014-11-03T16:57:10Z</time>
      </trkpt>
      <trkpt lat="44.96559" lon="0.21067">
        <ele>94</ele>
        <time>2014-11-03T16:57:15Z</time>
      </trkpt>
      <trkpt lat="44.96558" lon="0.21066">
        <ele>94</ele>
        <time>2014-11-03T16:57:20Z</time>
      </trkpt>
    </trkseg>
  </trk>
</gpx>